<?xml version="1.0" encoding="UTF-8" standalone="no" ?>
<gpx xmlns="http://www.topografix.com/GPX/1/1" xmlns:xsi="http://www.w3.org/2001/XMLSchema-instance" xsi:schemaLocation="http://www.topografix.com/GPX/1/1 http://www.topografix.com/GPX/1/1/gpx.xsd" version="1.1" creator="VisuGPX - https://www.visugpx.com">
  <metadata>
    <name>sortie 09/01/2016</name>
    <desc><![CDATA[premiere sortie 2016]]></desc>
  </metadata>
  <trk>
    <name><![CDATA[09-JAN-16 04:22:52 PM]]></name>
    <trkseg>
      <trkpt lat="43.68844" lon="-1.22876">
        <ele>40.99</ele>
        <time>2016-01-09T12:51:43Z</time>
      </trkpt>
      <trkpt lat="43.68845" lon="-1.22877">
        <ele>41.47</ele>
        <time>2016-01-09T12:51:46Z</time>
      </trkpt>
      <trkpt lat="43.68861" lon="-1.2288">
        <ele>40.99</ele>
        <time>2016-01-09T12:51:58Z</time>
      </trkpt>
      <trkpt lat="43.68865" lon="-1.22889">
        <ele>41.47</ele>
        <time>2016-01-09T12:52:13Z</time>
      </trkpt>
      <trkpt lat="43.68866" lon="-1.2289">
        <ele>41.47</ele>
        <time>2016-01-09T12:52:34Z</time>
      </trkpt>
      <trkpt lat="43.68865" lon="-1.2289">
        <ele>40.99</ele>
        <time>2016-01-09T12:52:53Z</time>
      </trkpt>
      <trkpt lat="43.68865" lon="-1.22889">
        <ele>40.99</ele>
        <time>2016-01-09T12:53:05Z</time>
      </trkpt>
      <trkpt lat="43.68863" lon="-1.22886">
        <ele>40.99</ele>
        <time>2016-01-09T12:53:09Z</time>
      </trkpt>
      <trkpt lat="43.68851" lon="-1.22874">
        <ele>40.99</ele>
        <time>2016-01-09T12:53:23Z</time>
      </trkpt>
      <trkpt lat="43.68849" lon="-1.2287">
        <ele>41.47</ele>
        <time>2016-01-09T12:53:52Z</time>
      </trkpt>
      <trkpt lat="43.68849" lon="-1.22873">
        <ele>41.47</ele>
        <time>2016-01-09T12:53:54Z</time>
      </trkpt>
      <trkpt lat="43.68858" lon="-1.22877">
        <ele>41.47</ele>
        <time>2016-01-09T12:54:05Z</time>
      </trkpt>
      <trkpt lat="43.68862" lon="-1.22879">
        <ele>41.47</ele>
        <time>2016-01-09T12:54:11Z</time>
      </trkpt>
      <trkpt lat="43.68864" lon="-1.22884">
        <ele>41.47</ele>
        <time>2016-01-09T12:54:21Z</time>
      </trkpt>
      <trkpt lat="43.68864" lon="-1.22886">
        <ele>41.47</ele>
        <time>2016-01-09T12:54:47Z</time>
      </trkpt>
      <trkpt lat="43.68864" lon="-1.22886">
        <ele>41.47</ele>
        <time>2016-01-09T12:55:10Z</time>
      </trkpt>
      <trkpt lat="43.68864" lon="-1.22887">
        <ele>40.99</ele>
        <time>2016-01-09T12:55:33Z</time>
      </trkpt>
      <trkpt lat="43.68864" lon="-1.22888">
        <ele>40.99</ele>
        <time>2016-01-09T12:55:54Z</time>
      </trkpt>
      <trkpt lat="43.68864" lon="-1.22888">
        <ele>40.99</ele>
        <time>2016-01-09T12:56:17Z</time>
      </trkpt>
      <trkpt lat="43.68864" lon="-1.22888">
        <ele>41.47</ele>
        <time>2016-01-09T12:56:41Z</time>
      </trkpt>
      <trkpt lat="43.68864" lon="-1.22888">
        <ele>40.99</ele>
        <time>2016-01-09T12:57:09Z</time>
      </trkpt>
      <trkpt lat="43.68864" lon="-1.22887">
        <ele>41.47</ele>
        <time>2016-01-09T12:57:30Z</time>
      </trkpt>
      <trkpt lat="43.68864" lon="-1.22887">
        <ele>40.99</ele>
        <time>2016-01-09T12:57:58Z</time>
      </trkpt>
      <trkpt lat="43.68864" lon="-1.22889">
        <ele>40.99</ele>
        <time>2016-01-09T12:58:29Z</time>
      </trkpt>
      <trkpt lat="43.68864" lon="-1.22889">
        <ele>40.99</ele>
        <time>2016-01-09T12:58:55Z</time>
      </trkpt>
      <trkpt lat="43.68864" lon="-1.22888">
        <ele>40.99</ele>
        <time>2016-01-09T12:59:16Z</time>
      </trkpt>
      <trkpt lat="43.68865" lon="-1.22886">
        <ele>40.99</ele>
        <time>2016-01-09T12:59:36Z</time>
      </trkpt>
      <trkpt lat="43.68865" lon="-1.22887">
        <ele>40.99</ele>
        <time>2016-01-09T12:59:54Z</time>
      </trkpt>
      <trkpt lat="43.68865" lon="-1.22888">
        <ele>40.51</ele>
        <time>2016-01-09T13:00:14Z</time>
      </trkpt>
      <trkpt lat="43.68865" lon="-1.22888">
        <ele>40.51</ele>
        <time>2016-01-09T13:00:32Z</time>
      </trkpt>
      <trkpt lat="43.68865" lon="-1.22887">
        <ele>40.51</ele>
        <time>2016-01-09T13:00:59Z</time>
      </trkpt>
      <trkpt lat="43.68864" lon="-1.22888">
        <ele>40.03</ele>
        <time>2016-01-09T13:01:31Z</time>
      </trkpt>
      <trkpt lat="43.68865" lon="-1.22889">
        <ele>40.03</ele>
        <time>2016-01-09T13:02:03Z</time>
      </trkpt>
      <trkpt lat="43.68867" lon="-1.22888">
        <ele>40.03</ele>
        <time>2016-01-09T13:02:23Z</time>
      </trkpt>
      <trkpt lat="43.68871" lon="-1.22895">
        <ele>40.03</ele>
        <time>2016-01-09T13:02:27Z</time>
      </trkpt>
      <trkpt lat="43.68871" lon="-1.22923">
        <ele>40.03</ele>
        <time>2016-01-09T13:02:42Z</time>
      </trkpt>
      <trkpt lat="43.6887" lon="-1.22923">
        <ele>40.03</ele>
        <time>2016-01-09T13:03:06Z</time>
      </trkpt>
      <trkpt lat="43.6887" lon="-1.22928">
        <ele>40.03</ele>
        <time>2016-01-09T13:03:10Z</time>
      </trkpt>
      <trkpt lat="43.68867" lon="-1.22934">
        <ele>40.03</ele>
        <time>2016-01-09T13:03:13Z</time>
      </trkpt>
      <trkpt lat="43.6885" lon="-1.22938">
        <ele>39.55</ele>
        <time>2016-01-09T13:03:19Z</time>
      </trkpt>
      <trkpt lat="43.68782" lon="-1.22951">
        <ele>38.59</ele>
        <time>2016-01-09T13:03:36Z</time>
      </trkpt>
      <trkpt lat="43.68772" lon="-1.22965">
        <ele>38.59</ele>
        <time>2016-01-09T13:03:41Z</time>
      </trkpt>
      <trkpt lat="43.68769" lon="-1.22969">
        <ele>38.59</ele>
        <time>2016-01-09T13:03:42Z</time>
      </trkpt>
      <trkpt lat="43.68764" lon="-1.22972">
        <ele>38.59</ele>
        <time>2016-01-09T13:03:43Z</time>
      </trkpt>
      <trkpt lat="43.68759" lon="-1.22972">
        <ele>38.11</ele>
        <time>2016-01-09T13:03:44Z</time>
      </trkpt>
      <trkpt lat="43.68753" lon="-1.2297">
        <ele>38.11</ele>
        <time>2016-01-09T13:03:45Z</time>
      </trkpt>
      <trkpt lat="43.68749" lon="-1.22965">
        <ele>38.11</ele>
        <time>2016-01-09T13:03:46Z</time>
      </trkpt>
      <trkpt lat="43.68746" lon="-1.2296">
        <ele>38.11</ele>
        <time>2016-01-09T13:03:47Z</time>
      </trkpt>
      <trkpt lat="43.68743" lon="-1.22954">
        <ele>38.11</ele>
        <time>2016-01-09T13:03:48Z</time>
      </trkpt>
      <trkpt lat="43.68739" lon="-1.22949">
        <ele>38.11</ele>
        <time>2016-01-09T13:03:49Z</time>
      </trkpt>
      <trkpt lat="43.68734" lon="-1.22946">
        <ele>37.63</ele>
        <time>2016-01-09T13:03:50Z</time>
      </trkpt>
      <trkpt lat="43.68729" lon="-1.22945">
        <ele>37.63</ele>
        <time>2016-01-09T13:03:51Z</time>
      </trkpt>
      <trkpt lat="43.68724" lon="-1.22945">
        <ele>37.63</ele>
        <time>2016-01-09T13:03:52Z</time>
      </trkpt>
      <trkpt lat="43.68719" lon="-1.22946">
        <ele>37.63</ele>
        <time>2016-01-09T13:03:53Z</time>
      </trkpt>
      <trkpt lat="43.68619" lon="-1.22955">
        <ele>35.71</ele>
        <time>2016-01-09T13:04:09Z</time>
      </trkpt>
      <trkpt lat="43.68495" lon="-1.22965">
        <ele>36.19</ele>
        <time>2016-01-09T13:04:28Z</time>
      </trkpt>
      <trkpt lat="43.68458" lon="-1.22971">
        <ele>36.19</ele>
        <time>2016-01-09T13:04:34Z</time>
      </trkpt>
      <trkpt lat="43.68452" lon="-1.22973">
        <ele>36.19</ele>
        <time>2016-01-09T13:04:35Z</time>
      </trkpt>
      <trkpt lat="43.68446" lon="-1.22977">
        <ele>36.19</ele>
        <time>2016-01-09T13:04:36Z</time>
      </trkpt>
      <trkpt lat="43.68441" lon="-1.22981">
        <ele>36.67</ele>
        <time>2016-01-09T13:04:37Z</time>
      </trkpt>
      <trkpt lat="43.68434" lon="-1.22982">
        <ele>36.67</ele>
        <time>2016-01-09T13:04:38Z</time>
      </trkpt>
      <trkpt lat="43.68428" lon="-1.22981">
        <ele>36.67</ele>
        <time>2016-01-09T13:04:39Z</time>
      </trkpt>
      <trkpt lat="43.68422" lon="-1.22978">
        <ele>36.67</ele>
        <time>2016-01-09T13:04:40Z</time>
      </trkpt>
      <trkpt lat="43.68416" lon="-1.22976">
        <ele>36.67</ele>
        <time>2016-01-09T13:04:41Z</time>
      </trkpt>
      <trkpt lat="43.6841" lon="-1.22974">
        <ele>36.67</ele>
        <time>2016-01-09T13:04:42Z</time>
      </trkpt>
      <trkpt lat="43.68404" lon="-1.22973">
        <ele>36.67</ele>
        <time>2016-01-09T13:04:43Z</time>
      </trkpt>
      <trkpt lat="43.68398" lon="-1.22973">
        <ele>36.67</ele>
        <time>2016-01-09T13:04:44Z</time>
      </trkpt>
      <trkpt lat="43.68268" lon="-1.22983">
        <ele>36.67</ele>
        <time>2016-01-09T13:05:04Z</time>
      </trkpt>
      <trkpt lat="43.68159" lon="-1.23013">
        <ele>34.74</ele>
        <time>2016-01-09T13:05:20Z</time>
      </trkpt>
      <trkpt lat="43.68042" lon="-1.23085">
        <ele>31.38</ele>
        <time>2016-01-09T13:05:37Z</time>
      </trkpt>
      <trkpt lat="43.67972" lon="-1.23131">
        <ele>29.46</ele>
        <time>2016-01-09T13:05:48Z</time>
      </trkpt>
      <trkpt lat="43.67967" lon="-1.23137">
        <ele>28.98</ele>
        <time>2016-01-09T13:05:49Z</time>
      </trkpt>
      <trkpt lat="43.67962" lon="-1.23144">
        <ele>28.98</ele>
        <time>2016-01-09T13:05:50Z</time>
      </trkpt>
      <trkpt lat="43.67956" lon="-1.23149">
        <ele>28.98</ele>
        <time>2016-01-09T13:05:51Z</time>
      </trkpt>
      <trkpt lat="43.6795" lon="-1.23152">
        <ele>28.98</ele>
        <time>2016-01-09T13:05:52Z</time>
      </trkpt>
      <trkpt lat="43.67943" lon="-1.23153">
        <ele>28.5</ele>
        <time>2016-01-09T13:05:53Z</time>
      </trkpt>
      <trkpt lat="43.67929" lon="-1.23158">
        <ele>28.02</ele>
        <time>2016-01-09T13:05:55Z</time>
      </trkpt>
      <trkpt lat="43.67821" lon="-1.23223">
        <ele>25.13</ele>
        <time>2016-01-09T13:06:10Z</time>
      </trkpt>
      <trkpt lat="43.67716" lon="-1.23307">
        <ele>22.25</ele>
        <time>2016-01-09T13:06:26Z</time>
      </trkpt>
      <trkpt lat="43.67613" lon="-1.23405">
        <ele>18.88</ele>
        <time>2016-01-09T13:06:42Z</time>
      </trkpt>
      <trkpt lat="43.67506" lon="-1.23505">
        <ele>16.48</ele>
        <time>2016-01-09T13:06:58Z</time>
      </trkpt>
      <trkpt lat="43.67397" lon="-1.23609">
        <ele>18.4</ele>
        <time>2016-01-09T13:07:17Z</time>
      </trkpt>
      <trkpt lat="43.67276" lon="-1.23724">
        <ele>21.29</ele>
        <time>2016-01-09T13:07:40Z</time>
      </trkpt>
      <trkpt lat="43.67194" lon="-1.23802">
        <ele>22.73</ele>
        <time>2016-01-09T13:07:56Z</time>
      </trkpt>
      <trkpt lat="43.67102" lon="-1.23887">
        <ele>24.65</ele>
        <time>2016-01-09T13:08:14Z</time>
      </trkpt>
      <trkpt lat="43.67087" lon="-1.23901">
        <ele>24.65</ele>
        <time>2016-01-09T13:08:17Z</time>
      </trkpt>
      <trkpt lat="43.67083" lon="-1.23907">
        <ele>24.65</ele>
        <time>2016-01-09T13:08:18Z</time>
      </trkpt>
      <trkpt lat="43.67059" lon="-1.23929">
        <ele>24.17</ele>
        <time>2016-01-09T13:08:23Z</time>
      </trkpt>
      <trkpt lat="43.6698" lon="-1.24004">
        <ele>24.65</ele>
        <time>2016-01-09T13:08:37Z</time>
      </trkpt>
      <trkpt lat="43.66878" lon="-1.24083">
        <ele>25.61</ele>
        <time>2016-01-09T13:08:54Z</time>
      </trkpt>
      <trkpt lat="43.66778" lon="-1.24102">
        <ele>27.53</ele>
        <time>2016-01-09T13:09:09Z</time>
      </trkpt>
      <trkpt lat="43.66669" lon="-1.24121">
        <ele>30.42</ele>
        <time>2016-01-09T13:09:26Z</time>
      </trkpt>
      <trkpt lat="43.66536" lon="-1.24149">
        <ele>31.86</ele>
        <time>2016-01-09T13:09:46Z</time>
      </trkpt>
      <trkpt lat="43.66445" lon="-1.24188">
        <ele>33.3</ele>
        <time>2016-01-09T13:10:00Z</time>
      </trkpt>
      <trkpt lat="43.66338" lon="-1.24259">
        <ele>34.74</ele>
        <time>2016-01-09T13:10:17Z</time>
      </trkpt>
      <trkpt lat="43.66214" lon="-1.24344">
        <ele>34.74</ele>
        <time>2016-01-09T13:10:36Z</time>
      </trkpt>
      <trkpt lat="43.6609" lon="-1.24412">
        <ele>35.23</ele>
        <time>2016-01-09T13:10:54Z</time>
      </trkpt>
      <trkpt lat="43.6597" lon="-1.24469">
        <ele>36.19</ele>
        <time>2016-01-09T13:11:11Z</time>
      </trkpt>
      <trkpt lat="43.65838" lon="-1.24529">
        <ele>37.15</ele>
        <time>2016-01-09T13:11:30Z</time>
      </trkpt>
      <trkpt lat="43.65726" lon="-1.24582">
        <ele>37.63</ele>
        <time>2016-01-09T13:11:46Z</time>
      </trkpt>
      <trkpt lat="43.65625" lon="-1.24628">
        <ele>37.63</ele>
        <time>2016-01-09T13:12:00Z</time>
      </trkpt>
      <trkpt lat="43.65533" lon="-1.2467">
        <ele>36.67</ele>
        <time>2016-01-09T13:12:13Z</time>
      </trkpt>
      <trkpt lat="43.65422" lon="-1.24722">
        <ele>35.71</ele>
        <time>2016-01-09T13:12:27Z</time>
      </trkpt>
      <trkpt lat="43.65354" lon="-1.24757">
        <ele>35.23</ele>
        <time>2016-01-09T13:12:36Z</time>
      </trkpt>
      <trkpt lat="43.65259" lon="-1.24801">
        <ele>35.23</ele>
        <time>2016-01-09T13:12:48Z</time>
      </trkpt>
      <trkpt lat="43.6514" lon="-1.24858">
        <ele>35.23</ele>
        <time>2016-01-09T13:13:03Z</time>
      </trkpt>
      <trkpt lat="43.65023" lon="-1.24912">
        <ele>35.71</ele>
        <time>2016-01-09T13:13:18Z</time>
      </trkpt>
      <trkpt lat="43.64873" lon="-1.24984">
        <ele>35.71</ele>
        <time>2016-01-09T13:13:37Z</time>
      </trkpt>
      <trkpt lat="43.64737" lon="-1.25051">
        <ele>35.71</ele>
        <time>2016-01-09T13:13:55Z</time>
      </trkpt>
      <trkpt lat="43.6473" lon="-1.25057">
        <ele>35.71</ele>
        <time>2016-01-09T13:13:56Z</time>
      </trkpt>
      <trkpt lat="43.64724" lon="-1.25064">
        <ele>35.71</ele>
        <time>2016-01-09T13:13:57Z</time>
      </trkpt>
      <trkpt lat="43.64719" lon="-1.25073">
        <ele>35.71</ele>
        <time>2016-01-09T13:13:58Z</time>
      </trkpt>
      <trkpt lat="43.6471" lon="-1.25091">
        <ele>36.19</ele>
        <time>2016-01-09T13:14:00Z</time>
      </trkpt>
      <trkpt lat="43.64703" lon="-1.25098">
        <ele>36.19</ele>
        <time>2016-01-09T13:14:01Z</time>
      </trkpt>
      <trkpt lat="43.64696" lon="-1.25102">
        <ele>37.15</ele>
        <time>2016-01-09T13:14:02Z</time>
      </trkpt>
      <trkpt lat="43.64689" lon="-1.25104">
        <ele>36.67</ele>
        <time>2016-01-09T13:14:03Z</time>
      </trkpt>
      <trkpt lat="43.64681" lon="-1.25104">
        <ele>36.19</ele>
        <time>2016-01-09T13:14:04Z</time>
      </trkpt>
      <trkpt lat="43.64672" lon="-1.25102">
        <ele>36.19</ele>
        <time>2016-01-09T13:14:05Z</time>
      </trkpt>
      <trkpt lat="43.64665" lon="-1.25099">
        <ele>35.71</ele>
        <time>2016-01-09T13:14:06Z</time>
      </trkpt>
      <trkpt lat="43.64657" lon="-1.25095">
        <ele>35.71</ele>
        <time>2016-01-09T13:14:07Z</time>
      </trkpt>
      <trkpt lat="43.64649" lon="-1.25094">
        <ele>35.23</ele>
        <time>2016-01-09T13:14:08Z</time>
      </trkpt>
      <trkpt lat="43.6464" lon="-1.25094">
        <ele>35.23</ele>
        <time>2016-01-09T13:14:09Z</time>
      </trkpt>
      <trkpt lat="43.64632" lon="-1.25097">
        <ele>34.74</ele>
        <time>2016-01-09T13:14:10Z</time>
      </trkpt>
      <trkpt lat="43.64624" lon="-1.25101">
        <ele>35.23</ele>
        <time>2016-01-09T13:14:11Z</time>
      </trkpt>
      <trkpt lat="43.64496" lon="-1.25159">
        <ele>35.71</ele>
        <time>2016-01-09T13:14:27Z</time>
      </trkpt>
      <trkpt lat="43.64331" lon="-1.25236">
        <ele>36.19</ele>
        <time>2016-01-09T13:14:48Z</time>
      </trkpt>
      <trkpt lat="43.64156" lon="-1.25318">
        <ele>35.23</ele>
        <time>2016-01-09T13:15:10Z</time>
      </trkpt>
      <trkpt lat="43.64006" lon="-1.25369">
        <ele>35.23</ele>
        <time>2016-01-09T13:15:28Z</time>
      </trkpt>
      <trkpt lat="43.63845" lon="-1.25418">
        <ele>33.78</ele>
        <time>2016-01-09T13:15:47Z</time>
      </trkpt>
      <trkpt lat="43.63726" lon="-1.25455">
        <ele>33.78</ele>
        <time>2016-01-09T13:16:01Z</time>
      </trkpt>
      <trkpt lat="43.63572" lon="-1.25502">
        <ele>33.3</ele>
        <time>2016-01-09T13:16:19Z</time>
      </trkpt>
      <trkpt lat="43.63421" lon="-1.25548">
        <ele>33.78</ele>
        <time>2016-01-09T13:16:37Z</time>
      </trkpt>
      <trkpt lat="43.63277" lon="-1.25591">
        <ele>33.78</ele>
        <time>2016-01-09T13:16:54Z</time>
      </trkpt>
      <trkpt lat="43.6314" lon="-1.25637">
        <ele>31.86</ele>
        <time>2016-01-09T13:17:10Z</time>
      </trkpt>
      <trkpt lat="43.62999" lon="-1.25689">
        <ele>32.82</ele>
        <time>2016-01-09T13:17:27Z</time>
      </trkpt>
      <trkpt lat="43.629" lon="-1.25776">
        <ele>34.74</ele>
        <time>2016-01-09T13:17:41Z</time>
      </trkpt>
      <trkpt lat="43.62788" lon="-1.25881">
        <ele>34.74</ele>
        <time>2016-01-09T13:17:57Z</time>
      </trkpt>
      <trkpt lat="43.62676" lon="-1.25989">
        <ele>35.23</ele>
        <time>2016-01-09T13:18:14Z</time>
      </trkpt>
      <trkpt lat="43.62672" lon="-1.25998">
        <ele>34.74</ele>
        <time>2016-01-09T13:18:15Z</time>
      </trkpt>
      <trkpt lat="43.62666" lon="-1.26006">
        <ele>34.74</ele>
        <time>2016-01-09T13:18:16Z</time>
      </trkpt>
      <trkpt lat="43.6266" lon="-1.26011">
        <ele>34.74</ele>
        <time>2016-01-09T13:18:17Z</time>
      </trkpt>
      <trkpt lat="43.62652" lon="-1.26014">
        <ele>34.74</ele>
        <time>2016-01-09T13:18:18Z</time>
      </trkpt>
      <trkpt lat="43.62644" lon="-1.26017">
        <ele>34.74</ele>
        <time>2016-01-09T13:18:19Z</time>
      </trkpt>
      <trkpt lat="43.62636" lon="-1.26021">
        <ele>34.74</ele>
        <time>2016-01-09T13:18:20Z</time>
      </trkpt>
      <trkpt lat="43.62517" lon="-1.26104">
        <ele>35.23</ele>
        <time>2016-01-09T13:18:35Z</time>
      </trkpt>
      <trkpt lat="43.62404" lon="-1.26162">
        <ele>34.74</ele>
        <time>2016-01-09T13:18:49Z</time>
      </trkpt>
      <trkpt lat="43.62383" lon="-1.26179">
        <ele>35.23</ele>
        <time>2016-01-09T13:18:52Z</time>
      </trkpt>
      <trkpt lat="43.62377" lon="-1.26185">
        <ele>35.23</ele>
        <time>2016-01-09T13:18:53Z</time>
      </trkpt>
      <trkpt lat="43.6237" lon="-1.26189">
        <ele>35.23</ele>
        <time>2016-01-09T13:18:54Z</time>
      </trkpt>
      <trkpt lat="43.62363" lon="-1.26188">
        <ele>35.23</ele>
        <time>2016-01-09T13:18:55Z</time>
      </trkpt>
      <trkpt lat="43.62355" lon="-1.26185">
        <ele>35.23</ele>
        <time>2016-01-09T13:18:56Z</time>
      </trkpt>
      <trkpt lat="43.62347" lon="-1.26182">
        <ele>35.23</ele>
        <time>2016-01-09T13:18:57Z</time>
      </trkpt>
      <trkpt lat="43.62339" lon="-1.26181">
        <ele>35.23</ele>
        <time>2016-01-09T13:18:58Z</time>
      </trkpt>
      <trkpt lat="43.62332" lon="-1.26181">
        <ele>35.23</ele>
        <time>2016-01-09T13:18:59Z</time>
      </trkpt>
      <trkpt lat="43.62324" lon="-1.26182">
        <ele>35.23</ele>
        <time>2016-01-09T13:19:00Z</time>
      </trkpt>
      <trkpt lat="43.62294" lon="-1.26187">
        <ele>35.71</ele>
        <time>2016-01-09T13:19:04Z</time>
      </trkpt>
      <trkpt lat="43.62287" lon="-1.26185">
        <ele>35.71</ele>
        <time>2016-01-09T13:19:05Z</time>
      </trkpt>
      <trkpt lat="43.62281" lon="-1.26182">
        <ele>36.19</ele>
        <time>2016-01-09T13:19:06Z</time>
      </trkpt>
      <trkpt lat="43.62274" lon="-1.26177">
        <ele>36.19</ele>
        <time>2016-01-09T13:19:07Z</time>
      </trkpt>
      <trkpt lat="43.62268" lon="-1.26173">
        <ele>35.71</ele>
        <time>2016-01-09T13:19:08Z</time>
      </trkpt>
      <trkpt lat="43.62237" lon="-1.2615">
        <ele>36.19</ele>
        <time>2016-01-09T13:19:13Z</time>
      </trkpt>
      <trkpt lat="43.62231" lon="-1.26145">
        <ele>35.71</ele>
        <time>2016-01-09T13:19:14Z</time>
      </trkpt>
      <trkpt lat="43.62222" lon="-1.26133">
        <ele>35.71</ele>
        <time>2016-01-09T13:19:16Z</time>
      </trkpt>
      <trkpt lat="43.62218" lon="-1.26126">
        <ele>36.19</ele>
        <time>2016-01-09T13:19:17Z</time>
      </trkpt>
      <trkpt lat="43.62214" lon="-1.26119">
        <ele>36.19</ele>
        <time>2016-01-09T13:19:18Z</time>
      </trkpt>
      <trkpt lat="43.62159" lon="-1.26005">
        <ele>35.71</ele>
        <time>2016-01-09T13:19:32Z</time>
      </trkpt>
      <trkpt lat="43.6208" lon="-1.25824">
        <ele>35.23</ele>
        <time>2016-01-09T13:19:52Z</time>
      </trkpt>
      <trkpt lat="43.62033" lon="-1.25666">
        <ele>32.82</ele>
        <time>2016-01-09T13:20:07Z</time>
      </trkpt>
      <trkpt lat="43.62031" lon="-1.25655">
        <ele>32.82</ele>
        <time>2016-01-09T13:20:08Z</time>
      </trkpt>
      <trkpt lat="43.62027" lon="-1.25644">
        <ele>32.34</ele>
        <time>2016-01-09T13:20:09Z</time>
      </trkpt>
      <trkpt lat="43.61968" lon="-1.25515">
        <ele>30.42</ele>
        <time>2016-01-09T13:20:22Z</time>
      </trkpt>
      <trkpt lat="43.619" lon="-1.25367">
        <ele>32.82</ele>
        <time>2016-01-09T13:20:37Z</time>
      </trkpt>
      <trkpt lat="43.61816" lon="-1.25225">
        <ele>33.78</ele>
        <time>2016-01-09T13:20:53Z</time>
      </trkpt>
      <trkpt lat="43.61746" lon="-1.25102">
        <ele>35.23</ele>
        <time>2016-01-09T13:21:07Z</time>
      </trkpt>
      <trkpt lat="43.61692" lon="-1.24965">
        <ele>36.67</ele>
        <time>2016-01-09T13:21:21Z</time>
      </trkpt>
      <trkpt lat="43.61669" lon="-1.24914">
        <ele>37.15</ele>
        <time>2016-01-09T13:21:27Z</time>
      </trkpt>
      <trkpt lat="43.61663" lon="-1.24908">
        <ele>36.67</ele>
        <time>2016-01-09T13:21:28Z</time>
      </trkpt>
      <trkpt lat="43.61656" lon="-1.24902">
        <ele>36.67</ele>
        <time>2016-01-09T13:21:29Z</time>
      </trkpt>
      <trkpt lat="43.61648" lon="-1.24897">
        <ele>36.19</ele>
        <time>2016-01-09T13:21:30Z</time>
      </trkpt>
      <trkpt lat="43.6164" lon="-1.24895">
        <ele>36.19</ele>
        <time>2016-01-09T13:21:31Z</time>
      </trkpt>
      <trkpt lat="43.61632" lon="-1.24893">
        <ele>36.67</ele>
        <time>2016-01-09T13:21:32Z</time>
      </trkpt>
      <trkpt lat="43.61624" lon="-1.24892">
        <ele>36.67</ele>
        <time>2016-01-09T13:21:33Z</time>
      </trkpt>
      <trkpt lat="43.61512" lon="-1.24873">
        <ele>37.63</ele>
        <time>2016-01-09T13:21:47Z</time>
      </trkpt>
      <trkpt lat="43.614" lon="-1.24827">
        <ele>38.11</ele>
        <time>2016-01-09T13:22:01Z</time>
      </trkpt>
      <trkpt lat="43.61327" lon="-1.24803">
        <ele>38.11</ele>
        <time>2016-01-09T13:22:10Z</time>
      </trkpt>
      <trkpt lat="43.6132" lon="-1.24798">
        <ele>38.11</ele>
        <time>2016-01-09T13:22:11Z</time>
      </trkpt>
      <trkpt lat="43.61314" lon="-1.2479">
        <ele>38.11</ele>
        <time>2016-01-09T13:22:12Z</time>
      </trkpt>
      <trkpt lat="43.6131" lon="-1.2478">
        <ele>38.11</ele>
        <time>2016-01-09T13:22:13Z</time>
      </trkpt>
      <trkpt lat="43.61307" lon="-1.24769">
        <ele>38.11</ele>
        <time>2016-01-09T13:22:14Z</time>
      </trkpt>
      <trkpt lat="43.61305" lon="-1.24757">
        <ele>38.11</ele>
        <time>2016-01-09T13:22:15Z</time>
      </trkpt>
      <trkpt lat="43.61303" lon="-1.24746">
        <ele>37.63</ele>
        <time>2016-01-09T13:22:16Z</time>
      </trkpt>
      <trkpt lat="43.61298" lon="-1.24723">
        <ele>37.63</ele>
        <time>2016-01-09T13:22:18Z</time>
      </trkpt>
      <trkpt lat="43.61293" lon="-1.24714">
        <ele>37.63</ele>
        <time>2016-01-09T13:22:19Z</time>
      </trkpt>
      <trkpt lat="43.61287" lon="-1.24706">
        <ele>37.63</ele>
        <time>2016-01-09T13:22:20Z</time>
      </trkpt>
      <trkpt lat="43.6128" lon="-1.247">
        <ele>37.15</ele>
        <time>2016-01-09T13:22:21Z</time>
      </trkpt>
      <trkpt lat="43.61271" lon="-1.24697">
        <ele>37.63</ele>
        <time>2016-01-09T13:22:22Z</time>
      </trkpt>
      <trkpt lat="43.61263" lon="-1.24695">
        <ele>37.63</ele>
        <time>2016-01-09T13:22:23Z</time>
      </trkpt>
      <trkpt lat="43.61254" lon="-1.24693">
        <ele>37.63</ele>
        <time>2016-01-09T13:22:24Z</time>
      </trkpt>
      <trkpt lat="43.61162" lon="-1.24679">
        <ele>37.15</ele>
        <time>2016-01-09T13:22:35Z</time>
      </trkpt>
      <trkpt lat="43.61155" lon="-1.24674">
        <ele>37.15</ele>
        <time>2016-01-09T13:22:36Z</time>
      </trkpt>
      <trkpt lat="43.61149" lon="-1.24666">
        <ele>37.15</ele>
        <time>2016-01-09T13:22:37Z</time>
      </trkpt>
      <trkpt lat="43.61144" lon="-1.24656">
        <ele>37.15</ele>
        <time>2016-01-09T13:22:38Z</time>
      </trkpt>
      <trkpt lat="43.61142" lon="-1.24644">
        <ele>37.15</ele>
        <time>2016-01-09T13:22:39Z</time>
      </trkpt>
      <trkpt lat="43.6114" lon="-1.24632">
        <ele>36.67</ele>
        <time>2016-01-09T13:22:40Z</time>
      </trkpt>
      <trkpt lat="43.61139" lon="-1.24619">
        <ele>36.67</ele>
        <time>2016-01-09T13:22:41Z</time>
      </trkpt>
      <trkpt lat="43.61133" lon="-1.24583">
        <ele>36.19</ele>
        <time>2016-01-09T13:22:44Z</time>
      </trkpt>
      <trkpt lat="43.61129" lon="-1.24572">
        <ele>36.19</ele>
        <time>2016-01-09T13:22:45Z</time>
      </trkpt>
      <trkpt lat="43.61124" lon="-1.24561">
        <ele>36.19</ele>
        <time>2016-01-09T13:22:46Z</time>
      </trkpt>
      <trkpt lat="43.61119" lon="-1.24552">
        <ele>36.19</ele>
        <time>2016-01-09T13:22:47Z</time>
      </trkpt>
      <trkpt lat="43.61113" lon="-1.24542">
        <ele>36.67</ele>
        <time>2016-01-09T13:22:48Z</time>
      </trkpt>
      <trkpt lat="43.61107" lon="-1.24533">
        <ele>36.19</ele>
        <time>2016-01-09T13:22:49Z</time>
      </trkpt>
      <trkpt lat="43.61101" lon="-1.24524">
        <ele>36.67</ele>
        <time>2016-01-09T13:22:50Z</time>
      </trkpt>
      <trkpt lat="43.61092" lon="-1.24506">
        <ele>36.67</ele>
        <time>2016-01-09T13:22:52Z</time>
      </trkpt>
      <trkpt lat="43.61088" lon="-1.24495">
        <ele>37.15</ele>
        <time>2016-01-09T13:22:53Z</time>
      </trkpt>
      <trkpt lat="43.61086" lon="-1.24484">
        <ele>36.67</ele>
        <time>2016-01-09T13:22:54Z</time>
      </trkpt>
      <trkpt lat="43.61085" lon="-1.24473">
        <ele>37.63</ele>
        <time>2016-01-09T13:22:55Z</time>
      </trkpt>
      <trkpt lat="43.61084" lon="-1.24463">
        <ele>37.15</ele>
        <time>2016-01-09T13:22:56Z</time>
      </trkpt>
      <trkpt lat="43.61052" lon="-1.24347">
        <ele>37.63</ele>
        <time>2016-01-09T13:23:07Z</time>
      </trkpt>
      <trkpt lat="43.60997" lon="-1.2424">
        <ele>38.59</ele>
        <time>2016-01-09T13:23:19Z</time>
      </trkpt>
      <trkpt lat="43.60991" lon="-1.24234">
        <ele>38.59</ele>
        <time>2016-01-09T13:23:20Z</time>
      </trkpt>
      <trkpt lat="43.60984" lon="-1.24228">
        <ele>39.07</ele>
        <time>2016-01-09T13:23:21Z</time>
      </trkpt>
      <trkpt lat="43.60976" lon="-1.24223">
        <ele>39.07</ele>
        <time>2016-01-09T13:23:22Z</time>
      </trkpt>
      <trkpt lat="43.60968" lon="-1.24218">
        <ele>39.07</ele>
        <time>2016-01-09T13:23:23Z</time>
      </trkpt>
      <trkpt lat="43.6096" lon="-1.24215">
        <ele>39.07</ele>
        <time>2016-01-09T13:23:24Z</time>
      </trkpt>
      <trkpt lat="43.60951" lon="-1.24213">
        <ele>39.07</ele>
        <time>2016-01-09T13:23:25Z</time>
      </trkpt>
      <trkpt lat="43.60943" lon="-1.24211">
        <ele>39.07</ele>
        <time>2016-01-09T13:23:26Z</time>
      </trkpt>
      <trkpt lat="43.60799" lon="-1.24183">
        <ele>37.63</ele>
        <time>2016-01-09T13:23:43Z</time>
      </trkpt>
      <trkpt lat="43.60791" lon="-1.24183">
        <ele>37.63</ele>
        <time>2016-01-09T13:23:44Z</time>
      </trkpt>
      <trkpt lat="43.60782" lon="-1.24185">
        <ele>37.15</ele>
        <time>2016-01-09T13:23:45Z</time>
      </trkpt>
      <trkpt lat="43.60774" lon="-1.24189">
        <ele>36.67</ele>
        <time>2016-01-09T13:23:46Z</time>
      </trkpt>
      <trkpt lat="43.60767" lon="-1.24195">
        <ele>36.67</ele>
        <time>2016-01-09T13:23:47Z</time>
      </trkpt>
      <trkpt lat="43.6076" lon="-1.24203">
        <ele>36.19</ele>
        <time>2016-01-09T13:23:48Z</time>
      </trkpt>
      <trkpt lat="43.60752" lon="-1.24211">
        <ele>36.19</ele>
        <time>2016-01-09T13:23:49Z</time>
      </trkpt>
      <trkpt lat="43.607" lon="-1.24267">
        <ele>35.71</ele>
        <time>2016-01-09T13:23:56Z</time>
      </trkpt>
      <trkpt lat="43.60692" lon="-1.24272">
        <ele>36.19</ele>
        <time>2016-01-09T13:23:57Z</time>
      </trkpt>
      <trkpt lat="43.60683" lon="-1.24275">
        <ele>36.67</ele>
        <time>2016-01-09T13:23:58Z</time>
      </trkpt>
      <trkpt lat="43.60675" lon="-1.24278">
        <ele>36.67</ele>
        <time>2016-01-09T13:23:59Z</time>
      </trkpt>
      <trkpt lat="43.60666" lon="-1.24279">
        <ele>36.67</ele>
        <time>2016-01-09T13:24:00Z</time>
      </trkpt>
      <trkpt lat="43.60657" lon="-1.24278">
        <ele>36.19</ele>
        <time>2016-01-09T13:24:01Z</time>
      </trkpt>
      <trkpt lat="43.60647" lon="-1.24275">
        <ele>36.19</ele>
        <time>2016-01-09T13:24:02Z</time>
      </trkpt>
      <trkpt lat="43.60639" lon="-1.2427">
        <ele>37.15</ele>
        <time>2016-01-09T13:24:03Z</time>
      </trkpt>
      <trkpt lat="43.6063" lon="-1.24264">
        <ele>36.19</ele>
        <time>2016-01-09T13:24:04Z</time>
      </trkpt>
      <trkpt lat="43.60583" lon="-1.24228">
        <ele>35.71</ele>
        <time>2016-01-09T13:24:10Z</time>
      </trkpt>
      <trkpt lat="43.60576" lon="-1.2422">
        <ele>35.71</ele>
        <time>2016-01-09T13:24:11Z</time>
      </trkpt>
      <trkpt lat="43.60569" lon="-1.24211">
        <ele>35.71</ele>
        <time>2016-01-09T13:24:12Z</time>
      </trkpt>
      <trkpt lat="43.60564" lon="-1.242">
        <ele>35.71</ele>
        <time>2016-01-09T13:24:13Z</time>
      </trkpt>
      <trkpt lat="43.6056" lon="-1.24188">
        <ele>35.71</ele>
        <time>2016-01-09T13:24:14Z</time>
      </trkpt>
      <trkpt lat="43.60556" lon="-1.24176">
        <ele>35.71</ele>
        <time>2016-01-09T13:24:15Z</time>
      </trkpt>
      <trkpt lat="43.6049" lon="-1.24012">
        <ele>36.19</ele>
        <time>2016-01-09T13:24:30Z</time>
      </trkpt>
      <trkpt lat="43.6045" lon="-1.23933">
        <ele>35.23</ele>
        <time>2016-01-09T13:24:38Z</time>
      </trkpt>
      <trkpt lat="43.60443" lon="-1.23925">
        <ele>35.71</ele>
        <time>2016-01-09T13:24:39Z</time>
      </trkpt>
      <trkpt lat="43.60436" lon="-1.23919">
        <ele>35.71</ele>
        <time>2016-01-09T13:24:40Z</time>
      </trkpt>
      <trkpt lat="43.60428" lon="-1.23913">
        <ele>35.71</ele>
        <time>2016-01-09T13:24:41Z</time>
      </trkpt>
      <trkpt lat="43.60421" lon="-1.23908">
        <ele>35.71</ele>
        <time>2016-01-09T13:24:42Z</time>
      </trkpt>
      <trkpt lat="43.60406" lon="-1.23899">
        <ele>36.19</ele>
        <time>2016-01-09T13:24:44Z</time>
      </trkpt>
      <trkpt lat="43.60399" lon="-1.23893">
        <ele>36.19</ele>
        <time>2016-01-09T13:24:45Z</time>
      </trkpt>
      <trkpt lat="43.60393" lon="-1.23887">
        <ele>36.19</ele>
        <time>2016-01-09T13:24:46Z</time>
      </trkpt>
      <trkpt lat="43.60387" lon="-1.23879">
        <ele>36.67</ele>
        <time>2016-01-09T13:24:47Z</time>
      </trkpt>
      <trkpt lat="43.60382" lon="-1.23871">
        <ele>36.67</ele>
        <time>2016-01-09T13:24:48Z</time>
      </trkpt>
      <trkpt lat="43.60377" lon="-1.23863">
        <ele>37.15</ele>
        <time>2016-01-09T13:24:49Z</time>
      </trkpt>
      <trkpt lat="43.60321" lon="-1.23779">
        <ele>33.3</ele>
        <time>2016-01-09T13:24:59Z</time>
      </trkpt>
      <trkpt lat="43.60315" lon="-1.2377">
        <ele>33.3</ele>
        <time>2016-01-09T13:25:00Z</time>
      </trkpt>
      <trkpt lat="43.60281" lon="-1.23725">
        <ele>29.94</ele>
        <time>2016-01-09T13:25:05Z</time>
      </trkpt>
      <trkpt lat="43.60246" lon="-1.2368">
        <ele>26.57</ele>
        <time>2016-01-09T13:25:10Z</time>
      </trkpt>
      <trkpt lat="43.60231" lon="-1.2366">
        <ele>25.13</ele>
        <time>2016-01-09T13:25:12Z</time>
      </trkpt>
      <trkpt lat="43.60157" lon="-1.23567">
        <ele>22.25</ele>
        <time>2016-01-09T13:25:22Z</time>
      </trkpt>
      <trkpt lat="43.60121" lon="-1.23525">
        <ele>19.84</ele>
        <time>2016-01-09T13:25:27Z</time>
      </trkpt>
      <trkpt lat="43.60072" lon="-1.23465">
        <ele>16.48</ele>
        <time>2016-01-09T13:25:34Z</time>
      </trkpt>
      <trkpt lat="43.60035" lon="-1.23418">
        <ele>13.6</ele>
        <time>2016-01-09T13:25:39Z</time>
      </trkpt>
      <trkpt lat="43.60027" lon="-1.23411">
        <ele>13.12</ele>
        <time>2016-01-09T13:25:40Z</time>
      </trkpt>
      <trkpt lat="43.60018" lon="-1.23405">
        <ele>12.15</ele>
        <time>2016-01-09T13:25:41Z</time>
      </trkpt>
      <trkpt lat="43.60009" lon="-1.23401">
        <ele>11.67</ele>
        <time>2016-01-09T13:25:42Z</time>
      </trkpt>
      <trkpt lat="43.59999" lon="-1.23399">
        <ele>11.19</ele>
        <time>2016-01-09T13:25:43Z</time>
      </trkpt>
      <trkpt lat="43.59988" lon="-1.23399">
        <ele>10.71</ele>
        <time>2016-01-09T13:25:44Z</time>
      </trkpt>
      <trkpt lat="43.59956" lon="-1.23401">
        <ele>9.27</ele>
        <time>2016-01-09T13:25:47Z</time>
      </trkpt>
      <trkpt lat="43.59921" lon="-1.23404">
        <ele>4.94</ele>
        <time>2016-01-09T13:25:50Z</time>
      </trkpt>
      <trkpt lat="43.59909" lon="-1.23403">
        <ele>4.46</ele>
        <time>2016-01-09T13:25:51Z</time>
      </trkpt>
      <trkpt lat="43.59897" lon="-1.23401">
        <ele>3.5</ele>
        <time>2016-01-09T13:25:52Z</time>
      </trkpt>
      <trkpt lat="43.59885" lon="-1.23397">
        <ele>3.02</ele>
        <time>2016-01-09T13:25:53Z</time>
      </trkpt>
      <trkpt lat="43.59759" lon="-1.2334">
        <ele>2.54</ele>
        <time>2016-01-09T13:26:05Z</time>
      </trkpt>
      <trkpt lat="43.59748" lon="-1.23339">
        <ele>2.06</ele>
        <time>2016-01-09T13:26:06Z</time>
      </trkpt>
      <trkpt lat="43.59737" lon="-1.23339">
        <ele>2.06</ele>
        <time>2016-01-09T13:26:07Z</time>
      </trkpt>
      <trkpt lat="43.59624" lon="-1.23358">
        <ele>2.54</ele>
        <time>2016-01-09T13:26:18Z</time>
      </trkpt>
      <trkpt lat="43.59615" lon="-1.23362">
        <ele>3.02</ele>
        <time>2016-01-09T13:26:19Z</time>
      </trkpt>
      <trkpt lat="43.59565" lon="-1.23394">
        <ele>3.98</ele>
        <time>2016-01-09T13:26:26Z</time>
      </trkpt>
      <trkpt lat="43.59558" lon="-1.23397">
        <ele>4.46</ele>
        <time>2016-01-09T13:26:27Z</time>
      </trkpt>
      <trkpt lat="43.59552" lon="-1.23398">
        <ele>4.46</ele>
        <time>2016-01-09T13:26:28Z</time>
      </trkpt>
      <trkpt lat="43.59532" lon="-1.234">
        <ele>5.42</ele>
        <time>2016-01-09T13:26:31Z</time>
      </trkpt>
      <trkpt lat="43.5952" lon="-1.23398">
        <ele>5.91</ele>
        <time>2016-01-09T13:26:33Z</time>
      </trkpt>
      <trkpt lat="43.59488" lon="-1.23391">
        <ele>8.79</ele>
        <time>2016-01-09T13:26:39Z</time>
      </trkpt>
      <trkpt lat="43.59406" lon="-1.23386">
        <ele>7.83</ele>
        <time>2016-01-09T13:26:52Z</time>
      </trkpt>
      <trkpt lat="43.59311" lon="-1.23391">
        <ele>7.83</ele>
        <time>2016-01-09T13:27:06Z</time>
      </trkpt>
      <trkpt lat="43.59247" lon="-1.23392">
        <ele>7.35</ele>
        <time>2016-01-09T13:27:15Z</time>
      </trkpt>
      <trkpt lat="43.59164" lon="-1.23429">
        <ele>7.83</ele>
        <time>2016-01-09T13:27:27Z</time>
      </trkpt>
      <trkpt lat="43.59134" lon="-1.2344">
        <ele>8.79</ele>
        <time>2016-01-09T13:27:32Z</time>
      </trkpt>
      <trkpt lat="43.59128" lon="-1.23443">
        <ele>8.79</ele>
        <time>2016-01-09T13:27:33Z</time>
      </trkpt>
      <trkpt lat="43.59123" lon="-1.23447">
        <ele>8.79</ele>
        <time>2016-01-09T13:27:34Z</time>
      </trkpt>
      <trkpt lat="43.59095" lon="-1.2348">
        <ele>10.71</ele>
        <time>2016-01-09T13:27:41Z</time>
      </trkpt>
      <trkpt lat="43.5908" lon="-1.23499">
        <ele>11.67</ele>
        <time>2016-01-09T13:27:45Z</time>
      </trkpt>
      <trkpt lat="43.59072" lon="-1.23507">
        <ele>12.15</ele>
        <time>2016-01-09T13:27:47Z</time>
      </trkpt>
      <trkpt lat="43.59046" lon="-1.2354">
        <ele>15.52</ele>
        <time>2016-01-09T13:27:58Z</time>
      </trkpt>
      <trkpt lat="43.59026" lon="-1.23567">
        <ele>17.92</ele>
        <time>2016-01-09T13:28:09Z</time>
      </trkpt>
      <trkpt lat="43.59002" lon="-1.2359">
        <ele>20.81</ele>
        <time>2016-01-09T13:28:20Z</time>
      </trkpt>
      <trkpt lat="43.58992" lon="-1.23597">
        <ele>22.25</ele>
        <time>2016-01-09T13:28:24Z</time>
      </trkpt>
      <trkpt lat="43.58966" lon="-1.236">
        <ele>25.61</ele>
        <time>2016-01-09T13:28:34Z</time>
      </trkpt>
      <trkpt lat="43.58944" lon="-1.23598">
        <ele>28.5</ele>
        <time>2016-01-09T13:28:44Z</time>
      </trkpt>
      <trkpt lat="43.58942" lon="-1.23598">
        <ele>28.98</ele>
        <time>2016-01-09T13:28:45Z</time>
      </trkpt>
      <trkpt lat="43.5894" lon="-1.23599">
        <ele>29.46</ele>
        <time>2016-01-09T13:28:46Z</time>
      </trkpt>
      <trkpt lat="43.58938" lon="-1.23601">
        <ele>30.42</ele>
        <time>2016-01-09T13:28:47Z</time>
      </trkpt>
      <trkpt lat="43.58937" lon="-1.23603">
        <ele>30.42</ele>
        <time>2016-01-09T13:28:48Z</time>
      </trkpt>
      <trkpt lat="43.58936" lon="-1.23604">
        <ele>30.9</ele>
        <time>2016-01-09T13:28:49Z</time>
      </trkpt>
      <trkpt lat="43.58934" lon="-1.23606">
        <ele>31.38</ele>
        <time>2016-01-09T13:28:50Z</time>
      </trkpt>
      <trkpt lat="43.58927" lon="-1.23619">
        <ele>33.3</ele>
        <time>2016-01-09T13:28:55Z</time>
      </trkpt>
      <trkpt lat="43.58926" lon="-1.23623">
        <ele>33.78</ele>
        <time>2016-01-09T13:28:56Z</time>
      </trkpt>
      <trkpt lat="43.58925" lon="-1.23626">
        <ele>34.26</ele>
        <time>2016-01-09T13:28:57Z</time>
      </trkpt>
      <trkpt lat="43.58922" lon="-1.23668">
        <ele>37.15</ele>
        <time>2016-01-09T13:29:09Z</time>
      </trkpt>
      <trkpt lat="43.58925" lon="-1.23703">
        <ele>40.51</ele>
        <time>2016-01-09T13:29:20Z</time>
      </trkpt>
      <trkpt lat="43.58927" lon="-1.23736">
        <ele>43.4</ele>
        <time>2016-01-09T13:29:31Z</time>
      </trkpt>
      <trkpt lat="43.58931" lon="-1.23767">
        <ele>46.28</ele>
        <time>2016-01-09T13:29:42Z</time>
      </trkpt>
      <trkpt lat="43.58935" lon="-1.23801">
        <ele>49.65</ele>
        <time>2016-01-09T13:29:54Z</time>
      </trkpt>
      <trkpt lat="43.58936" lon="-1.23804">
        <ele>49.65</ele>
        <time>2016-01-09T13:29:55Z</time>
      </trkpt>
      <trkpt lat="43.58937" lon="-1.23806">
        <ele>50.13</ele>
        <time>2016-01-09T13:29:56Z</time>
      </trkpt>
      <trkpt lat="43.58938" lon="-1.23809">
        <ele>50.61</ele>
        <time>2016-01-09T13:29:57Z</time>
      </trkpt>
      <trkpt lat="43.58938" lon="-1.23812">
        <ele>50.61</ele>
        <time>2016-01-09T13:29:58Z</time>
      </trkpt>
      <trkpt lat="43.58941" lon="-1.23823">
        <ele>51.57</ele>
        <time>2016-01-09T13:30:02Z</time>
      </trkpt>
      <trkpt lat="43.58942" lon="-1.23825">
        <ele>52.05</ele>
        <time>2016-01-09T13:30:03Z</time>
      </trkpt>
      <trkpt lat="43.58943" lon="-1.23827">
        <ele>52.53</ele>
        <time>2016-01-09T13:30:04Z</time>
      </trkpt>
      <trkpt lat="43.58944" lon="-1.2383">
        <ele>53.01</ele>
        <time>2016-01-09T13:30:05Z</time>
      </trkpt>
      <trkpt lat="43.58945" lon="-1.23833">
        <ele>53.49</ele>
        <time>2016-01-09T13:30:06Z</time>
      </trkpt>
      <trkpt lat="43.58945" lon="-1.23836">
        <ele>53.49</ele>
        <time>2016-01-09T13:30:07Z</time>
      </trkpt>
      <trkpt lat="43.58946" lon="-1.23838">
        <ele>53.49</ele>
        <time>2016-01-09T13:30:08Z</time>
      </trkpt>
      <trkpt lat="43.58947" lon="-1.23841">
        <ele>53.97</ele>
        <time>2016-01-09T13:30:09Z</time>
      </trkpt>
      <trkpt lat="43.58947" lon="-1.23843">
        <ele>54.45</ele>
        <time>2016-01-09T13:30:10Z</time>
      </trkpt>
      <trkpt lat="43.58948" lon="-1.23846">
        <ele>54.45</ele>
        <time>2016-01-09T13:30:11Z</time>
      </trkpt>
      <trkpt lat="43.5895" lon="-1.23851">
        <ele>54.93</ele>
        <time>2016-01-09T13:30:13Z</time>
      </trkpt>
      <trkpt lat="43.5895" lon="-1.23854">
        <ele>55.41</ele>
        <time>2016-01-09T13:30:14Z</time>
      </trkpt>
      <trkpt lat="43.58961" lon="-1.23883">
        <ele>58.3</ele>
        <time>2016-01-09T13:30:24Z</time>
      </trkpt>
      <trkpt lat="43.58972" lon="-1.23912">
        <ele>61.66</ele>
        <time>2016-01-09T13:30:35Z</time>
      </trkpt>
      <trkpt lat="43.58983" lon="-1.23962">
        <ele>64.55</ele>
        <time>2016-01-09T13:30:50Z</time>
      </trkpt>
      <trkpt lat="43.59011" lon="-1.23998">
        <ele>67.43</ele>
        <time>2016-01-09T13:31:04Z</time>
      </trkpt>
      <trkpt lat="43.59035" lon="-1.24033">
        <ele>69.35</ele>
        <time>2016-01-09T13:31:16Z</time>
      </trkpt>
      <trkpt lat="43.59049" lon="-1.24071">
        <ele>72.24</ele>
        <time>2016-01-09T13:31:27Z</time>
      </trkpt>
      <trkpt lat="43.59062" lon="-1.24107">
        <ele>75.12</ele>
        <time>2016-01-09T13:31:38Z</time>
      </trkpt>
      <trkpt lat="43.59073" lon="-1.24141">
        <ele>78.48</ele>
        <time>2016-01-09T13:31:49Z</time>
      </trkpt>
      <trkpt lat="43.5908" lon="-1.24174">
        <ele>81.37</ele>
        <time>2016-01-09T13:32:00Z</time>
      </trkpt>
      <trkpt lat="43.59079" lon="-1.24177">
        <ele>81.85</ele>
        <time>2016-01-09T13:32:01Z</time>
      </trkpt>
      <trkpt lat="43.5908" lon="-1.24181">
        <ele>82.33</ele>
        <time>2016-01-09T13:32:02Z</time>
      </trkpt>
      <trkpt lat="43.59079" lon="-1.24184">
        <ele>82.33</ele>
        <time>2016-01-09T13:32:03Z</time>
      </trkpt>
      <trkpt lat="43.59079" lon="-1.24188">
        <ele>83.77</ele>
        <time>2016-01-09T13:32:04Z</time>
      </trkpt>
      <trkpt lat="43.59071" lon="-1.24231">
        <ele>86.18</ele>
        <time>2016-01-09T13:32:17Z</time>
      </trkpt>
      <trkpt lat="43.5906" lon="-1.24289">
        <ele>88.1</ele>
        <time>2016-01-09T13:32:32Z</time>
      </trkpt>
      <trkpt lat="43.59061" lon="-1.243">
        <ele>87.62</ele>
        <time>2016-01-09T13:32:34Z</time>
      </trkpt>
      <trkpt lat="43.59063" lon="-1.24319">
        <ele>87.14</ele>
        <time>2016-01-09T13:32:37Z</time>
      </trkpt>
      <trkpt lat="43.59063" lon="-1.24333">
        <ele>87.14</ele>
        <time>2016-01-09T13:32:39Z</time>
      </trkpt>
      <trkpt lat="43.59064" lon="-1.2434">
        <ele>86.66</ele>
        <time>2016-01-09T13:32:40Z</time>
      </trkpt>
      <trkpt lat="43.59073" lon="-1.24449">
        <ele>84.73</ele>
        <time>2016-01-09T13:32:54Z</time>
      </trkpt>
      <trkpt lat="43.59075" lon="-1.24472">
        <ele>84.73</ele>
        <time>2016-01-09T13:32:57Z</time>
      </trkpt>
      <trkpt lat="43.59076" lon="-1.24479">
        <ele>84.73</ele>
        <time>2016-01-09T13:32:58Z</time>
      </trkpt>
      <trkpt lat="43.59078" lon="-1.24498">
        <ele>85.21</ele>
        <time>2016-01-09T13:33:01Z</time>
      </trkpt>
      <trkpt lat="43.59079" lon="-1.24504">
        <ele>85.21</ele>
        <time>2016-01-09T13:33:02Z</time>
      </trkpt>
      <trkpt lat="43.59081" lon="-1.2451">
        <ele>85.21</ele>
        <time>2016-01-09T13:33:03Z</time>
      </trkpt>
      <trkpt lat="43.59081" lon="-1.24517">
        <ele>85.21</ele>
        <time>2016-01-09T13:33:04Z</time>
      </trkpt>
      <trkpt lat="43.59081" lon="-1.24523">
        <ele>85.21</ele>
        <time>2016-01-09T13:33:05Z</time>
      </trkpt>
      <trkpt lat="43.59081" lon="-1.24529">
        <ele>85.21</ele>
        <time>2016-01-09T13:33:06Z</time>
      </trkpt>
      <trkpt lat="43.59082" lon="-1.24535">
        <ele>85.21</ele>
        <time>2016-01-09T13:33:07Z</time>
      </trkpt>
      <trkpt lat="43.59083" lon="-1.2454">
        <ele>85.21</ele>
        <time>2016-01-09T13:33:08Z</time>
      </trkpt>
      <trkpt lat="43.59087" lon="-1.24564">
        <ele>84.73</ele>
        <time>2016-01-09T13:33:12Z</time>
      </trkpt>
      <trkpt lat="43.59088" lon="-1.24569">
        <ele>85.21</ele>
        <time>2016-01-09T13:33:13Z</time>
      </trkpt>
      <trkpt lat="43.5909" lon="-1.24575">
        <ele>84.73</ele>
        <time>2016-01-09T13:33:14Z</time>
      </trkpt>
      <trkpt lat="43.5909" lon="-1.2458">
        <ele>84.73</ele>
        <time>2016-01-09T13:33:15Z</time>
      </trkpt>
      <trkpt lat="43.59091" lon="-1.24585">
        <ele>84.73</ele>
        <time>2016-01-09T13:33:16Z</time>
      </trkpt>
      <trkpt lat="43.59092" lon="-1.24604">
        <ele>85.21</ele>
        <time>2016-01-09T13:33:20Z</time>
      </trkpt>
      <trkpt lat="43.59093" lon="-1.24608">
        <ele>85.21</ele>
        <time>2016-01-09T13:33:21Z</time>
      </trkpt>
      <trkpt lat="43.59093" lon="-1.24612">
        <ele>85.21</ele>
        <time>2016-01-09T13:33:22Z</time>
      </trkpt>
      <trkpt lat="43.59094" lon="-1.24615">
        <ele>85.21</ele>
        <time>2016-01-09T13:33:23Z</time>
      </trkpt>
      <trkpt lat="43.59095" lon="-1.24619">
        <ele>85.21</ele>
        <time>2016-01-09T13:33:24Z</time>
      </trkpt>
      <trkpt lat="43.59102" lon="-1.24653">
        <ele>85.21</ele>
        <time>2016-01-09T13:33:33Z</time>
      </trkpt>
      <trkpt lat="43.59101" lon="-1.24656">
        <ele>85.69</ele>
        <time>2016-01-09T13:33:38Z</time>
      </trkpt>
      <trkpt lat="43.59101" lon="-1.24659">
        <ele>85.69</ele>
        <time>2016-01-09T13:33:39Z</time>
      </trkpt>
      <trkpt lat="43.59101" lon="-1.24662">
        <ele>85.69</ele>
        <time>2016-01-09T13:33:40Z</time>
      </trkpt>
      <trkpt lat="43.59102" lon="-1.24665">
        <ele>85.69</ele>
        <time>2016-01-09T13:33:41Z</time>
      </trkpt>
      <trkpt lat="43.59103" lon="-1.24669">
        <ele>85.69</ele>
        <time>2016-01-09T13:33:42Z</time>
      </trkpt>
      <trkpt lat="43.59111" lon="-1.24736">
        <ele>85.69</ele>
        <time>2016-01-09T13:33:55Z</time>
      </trkpt>
      <trkpt lat="43.59102" lon="-1.24808">
        <ele>88.58</ele>
        <time>2016-01-09T13:34:09Z</time>
      </trkpt>
      <trkpt lat="43.59086" lon="-1.24876">
        <ele>90.02</ele>
        <time>2016-01-09T13:34:23Z</time>
      </trkpt>
      <trkpt lat="43.59068" lon="-1.24929">
        <ele>90.02</ele>
        <time>2016-01-09T13:34:33Z</time>
      </trkpt>
      <trkpt lat="43.59066" lon="-1.2494">
        <ele>90.02</ele>
        <time>2016-01-09T13:34:35Z</time>
      </trkpt>
      <trkpt lat="43.59033" lon="-1.25044">
        <ele>89.06</ele>
        <time>2016-01-09T13:34:50Z</time>
      </trkpt>
      <trkpt lat="43.5903" lon="-1.25051">
        <ele>89.06</ele>
        <time>2016-01-09T13:34:51Z</time>
      </trkpt>
      <trkpt lat="43.59018" lon="-1.25071">
        <ele>89.06</ele>
        <time>2016-01-09T13:34:54Z</time>
      </trkpt>
      <trkpt lat="43.59012" lon="-1.25077">
        <ele>89.06</ele>
        <time>2016-01-09T13:34:55Z</time>
      </trkpt>
      <trkpt lat="43.59006" lon="-1.25082">
        <ele>88.58</ele>
        <time>2016-01-09T13:34:56Z</time>
      </trkpt>
      <trkpt lat="43.58999" lon="-1.25087">
        <ele>88.1</ele>
        <time>2016-01-09T13:34:57Z</time>
      </trkpt>
      <trkpt lat="43.58992" lon="-1.25091">
        <ele>87.62</ele>
        <time>2016-01-09T13:34:58Z</time>
      </trkpt>
      <trkpt lat="43.58984" lon="-1.25095">
        <ele>87.14</ele>
        <time>2016-01-09T13:34:59Z</time>
      </trkpt>
      <trkpt lat="43.58916" lon="-1.25127">
        <ele>83.77</ele>
        <time>2016-01-09T13:35:07Z</time>
      </trkpt>
      <trkpt lat="43.58865" lon="-1.25163">
        <ele>80.41</ele>
        <time>2016-01-09T13:35:13Z</time>
      </trkpt>
      <trkpt lat="43.58837" lon="-1.2519">
        <ele>76.56</ele>
        <time>2016-01-09T13:35:16Z</time>
      </trkpt>
      <trkpt lat="43.58805" lon="-1.25222">
        <ele>72.72</ele>
        <time>2016-01-09T13:35:19Z</time>
      </trkpt>
      <trkpt lat="43.5877" lon="-1.25254">
        <ele>69.35</ele>
        <time>2016-01-09T13:35:22Z</time>
      </trkpt>
      <trkpt lat="43.58748" lon="-1.25279">
        <ele>66.95</ele>
        <time>2016-01-09T13:35:24Z</time>
      </trkpt>
      <trkpt lat="43.58738" lon="-1.25292">
        <ele>65.51</ele>
        <time>2016-01-09T13:35:25Z</time>
      </trkpt>
      <trkpt lat="43.58729" lon="-1.25307">
        <ele>64.07</ele>
        <time>2016-01-09T13:35:26Z</time>
      </trkpt>
      <trkpt lat="43.58721" lon="-1.25323">
        <ele>61.18</ele>
        <time>2016-01-09T13:35:27Z</time>
      </trkpt>
      <trkpt lat="43.58714" lon="-1.25341">
        <ele>60.22</ele>
        <time>2016-01-09T13:35:28Z</time>
      </trkpt>
      <trkpt lat="43.58707" lon="-1.25359">
        <ele>58.78</ele>
        <time>2016-01-09T13:35:29Z</time>
      </trkpt>
      <trkpt lat="43.587" lon="-1.25377">
        <ele>57.34</ele>
        <time>2016-01-09T13:35:30Z</time>
      </trkpt>
      <trkpt lat="43.58691" lon="-1.25394">
        <ele>56.37</ele>
        <time>2016-01-09T13:35:31Z</time>
      </trkpt>
      <trkpt lat="43.58681" lon="-1.25408">
        <ele>55.41</ele>
        <time>2016-01-09T13:35:32Z</time>
      </trkpt>
      <trkpt lat="43.5867" lon="-1.25422">
        <ele>54.45</ele>
        <time>2016-01-09T13:35:33Z</time>
      </trkpt>
      <trkpt lat="43.58659" lon="-1.25433">
        <ele>53.49</ele>
        <time>2016-01-09T13:35:34Z</time>
      </trkpt>
      <trkpt lat="43.58647" lon="-1.25441">
        <ele>52.53</ele>
        <time>2016-01-09T13:35:35Z</time>
      </trkpt>
      <trkpt lat="43.58636" lon="-1.25447">
        <ele>52.05</ele>
        <time>2016-01-09T13:35:36Z</time>
      </trkpt>
      <trkpt lat="43.58623" lon="-1.2545">
        <ele>51.57</ele>
        <time>2016-01-09T13:35:37Z</time>
      </trkpt>
      <trkpt lat="43.58578" lon="-1.25458">
        <ele>47.72</ele>
        <time>2016-01-09T13:35:41Z</time>
      </trkpt>
      <trkpt lat="43.58569" lon="-1.25462">
        <ele>46.28</ele>
        <time>2016-01-09T13:35:42Z</time>
      </trkpt>
      <trkpt lat="43.5856" lon="-1.25468">
        <ele>44.84</ele>
        <time>2016-01-09T13:35:43Z</time>
      </trkpt>
      <trkpt lat="43.58554" lon="-1.25476">
        <ele>43.4</ele>
        <time>2016-01-09T13:35:44Z</time>
      </trkpt>
      <trkpt lat="43.58541" lon="-1.25496">
        <ele>40.03</ele>
        <time>2016-01-09T13:35:46Z</time>
      </trkpt>
      <trkpt lat="43.5853" lon="-1.25519">
        <ele>37.15</ele>
        <time>2016-01-09T13:35:48Z</time>
      </trkpt>
      <trkpt lat="43.58516" lon="-1.25546">
        <ele>33.3</ele>
        <time>2016-01-09T13:35:50Z</time>
      </trkpt>
      <trkpt lat="43.58462" lon="-1.25671">
        <ele>33.78</ele>
        <time>2016-01-09T13:35:59Z</time>
      </trkpt>
      <trkpt lat="43.58454" lon="-1.25683">
        <ele>33.3</ele>
        <time>2016-01-09T13:36:00Z</time>
      </trkpt>
      <trkpt lat="43.58446" lon="-1.25694">
        <ele>32.34</ele>
        <time>2016-01-09T13:36:01Z</time>
      </trkpt>
      <trkpt lat="43.58428" lon="-1.25716">
        <ele>31.86</ele>
        <time>2016-01-09T13:36:03Z</time>
      </trkpt>
      <trkpt lat="43.58403" lon="-1.25749">
        <ele>30.9</ele>
        <time>2016-01-09T13:36:06Z</time>
      </trkpt>
      <trkpt lat="43.58397" lon="-1.25762">
        <ele>30.42</ele>
        <time>2016-01-09T13:36:07Z</time>
      </trkpt>
      <trkpt lat="43.58393" lon="-1.25776">
        <ele>30.42</ele>
        <time>2016-01-09T13:36:08Z</time>
      </trkpt>
      <trkpt lat="43.58379" lon="-1.2584">
        <ele>26.09</ele>
        <time>2016-01-09T13:36:12Z</time>
      </trkpt>
      <trkpt lat="43.58374" lon="-1.25928">
        <ele>23.21</ele>
        <time>2016-01-09T13:36:17Z</time>
      </trkpt>
      <trkpt lat="43.58371" lon="-1.25974">
        <ele>22.73</ele>
        <time>2016-01-09T13:36:20Z</time>
      </trkpt>
      <trkpt lat="43.58368" lon="-1.25989">
        <ele>22.25</ele>
        <time>2016-01-09T13:36:21Z</time>
      </trkpt>
      <trkpt lat="43.58364" lon="-1.26004">
        <ele>22.25</ele>
        <time>2016-01-09T13:36:22Z</time>
      </trkpt>
      <trkpt lat="43.58359" lon="-1.26018">
        <ele>21.77</ele>
        <time>2016-01-09T13:36:23Z</time>
      </trkpt>
      <trkpt lat="43.58353" lon="-1.26032">
        <ele>21.29</ele>
        <time>2016-01-09T13:36:24Z</time>
      </trkpt>
      <trkpt lat="43.58287" lon="-1.26176">
        <ele>22.73</ele>
        <time>2016-01-09T13:36:35Z</time>
      </trkpt>
      <trkpt lat="43.58284" lon="-1.26186">
        <ele>23.21</ele>
        <time>2016-01-09T13:36:36Z</time>
      </trkpt>
      <trkpt lat="43.5828" lon="-1.26198">
        <ele>23.69</ele>
        <time>2016-01-09T13:36:37Z</time>
      </trkpt>
      <trkpt lat="43.5827" lon="-1.26248">
        <ele>22.73</ele>
        <time>2016-01-09T13:36:41Z</time>
      </trkpt>
      <trkpt lat="43.58269" lon="-1.26262">
        <ele>21.77</ele>
        <time>2016-01-09T13:36:42Z</time>
      </trkpt>
      <trkpt lat="43.5827" lon="-1.26276">
        <ele>21.29</ele>
        <time>2016-01-09T13:36:43Z</time>
      </trkpt>
      <trkpt lat="43.58272" lon="-1.26289">
        <ele>21.29</ele>
        <time>2016-01-09T13:36:44Z</time>
      </trkpt>
      <trkpt lat="43.58275" lon="-1.26303">
        <ele>20.81</ele>
        <time>2016-01-09T13:36:45Z</time>
      </trkpt>
      <trkpt lat="43.5832" lon="-1.26422">
        <ele>21.29</ele>
        <time>2016-01-09T13:36:55Z</time>
      </trkpt>
      <trkpt lat="43.58341" lon="-1.26452">
        <ele>21.29</ele>
        <time>2016-01-09T13:36:59Z</time>
      </trkpt>
      <trkpt lat="43.58343" lon="-1.26459">
        <ele>21.77</ele>
        <time>2016-01-09T13:37:00Z</time>
      </trkpt>
      <trkpt lat="43.58342" lon="-1.26467">
        <ele>21.77</ele>
        <time>2016-01-09T13:37:01Z</time>
      </trkpt>
      <trkpt lat="43.58341" lon="-1.26475">
        <ele>21.77</ele>
        <time>2016-01-09T13:37:02Z</time>
      </trkpt>
      <trkpt lat="43.58339" lon="-1.26485">
        <ele>21.77</ele>
        <time>2016-01-09T13:37:03Z</time>
      </trkpt>
      <trkpt lat="43.58338" lon="-1.26495">
        <ele>21.77</ele>
        <time>2016-01-09T13:37:04Z</time>
      </trkpt>
      <trkpt lat="43.58338" lon="-1.26506">
        <ele>21.29</ele>
        <time>2016-01-09T13:37:05Z</time>
      </trkpt>
      <trkpt lat="43.5834" lon="-1.26516">
        <ele>21.77</ele>
        <time>2016-01-09T13:37:06Z</time>
      </trkpt>
      <trkpt lat="43.58344" lon="-1.26526">
        <ele>22.73</ele>
        <time>2016-01-09T13:37:07Z</time>
      </trkpt>
      <trkpt lat="43.58348" lon="-1.26535">
        <ele>22.73</ele>
        <time>2016-01-09T13:37:08Z</time>
      </trkpt>
      <trkpt lat="43.58352" lon="-1.26544">
        <ele>22.73</ele>
        <time>2016-01-09T13:37:09Z</time>
      </trkpt>
      <trkpt lat="43.58367" lon="-1.26575">
        <ele>24.17</ele>
        <time>2016-01-09T13:37:13Z</time>
      </trkpt>
      <trkpt lat="43.5837" lon="-1.2659">
        <ele>25.13</ele>
        <time>2016-01-09T13:37:15Z</time>
      </trkpt>
      <trkpt lat="43.5837" lon="-1.26596">
        <ele>25.61</ele>
        <time>2016-01-09T13:37:16Z</time>
      </trkpt>
      <trkpt lat="43.5837" lon="-1.26601">
        <ele>26.09</ele>
        <time>2016-01-09T13:37:17Z</time>
      </trkpt>
      <trkpt lat="43.58369" lon="-1.26606">
        <ele>26.57</ele>
        <time>2016-01-09T13:37:18Z</time>
      </trkpt>
      <trkpt lat="43.58367" lon="-1.2661">
        <ele>26.57</ele>
        <time>2016-01-09T13:37:19Z</time>
      </trkpt>
      <trkpt lat="43.58364" lon="-1.26613">
        <ele>27.05</ele>
        <time>2016-01-09T13:37:20Z</time>
      </trkpt>
      <trkpt lat="43.5836" lon="-1.26615">
        <ele>27.53</ele>
        <time>2016-01-09T13:37:21Z</time>
      </trkpt>
      <trkpt lat="43.58356" lon="-1.26616">
        <ele>27.53</ele>
        <time>2016-01-09T13:37:22Z</time>
      </trkpt>
      <trkpt lat="43.58352" lon="-1.26616">
        <ele>27.53</ele>
        <time>2016-01-09T13:37:23Z</time>
      </trkpt>
      <trkpt lat="43.58347" lon="-1.26616">
        <ele>28.02</ele>
        <time>2016-01-09T13:37:24Z</time>
      </trkpt>
      <trkpt lat="43.58343" lon="-1.26616">
        <ele>28.5</ele>
        <time>2016-01-09T13:37:25Z</time>
      </trkpt>
      <trkpt lat="43.58308" lon="-1.26619">
        <ele>31.86</ele>
        <time>2016-01-09T13:37:33Z</time>
      </trkpt>
      <trkpt lat="43.58291" lon="-1.26619">
        <ele>33.3</ele>
        <time>2016-01-09T13:37:37Z</time>
      </trkpt>
      <trkpt lat="43.58253" lon="-1.26621">
        <ele>36.19</ele>
        <time>2016-01-09T13:37:46Z</time>
      </trkpt>
      <trkpt lat="43.5821" lon="-1.26623">
        <ele>38.59</ele>
        <time>2016-01-09T13:37:56Z</time>
      </trkpt>
      <trkpt lat="43.58206" lon="-1.26625">
        <ele>38.59</ele>
        <time>2016-01-09T13:37:57Z</time>
      </trkpt>
      <trkpt lat="43.58202" lon="-1.26627">
        <ele>38.59</ele>
        <time>2016-01-09T13:37:58Z</time>
      </trkpt>
      <trkpt lat="43.58198" lon="-1.26631">
        <ele>38.59</ele>
        <time>2016-01-09T13:37:59Z</time>
      </trkpt>
      <trkpt lat="43.58195" lon="-1.26635">
        <ele>38.59</ele>
        <time>2016-01-09T13:38:00Z</time>
      </trkpt>
      <trkpt lat="43.58192" lon="-1.2664">
        <ele>38.59</ele>
        <time>2016-01-09T13:38:01Z</time>
      </trkpt>
      <trkpt lat="43.5819" lon="-1.26646">
        <ele>38.59</ele>
        <time>2016-01-09T13:38:02Z</time>
      </trkpt>
      <trkpt lat="43.58188" lon="-1.26652">
        <ele>38.59</ele>
        <time>2016-01-09T13:38:03Z</time>
      </trkpt>
      <trkpt lat="43.58187" lon="-1.26658">
        <ele>39.55</ele>
        <time>2016-01-09T13:38:04Z</time>
      </trkpt>
      <trkpt lat="43.58187" lon="-1.26665">
        <ele>38.59</ele>
        <time>2016-01-09T13:38:05Z</time>
      </trkpt>
      <trkpt lat="43.58186" lon="-1.26671">
        <ele>38.59</ele>
        <time>2016-01-09T13:38:06Z</time>
      </trkpt>
      <trkpt lat="43.58182" lon="-1.2673">
        <ele>39.07</ele>
        <time>2016-01-09T13:38:15Z</time>
      </trkpt>
      <trkpt lat="43.58174" lon="-1.26812">
        <ele>38.11</ele>
        <time>2016-01-09T13:38:26Z</time>
      </trkpt>
      <trkpt lat="43.58175" lon="-1.26861">
        <ele>38.11</ele>
        <time>2016-01-09T13:38:33Z</time>
      </trkpt>
      <trkpt lat="43.58176" lon="-1.26867">
        <ele>38.11</ele>
        <time>2016-01-09T13:38:34Z</time>
      </trkpt>
      <trkpt lat="43.58178" lon="-1.26953">
        <ele>37.63</ele>
        <time>2016-01-09T13:38:47Z</time>
      </trkpt>
      <trkpt lat="43.58177" lon="-1.27052">
        <ele>37.63</ele>
        <time>2016-01-09T13:39:02Z</time>
      </trkpt>
      <trkpt lat="43.58175" lon="-1.27065">
        <ele>37.63</ele>
        <time>2016-01-09T13:39:04Z</time>
      </trkpt>
      <trkpt lat="43.58173" lon="-1.27072">
        <ele>37.63</ele>
        <time>2016-01-09T13:39:05Z</time>
      </trkpt>
      <trkpt lat="43.58171" lon="-1.27078">
        <ele>37.63</ele>
        <time>2016-01-09T13:39:06Z</time>
      </trkpt>
      <trkpt lat="43.58168" lon="-1.27084">
        <ele>37.63</ele>
        <time>2016-01-09T13:39:07Z</time>
      </trkpt>
      <trkpt lat="43.58164" lon="-1.27089">
        <ele>37.63</ele>
        <time>2016-01-09T13:39:08Z</time>
      </trkpt>
      <trkpt lat="43.5816" lon="-1.27093">
        <ele>37.63</ele>
        <time>2016-01-09T13:39:09Z</time>
      </trkpt>
      <trkpt lat="43.58155" lon="-1.27097">
        <ele>37.63</ele>
        <time>2016-01-09T13:39:10Z</time>
      </trkpt>
      <trkpt lat="43.5815" lon="-1.27101">
        <ele>37.63</ele>
        <time>2016-01-09T13:39:11Z</time>
      </trkpt>
      <trkpt lat="43.5814" lon="-1.27107">
        <ele>37.15</ele>
        <time>2016-01-09T13:39:13Z</time>
      </trkpt>
      <trkpt lat="43.58056" lon="-1.2713">
        <ele>37.63</ele>
        <time>2016-01-09T13:39:28Z</time>
      </trkpt>
      <trkpt lat="43.5798" lon="-1.27148">
        <ele>38.11</ele>
        <time>2016-01-09T13:39:42Z</time>
      </trkpt>
      <trkpt lat="43.57964" lon="-1.27154">
        <ele>37.63</ele>
        <time>2016-01-09T13:39:45Z</time>
      </trkpt>
      <trkpt lat="43.5796" lon="-1.2716">
        <ele>37.63</ele>
        <time>2016-01-09T13:39:46Z</time>
      </trkpt>
      <trkpt lat="43.57959" lon="-1.27168">
        <ele>37.63</ele>
        <time>2016-01-09T13:39:47Z</time>
      </trkpt>
      <trkpt lat="43.57942" lon="-1.27306">
        <ele>37.15</ele>
        <time>2016-01-09T13:40:03Z</time>
      </trkpt>
      <trkpt lat="43.57938" lon="-1.2746">
        <ele>37.15</ele>
        <time>2016-01-09T13:40:20Z</time>
      </trkpt>
      <trkpt lat="43.57937" lon="-1.27554">
        <ele>35.71</ele>
        <time>2016-01-09T13:40:30Z</time>
      </trkpt>
      <trkpt lat="43.57933" lon="-1.27704">
        <ele>35.23</ele>
        <time>2016-01-09T13:40:44Z</time>
      </trkpt>
      <trkpt lat="43.57927" lon="-1.27867">
        <ele>36.19</ele>
        <time>2016-01-09T13:41:01Z</time>
      </trkpt>
      <trkpt lat="43.57921" lon="-1.27986">
        <ele>35.23</ele>
        <time>2016-01-09T13:41:12Z</time>
      </trkpt>
      <trkpt lat="43.57907" lon="-1.28167">
        <ele>33.78</ele>
        <time>2016-01-09T13:41:29Z</time>
      </trkpt>
      <trkpt lat="43.57887" lon="-1.28283">
        <ele>30.9</ele>
        <time>2016-01-09T13:41:39Z</time>
      </trkpt>
      <trkpt lat="43.57881" lon="-1.28333">
        <ele>28.98</ele>
        <time>2016-01-09T13:41:43Z</time>
      </trkpt>
      <trkpt lat="43.57875" lon="-1.28449">
        <ele>26.57</ele>
        <time>2016-01-09T13:41:52Z</time>
      </trkpt>
      <trkpt lat="43.57877" lon="-1.28474">
        <ele>26.09</ele>
        <time>2016-01-09T13:41:54Z</time>
      </trkpt>
      <trkpt lat="43.5788" lon="-1.28486">
        <ele>26.09</ele>
        <time>2016-01-09T13:41:55Z</time>
      </trkpt>
      <trkpt lat="43.57884" lon="-1.28498">
        <ele>26.09</ele>
        <time>2016-01-09T13:41:56Z</time>
      </trkpt>
      <trkpt lat="43.57889" lon="-1.28508">
        <ele>26.09</ele>
        <time>2016-01-09T13:41:57Z</time>
      </trkpt>
      <trkpt lat="43.57893" lon="-1.28519">
        <ele>25.61</ele>
        <time>2016-01-09T13:41:58Z</time>
      </trkpt>
      <trkpt lat="43.57906" lon="-1.28552">
        <ele>25.13</ele>
        <time>2016-01-09T13:42:01Z</time>
      </trkpt>
      <trkpt lat="43.57909" lon="-1.28564">
        <ele>25.13</ele>
        <time>2016-01-09T13:42:02Z</time>
      </trkpt>
      <trkpt lat="43.57911" lon="-1.28577">
        <ele>24.65</ele>
        <time>2016-01-09T13:42:03Z</time>
      </trkpt>
      <trkpt lat="43.57913" lon="-1.28602">
        <ele>25.13</ele>
        <time>2016-01-09T13:42:05Z</time>
      </trkpt>
      <trkpt lat="43.57914" lon="-1.28805">
        <ele>22.73</ele>
        <time>2016-01-09T13:42:21Z</time>
      </trkpt>
      <trkpt lat="43.57882" lon="-1.28929">
        <ele>22.25</ele>
        <time>2016-01-09T13:42:32Z</time>
      </trkpt>
      <trkpt lat="43.57879" lon="-1.2894">
        <ele>22.25</ele>
        <time>2016-01-09T13:42:33Z</time>
      </trkpt>
      <trkpt lat="43.57862" lon="-1.28996">
        <ele>20.81</ele>
        <time>2016-01-09T13:42:38Z</time>
      </trkpt>
      <trkpt lat="43.57859" lon="-1.29008">
        <ele>21.29</ele>
        <time>2016-01-09T13:42:39Z</time>
      </trkpt>
      <trkpt lat="43.57858" lon="-1.29021">
        <ele>20.81</ele>
        <time>2016-01-09T13:42:40Z</time>
      </trkpt>
      <trkpt lat="43.57857" lon="-1.29047">
        <ele>21.29</ele>
        <time>2016-01-09T13:42:42Z</time>
      </trkpt>
      <trkpt lat="43.57882" lon="-1.29181">
        <ele>19.84</ele>
        <time>2016-01-09T13:42:53Z</time>
      </trkpt>
      <trkpt lat="43.57884" lon="-1.29192">
        <ele>19.84</ele>
        <time>2016-01-09T13:42:54Z</time>
      </trkpt>
      <trkpt lat="43.57884" lon="-1.29205">
        <ele>19.36</ele>
        <time>2016-01-09T13:42:55Z</time>
      </trkpt>
      <trkpt lat="43.57882" lon="-1.29216">
        <ele>18.88</ele>
        <time>2016-01-09T13:42:56Z</time>
      </trkpt>
      <trkpt lat="43.57877" lon="-1.29226">
        <ele>18.88</ele>
        <time>2016-01-09T13:42:57Z</time>
      </trkpt>
      <trkpt lat="43.57871" lon="-1.29234">
        <ele>18.88</ele>
        <time>2016-01-09T13:42:58Z</time>
      </trkpt>
      <trkpt lat="43.57864" lon="-1.29241">
        <ele>18.88</ele>
        <time>2016-01-09T13:42:59Z</time>
      </trkpt>
      <trkpt lat="43.57857" lon="-1.29247">
        <ele>18.88</ele>
        <time>2016-01-09T13:43:00Z</time>
      </trkpt>
      <trkpt lat="43.57843" lon="-1.29261">
        <ele>18.88</ele>
        <time>2016-01-09T13:43:02Z</time>
      </trkpt>
      <trkpt lat="43.57832" lon="-1.29275">
        <ele>18.88</ele>
        <time>2016-01-09T13:43:04Z</time>
      </trkpt>
      <trkpt lat="43.57798" lon="-1.2934">
        <ele>20.81</ele>
        <time>2016-01-09T13:43:11Z</time>
      </trkpt>
      <trkpt lat="43.57794" lon="-1.29352">
        <ele>20.81</ele>
        <time>2016-01-09T13:43:12Z</time>
      </trkpt>
      <trkpt lat="43.57791" lon="-1.29363">
        <ele>21.29</ele>
        <time>2016-01-09T13:43:13Z</time>
      </trkpt>
      <trkpt lat="43.57788" lon="-1.29374">
        <ele>21.77</ele>
        <time>2016-01-09T13:43:14Z</time>
      </trkpt>
      <trkpt lat="43.57788" lon="-1.29385">
        <ele>22.25</ele>
        <time>2016-01-09T13:43:15Z</time>
      </trkpt>
      <trkpt lat="43.57788" lon="-1.29396">
        <ele>22.73</ele>
        <time>2016-01-09T13:43:16Z</time>
      </trkpt>
      <trkpt lat="43.57789" lon="-1.29407">
        <ele>23.69</ele>
        <time>2016-01-09T13:43:17Z</time>
      </trkpt>
      <trkpt lat="43.57791" lon="-1.29417">
        <ele>24.17</ele>
        <time>2016-01-09T13:43:18Z</time>
      </trkpt>
      <trkpt lat="43.57795" lon="-1.29435">
        <ele>25.13</ele>
        <time>2016-01-09T13:43:20Z</time>
      </trkpt>
      <trkpt lat="43.57796" lon="-1.29444">
        <ele>26.09</ele>
        <time>2016-01-09T13:43:21Z</time>
      </trkpt>
      <trkpt lat="43.57802" lon="-1.29471">
        <ele>28.02</ele>
        <time>2016-01-09T13:43:24Z</time>
      </trkpt>
      <trkpt lat="43.57818" lon="-1.29532">
        <ele>29.46</ele>
        <time>2016-01-09T13:43:32Z</time>
      </trkpt>
      <trkpt lat="43.5782" lon="-1.29539">
        <ele>29.46</ele>
        <time>2016-01-09T13:43:33Z</time>
      </trkpt>
      <trkpt lat="43.57847" lon="-1.29656">
        <ele>27.53</ele>
        <time>2016-01-09T13:43:45Z</time>
      </trkpt>
      <trkpt lat="43.57874" lon="-1.29806">
        <ele>27.05</ele>
        <time>2016-01-09T13:43:59Z</time>
      </trkpt>
      <trkpt lat="43.57871" lon="-1.29923">
        <ele>28.5</ele>
        <time>2016-01-09T13:44:10Z</time>
      </trkpt>
      <trkpt lat="43.57856" lon="-1.30064">
        <ele>27.53</ele>
        <time>2016-01-09T13:44:23Z</time>
      </trkpt>
      <trkpt lat="43.57822" lon="-1.30154">
        <ele>24.65</ele>
        <time>2016-01-09T13:44:31Z</time>
      </trkpt>
      <trkpt lat="43.5782" lon="-1.30167">
        <ele>24.65</ele>
        <time>2016-01-09T13:44:32Z</time>
      </trkpt>
      <trkpt lat="43.57821" lon="-1.3018">
        <ele>24.65</ele>
        <time>2016-01-09T13:44:33Z</time>
      </trkpt>
      <trkpt lat="43.57822" lon="-1.30193">
        <ele>25.13</ele>
        <time>2016-01-09T13:44:34Z</time>
      </trkpt>
      <trkpt lat="43.57825" lon="-1.30206">
        <ele>25.61</ele>
        <time>2016-01-09T13:44:35Z</time>
      </trkpt>
      <trkpt lat="43.57828" lon="-1.30218">
        <ele>26.09</ele>
        <time>2016-01-09T13:44:36Z</time>
      </trkpt>
      <trkpt lat="43.57831" lon="-1.30229">
        <ele>26.57</ele>
        <time>2016-01-09T13:44:37Z</time>
      </trkpt>
      <trkpt lat="43.57853" lon="-1.30301">
        <ele>27.53</ele>
        <time>2016-01-09T13:44:44Z</time>
      </trkpt>
      <trkpt lat="43.57856" lon="-1.30312">
        <ele>27.53</ele>
        <time>2016-01-09T13:44:45Z</time>
      </trkpt>
      <trkpt lat="43.57857" lon="-1.30322">
        <ele>28.02</ele>
        <time>2016-01-09T13:44:46Z</time>
      </trkpt>
      <trkpt lat="43.57858" lon="-1.30333">
        <ele>28.02</ele>
        <time>2016-01-09T13:44:47Z</time>
      </trkpt>
      <trkpt lat="43.57857" lon="-1.30344">
        <ele>28.02</ele>
        <time>2016-01-09T13:44:48Z</time>
      </trkpt>
      <trkpt lat="43.57855" lon="-1.30353">
        <ele>28.02</ele>
        <time>2016-01-09T13:44:49Z</time>
      </trkpt>
      <trkpt lat="43.57851" lon="-1.3036">
        <ele>28.5</ele>
        <time>2016-01-09T13:44:50Z</time>
      </trkpt>
      <trkpt lat="43.57848" lon="-1.30367">
        <ele>28.5</ele>
        <time>2016-01-09T13:44:51Z</time>
      </trkpt>
      <trkpt lat="43.57845" lon="-1.30373">
        <ele>28.98</ele>
        <time>2016-01-09T13:44:52Z</time>
      </trkpt>
      <trkpt lat="43.57843" lon="-1.3038">
        <ele>29.46</ele>
        <time>2016-01-09T13:44:53Z</time>
      </trkpt>
      <trkpt lat="43.57842" lon="-1.30387">
        <ele>29.46</ele>
        <time>2016-01-09T13:44:54Z</time>
      </trkpt>
      <trkpt lat="43.57842" lon="-1.30394">
        <ele>29.46</ele>
        <time>2016-01-09T13:44:55Z</time>
      </trkpt>
      <trkpt lat="43.57843" lon="-1.30402">
        <ele>29.94</ele>
        <time>2016-01-09T13:44:56Z</time>
      </trkpt>
      <trkpt lat="43.57844" lon="-1.30409">
        <ele>30.42</ele>
        <time>2016-01-09T13:44:57Z</time>
      </trkpt>
      <trkpt lat="43.57855" lon="-1.30449">
        <ele>28.98</ele>
        <time>2016-01-09T13:45:02Z</time>
      </trkpt>
      <trkpt lat="43.57857" lon="-1.30459">
        <ele>28.5</ele>
        <time>2016-01-09T13:45:03Z</time>
      </trkpt>
      <trkpt lat="43.57858" lon="-1.30469">
        <ele>27.53</ele>
        <time>2016-01-09T13:45:04Z</time>
      </trkpt>
      <trkpt lat="43.57858" lon="-1.3048">
        <ele>27.05</ele>
        <time>2016-01-09T13:45:05Z</time>
      </trkpt>
      <trkpt lat="43.57858" lon="-1.30492">
        <ele>26.57</ele>
        <time>2016-01-09T13:45:06Z</time>
      </trkpt>
      <trkpt lat="43.57857" lon="-1.30504">
        <ele>25.61</ele>
        <time>2016-01-09T13:45:07Z</time>
      </trkpt>
      <trkpt lat="43.57855" lon="-1.30529">
        <ele>24.65</ele>
        <time>2016-01-09T13:45:09Z</time>
      </trkpt>
      <trkpt lat="43.57856" lon="-1.30542">
        <ele>24.65</ele>
        <time>2016-01-09T13:45:10Z</time>
      </trkpt>
      <trkpt lat="43.57859" lon="-1.30555">
        <ele>24.65</ele>
        <time>2016-01-09T13:45:11Z</time>
      </trkpt>
      <trkpt lat="43.57863" lon="-1.30567">
        <ele>24.65</ele>
        <time>2016-01-09T13:45:12Z</time>
      </trkpt>
      <trkpt lat="43.57868" lon="-1.30577">
        <ele>25.61</ele>
        <time>2016-01-09T13:45:13Z</time>
      </trkpt>
      <trkpt lat="43.57873" lon="-1.30587">
        <ele>25.61</ele>
        <time>2016-01-09T13:45:14Z</time>
      </trkpt>
      <trkpt lat="43.57885" lon="-1.30603">
        <ele>26.57</ele>
        <time>2016-01-09T13:45:16Z</time>
      </trkpt>
      <trkpt lat="43.57891" lon="-1.30609">
        <ele>27.05</ele>
        <time>2016-01-09T13:45:17Z</time>
      </trkpt>
      <trkpt lat="43.57905" lon="-1.30619">
        <ele>28.02</ele>
        <time>2016-01-09T13:45:19Z</time>
      </trkpt>
      <trkpt lat="43.57931" lon="-1.30642">
        <ele>28.98</ele>
        <time>2016-01-09T13:45:23Z</time>
      </trkpt>
      <trkpt lat="43.57936" lon="-1.30649">
        <ele>28.98</ele>
        <time>2016-01-09T13:45:24Z</time>
      </trkpt>
      <trkpt lat="43.5794" lon="-1.30657">
        <ele>28.98</ele>
        <time>2016-01-09T13:45:25Z</time>
      </trkpt>
      <trkpt lat="43.57943" lon="-1.30666">
        <ele>28.98</ele>
        <time>2016-01-09T13:45:26Z</time>
      </trkpt>
      <trkpt lat="43.57946" lon="-1.30675">
        <ele>28.5</ele>
        <time>2016-01-09T13:45:27Z</time>
      </trkpt>
      <trkpt lat="43.57947" lon="-1.30684">
        <ele>28.5</ele>
        <time>2016-01-09T13:45:28Z</time>
      </trkpt>
      <trkpt lat="43.57948" lon="-1.30694">
        <ele>28.5</ele>
        <time>2016-01-09T13:45:29Z</time>
      </trkpt>
      <trkpt lat="43.57948" lon="-1.30704">
        <ele>28.5</ele>
        <time>2016-01-09T13:45:30Z</time>
      </trkpt>
      <trkpt lat="43.57946" lon="-1.30714">
        <ele>28.5</ele>
        <time>2016-01-09T13:45:31Z</time>
      </trkpt>
      <trkpt lat="43.57944" lon="-1.30724">
        <ele>28.02</ele>
        <time>2016-01-09T13:45:32Z</time>
      </trkpt>
      <trkpt lat="43.57941" lon="-1.30732">
        <ele>28.5</ele>
        <time>2016-01-09T13:45:33Z</time>
      </trkpt>
      <trkpt lat="43.57936" lon="-1.3074">
        <ele>28.98</ele>
        <time>2016-01-09T13:45:34Z</time>
      </trkpt>
      <trkpt lat="43.57932" lon="-1.30747">
        <ele>28.98</ele>
        <time>2016-01-09T13:45:35Z</time>
      </trkpt>
      <trkpt lat="43.57927" lon="-1.30754">
        <ele>29.46</ele>
        <time>2016-01-09T13:45:36Z</time>
      </trkpt>
      <trkpt lat="43.57918" lon="-1.30766">
        <ele>29.94</ele>
        <time>2016-01-09T13:45:38Z</time>
      </trkpt>
      <trkpt lat="43.57915" lon="-1.30773">
        <ele>30.42</ele>
        <time>2016-01-09T13:45:39Z</time>
      </trkpt>
      <trkpt lat="43.57912" lon="-1.3078">
        <ele>30.9</ele>
        <time>2016-01-09T13:45:40Z</time>
      </trkpt>
      <trkpt lat="43.5791" lon="-1.30789">
        <ele>30.9</ele>
        <time>2016-01-09T13:45:41Z</time>
      </trkpt>
      <trkpt lat="43.5791" lon="-1.30798">
        <ele>31.38</ele>
        <time>2016-01-09T13:45:42Z</time>
      </trkpt>
      <trkpt lat="43.5791" lon="-1.30806">
        <ele>31.38</ele>
        <time>2016-01-09T13:45:43Z</time>
      </trkpt>
      <trkpt lat="43.57911" lon="-1.30815">
        <ele>31.86</ele>
        <time>2016-01-09T13:45:44Z</time>
      </trkpt>
      <trkpt lat="43.57913" lon="-1.30823">
        <ele>31.86</ele>
        <time>2016-01-09T13:45:45Z</time>
      </trkpt>
      <trkpt lat="43.57915" lon="-1.30832">
        <ele>31.86</ele>
        <time>2016-01-09T13:45:46Z</time>
      </trkpt>
      <trkpt lat="43.57947" lon="-1.31002">
        <ele>30.42</ele>
        <time>2016-01-09T13:46:04Z</time>
      </trkpt>
      <trkpt lat="43.57942" lon="-1.31138">
        <ele>30.9</ele>
        <time>2016-01-09T13:46:16Z</time>
      </trkpt>
      <trkpt lat="43.57919" lon="-1.31389">
        <ele>32.34</ele>
        <time>2016-01-09T13:46:38Z</time>
      </trkpt>
      <trkpt lat="43.57879" lon="-1.31554">
        <ele>32.34</ele>
        <time>2016-01-09T13:46:53Z</time>
      </trkpt>
      <trkpt lat="43.57858" lon="-1.31724">
        <ele>33.78</ele>
        <time>2016-01-09T13:47:08Z</time>
      </trkpt>
      <trkpt lat="43.57852" lon="-1.31803">
        <ele>33.78</ele>
        <time>2016-01-09T13:47:15Z</time>
      </trkpt>
      <trkpt lat="43.57853" lon="-1.31815">
        <ele>34.26</ele>
        <time>2016-01-09T13:47:16Z</time>
      </trkpt>
      <trkpt lat="43.57871" lon="-1.31964">
        <ele>34.74</ele>
        <time>2016-01-09T13:47:29Z</time>
      </trkpt>
      <trkpt lat="43.57897" lon="-1.32144">
        <ele>35.23</ele>
        <time>2016-01-09T13:47:45Z</time>
      </trkpt>
      <trkpt lat="43.57925" lon="-1.3229">
        <ele>37.63</ele>
        <time>2016-01-09T13:47:59Z</time>
      </trkpt>
      <trkpt lat="43.57925" lon="-1.32301">
        <ele>37.63</ele>
        <time>2016-01-09T13:48:00Z</time>
      </trkpt>
      <trkpt lat="43.57923" lon="-1.32312">
        <ele>37.63</ele>
        <time>2016-01-09T13:48:01Z</time>
      </trkpt>
      <trkpt lat="43.57921" lon="-1.32323">
        <ele>37.63</ele>
        <time>2016-01-09T13:48:02Z</time>
      </trkpt>
      <trkpt lat="43.57918" lon="-1.32333">
        <ele>37.15</ele>
        <time>2016-01-09T13:48:03Z</time>
      </trkpt>
      <trkpt lat="43.57915" lon="-1.32344">
        <ele>36.19</ele>
        <time>2016-01-09T13:48:04Z</time>
      </trkpt>
      <trkpt lat="43.57878" lon="-1.32478">
        <ele>36.67</ele>
        <time>2016-01-09T13:48:16Z</time>
      </trkpt>
      <trkpt lat="43.57871" lon="-1.32631">
        <ele>38.59</ele>
        <time>2016-01-09T13:48:30Z</time>
      </trkpt>
      <trkpt lat="43.5787" lon="-1.32693">
        <ele>40.99</ele>
        <time>2016-01-09T13:48:36Z</time>
      </trkpt>
      <trkpt lat="43.57869" lon="-1.32728">
        <ele>43.4</ele>
        <time>2016-01-09T13:48:40Z</time>
      </trkpt>
      <trkpt lat="43.57867" lon="-1.32753">
        <ele>45.32</ele>
        <time>2016-01-09T13:48:43Z</time>
      </trkpt>
      <trkpt lat="43.57867" lon="-1.32761">
        <ele>45.8</ele>
        <time>2016-01-09T13:48:44Z</time>
      </trkpt>
      <trkpt lat="43.57866" lon="-1.32769">
        <ele>46.28</ele>
        <time>2016-01-09T13:48:45Z</time>
      </trkpt>
      <trkpt lat="43.57848" lon="-1.32876">
        <ele>46.28</ele>
        <time>2016-01-09T13:48:57Z</time>
      </trkpt>
      <trkpt lat="43.57846" lon="-1.32886">
        <ele>45.8</ele>
        <time>2016-01-09T13:48:58Z</time>
      </trkpt>
      <trkpt lat="43.57837" lon="-1.32929">
        <ele>44.36</ele>
        <time>2016-01-09T13:49:02Z</time>
      </trkpt>
      <trkpt lat="43.57832" lon="-1.32938">
        <ele>44.36</ele>
        <time>2016-01-09T13:49:03Z</time>
      </trkpt>
      <trkpt lat="43.57827" lon="-1.32947">
        <ele>44.36</ele>
        <time>2016-01-09T13:49:04Z</time>
      </trkpt>
      <trkpt lat="43.57766" lon="-1.33024">
        <ele>42.92</ele>
        <time>2016-01-09T13:49:14Z</time>
      </trkpt>
      <trkpt lat="43.57761" lon="-1.33034">
        <ele>42.44</ele>
        <time>2016-01-09T13:49:15Z</time>
      </trkpt>
      <trkpt lat="43.57757" lon="-1.33044">
        <ele>41.95</ele>
        <time>2016-01-09T13:49:16Z</time>
      </trkpt>
      <trkpt lat="43.57754" lon="-1.33054">
        <ele>41.95</ele>
        <time>2016-01-09T13:49:17Z</time>
      </trkpt>
      <trkpt lat="43.5775" lon="-1.33064">
        <ele>41.47</ele>
        <time>2016-01-09T13:49:18Z</time>
      </trkpt>
      <trkpt lat="43.57721" lon="-1.33149">
        <ele>38.11</ele>
        <time>2016-01-09T13:49:26Z</time>
      </trkpt>
      <trkpt lat="43.57715" lon="-1.3316">
        <ele>37.15</ele>
        <time>2016-01-09T13:49:27Z</time>
      </trkpt>
      <trkpt lat="43.57708" lon="-1.33171">
        <ele>35.71</ele>
        <time>2016-01-09T13:49:28Z</time>
      </trkpt>
      <trkpt lat="43.57699" lon="-1.3318">
        <ele>34.74</ele>
        <time>2016-01-09T13:49:29Z</time>
      </trkpt>
      <trkpt lat="43.57689" lon="-1.33189">
        <ele>33.78</ele>
        <time>2016-01-09T13:49:30Z</time>
      </trkpt>
      <trkpt lat="43.57678" lon="-1.33196">
        <ele>32.34</ele>
        <time>2016-01-09T13:49:31Z</time>
      </trkpt>
      <trkpt lat="43.57667" lon="-1.33203">
        <ele>30.9</ele>
        <time>2016-01-09T13:49:32Z</time>
      </trkpt>
      <trkpt lat="43.57634" lon="-1.33225">
        <ele>27.53</ele>
        <time>2016-01-09T13:49:35Z</time>
      </trkpt>
      <trkpt lat="43.57599" lon="-1.33252">
        <ele>22.25</ele>
        <time>2016-01-09T13:49:38Z</time>
      </trkpt>
      <trkpt lat="43.57574" lon="-1.3327">
        <ele>19.84</ele>
        <time>2016-01-09T13:49:40Z</time>
      </trkpt>
      <trkpt lat="43.57561" lon="-1.33277">
        <ele>17.92</ele>
        <time>2016-01-09T13:49:41Z</time>
      </trkpt>
      <trkpt lat="43.5752" lon="-1.33293">
        <ele>13.6</ele>
        <time>2016-01-09T13:49:44Z</time>
      </trkpt>
      <trkpt lat="43.57492" lon="-1.33303">
        <ele>10.23</ele>
        <time>2016-01-09T13:49:46Z</time>
      </trkpt>
      <trkpt lat="43.57466" lon="-1.33316">
        <ele>6.87</ele>
        <time>2016-01-09T13:49:48Z</time>
      </trkpt>
      <trkpt lat="43.57454" lon="-1.33325">
        <ele>5.91</ele>
        <time>2016-01-09T13:49:49Z</time>
      </trkpt>
      <trkpt lat="43.57411" lon="-1.33366">
        <ele>3.02</ele>
        <time>2016-01-09T13:49:53Z</time>
      </trkpt>
      <trkpt lat="43.57325" lon="-1.33446">
        <ele>5.91</ele>
        <time>2016-01-09T13:50:03Z</time>
      </trkpt>
      <trkpt lat="43.57319" lon="-1.33453">
        <ele>5.91</ele>
        <time>2016-01-09T13:50:04Z</time>
      </trkpt>
      <trkpt lat="43.57302" lon="-1.3347">
        <ele>9.75</ele>
        <time>2016-01-09T13:50:07Z</time>
      </trkpt>
      <trkpt lat="43.57293" lon="-1.33479">
        <ele>11.67</ele>
        <time>2016-01-09T13:50:09Z</time>
      </trkpt>
      <trkpt lat="43.57285" lon="-1.33487">
        <ele>12.63</ele>
        <time>2016-01-09T13:50:11Z</time>
      </trkpt>
      <trkpt lat="43.57281" lon="-1.3349">
        <ele>13.12</ele>
        <time>2016-01-09T13:50:12Z</time>
      </trkpt>
      <trkpt lat="43.57276" lon="-1.33492">
        <ele>13.6</ele>
        <time>2016-01-09T13:50:13Z</time>
      </trkpt>
      <trkpt lat="43.57251" lon="-1.33481">
        <ele>16.96</ele>
        <time>2016-01-09T13:50:20Z</time>
      </trkpt>
      <trkpt lat="43.57248" lon="-1.33478">
        <ele>16.96</ele>
        <time>2016-01-09T13:50:21Z</time>
      </trkpt>
      <trkpt lat="43.57227" lon="-1.33463">
        <ele>18.88</ele>
        <time>2016-01-09T13:50:26Z</time>
      </trkpt>
      <trkpt lat="43.57219" lon="-1.33459">
        <ele>19.36</ele>
        <time>2016-01-09T13:50:28Z</time>
      </trkpt>
      <trkpt lat="43.57214" lon="-1.33458">
        <ele>19.84</ele>
        <time>2016-01-09T13:50:29Z</time>
      </trkpt>
      <trkpt lat="43.57209" lon="-1.33458">
        <ele>20.32</ele>
        <time>2016-01-09T13:50:30Z</time>
      </trkpt>
      <trkpt lat="43.57204" lon="-1.33458">
        <ele>20.32</ele>
        <time>2016-01-09T13:50:31Z</time>
      </trkpt>
      <trkpt lat="43.57199" lon="-1.33459">
        <ele>20.81</ele>
        <time>2016-01-09T13:50:32Z</time>
      </trkpt>
      <trkpt lat="43.5718" lon="-1.33467">
        <ele>21.29</ele>
        <time>2016-01-09T13:50:36Z</time>
      </trkpt>
      <trkpt lat="43.57175" lon="-1.33469">
        <ele>21.77</ele>
        <time>2016-01-09T13:50:37Z</time>
      </trkpt>
      <trkpt lat="43.57089" lon="-1.335">
        <ele>24.17</ele>
        <time>2016-01-09T13:50:53Z</time>
      </trkpt>
      <trkpt lat="43.56981" lon="-1.33523">
        <ele>27.05</ele>
        <time>2016-01-09T13:51:11Z</time>
      </trkpt>
      <trkpt lat="43.56924" lon="-1.33534">
        <ele>27.05</ele>
        <time>2016-01-09T13:51:20Z</time>
      </trkpt>
      <trkpt lat="43.56918" lon="-1.33537">
        <ele>27.53</ele>
        <time>2016-01-09T13:51:21Z</time>
      </trkpt>
      <trkpt lat="43.56912" lon="-1.33542">
        <ele>27.53</ele>
        <time>2016-01-09T13:51:22Z</time>
      </trkpt>
      <trkpt lat="43.56907" lon="-1.33548">
        <ele>27.53</ele>
        <time>2016-01-09T13:51:23Z</time>
      </trkpt>
      <trkpt lat="43.56901" lon="-1.33554">
        <ele>27.53</ele>
        <time>2016-01-09T13:51:24Z</time>
      </trkpt>
      <trkpt lat="43.56896" lon="-1.3356">
        <ele>28.02</ele>
        <time>2016-01-09T13:51:25Z</time>
      </trkpt>
      <trkpt lat="43.56835" lon="-1.33639">
        <ele>29.46</ele>
        <time>2016-01-09T13:51:38Z</time>
      </trkpt>
      <trkpt lat="43.56831" lon="-1.33647">
        <ele>29.46</ele>
        <time>2016-01-09T13:51:39Z</time>
      </trkpt>
      <trkpt lat="43.56828" lon="-1.33655">
        <ele>29.46</ele>
        <time>2016-01-09T13:51:40Z</time>
      </trkpt>
      <trkpt lat="43.56827" lon="-1.33664">
        <ele>29.46</ele>
        <time>2016-01-09T13:51:41Z</time>
      </trkpt>
      <trkpt lat="43.56826" lon="-1.33673">
        <ele>29.46</ele>
        <time>2016-01-09T13:51:42Z</time>
      </trkpt>
      <trkpt lat="43.56825" lon="-1.33683">
        <ele>29.46</ele>
        <time>2016-01-09T13:51:43Z</time>
      </trkpt>
      <trkpt lat="43.56822" lon="-1.33765">
        <ele>29.94</ele>
        <time>2016-01-09T13:51:52Z</time>
      </trkpt>
      <trkpt lat="43.5682" lon="-1.33773">
        <ele>30.42</ele>
        <time>2016-01-09T13:51:53Z</time>
      </trkpt>
      <trkpt lat="43.56816" lon="-1.3378">
        <ele>30.42</ele>
        <time>2016-01-09T13:51:54Z</time>
      </trkpt>
      <trkpt lat="43.56811" lon="-1.33786">
        <ele>30.42</ele>
        <time>2016-01-09T13:51:55Z</time>
      </trkpt>
      <trkpt lat="43.56805" lon="-1.33791">
        <ele>30.42</ele>
        <time>2016-01-09T13:51:56Z</time>
      </trkpt>
      <trkpt lat="43.56799" lon="-1.33795">
        <ele>30.42</ele>
        <time>2016-01-09T13:51:57Z</time>
      </trkpt>
      <trkpt lat="43.56706" lon="-1.33844">
        <ele>30.9</ele>
        <time>2016-01-09T13:52:11Z</time>
      </trkpt>
      <trkpt lat="43.56587" lon="-1.33897">
        <ele>29.94</ele>
        <time>2016-01-09T13:52:26Z</time>
      </trkpt>
      <trkpt lat="43.56489" lon="-1.33895">
        <ele>29.46</ele>
        <time>2016-01-09T13:52:37Z</time>
      </trkpt>
      <trkpt lat="43.5638" lon="-1.33912">
        <ele>28.02</ele>
        <time>2016-01-09T13:52:49Z</time>
      </trkpt>
      <trkpt lat="43.56297" lon="-1.33931">
        <ele>28.02</ele>
        <time>2016-01-09T13:52:58Z</time>
      </trkpt>
      <trkpt lat="43.56288" lon="-1.33929">
        <ele>28.02</ele>
        <time>2016-01-09T13:52:59Z</time>
      </trkpt>
      <trkpt lat="43.56278" lon="-1.33927">
        <ele>28.02</ele>
        <time>2016-01-09T13:53:00Z</time>
      </trkpt>
      <trkpt lat="43.56269" lon="-1.33924">
        <ele>28.02</ele>
        <time>2016-01-09T13:53:01Z</time>
      </trkpt>
      <trkpt lat="43.5626" lon="-1.3392">
        <ele>28.02</ele>
        <time>2016-01-09T13:53:02Z</time>
      </trkpt>
      <trkpt lat="43.56183" lon="-1.3388">
        <ele>28.02</ele>
        <time>2016-01-09T13:53:11Z</time>
      </trkpt>
      <trkpt lat="43.56176" lon="-1.33872">
        <ele>28.02</ele>
        <time>2016-01-09T13:53:12Z</time>
      </trkpt>
      <trkpt lat="43.5617" lon="-1.33862">
        <ele>28.02</ele>
        <time>2016-01-09T13:53:13Z</time>
      </trkpt>
      <trkpt lat="43.56155" lon="-1.33832">
        <ele>28.98</ele>
        <time>2016-01-09T13:53:16Z</time>
      </trkpt>
      <trkpt lat="43.56148" lon="-1.33824">
        <ele>28.5</ele>
        <time>2016-01-09T13:53:17Z</time>
      </trkpt>
      <trkpt lat="43.56139" lon="-1.33819">
        <ele>28.5</ele>
        <time>2016-01-09T13:53:18Z</time>
      </trkpt>
      <trkpt lat="43.5613" lon="-1.33818">
        <ele>28.5</ele>
        <time>2016-01-09T13:53:19Z</time>
      </trkpt>
      <trkpt lat="43.56121" lon="-1.33821">
        <ele>28.5</ele>
        <time>2016-01-09T13:53:20Z</time>
      </trkpt>
      <trkpt lat="43.56113" lon="-1.33825">
        <ele>28.98</ele>
        <time>2016-01-09T13:53:21Z</time>
      </trkpt>
      <trkpt lat="43.56079" lon="-1.33843">
        <ele>28.98</ele>
        <time>2016-01-09T13:53:25Z</time>
      </trkpt>
      <trkpt lat="43.56071" lon="-1.33849">
        <ele>29.46</ele>
        <time>2016-01-09T13:53:26Z</time>
      </trkpt>
      <trkpt lat="43.56064" lon="-1.33856">
        <ele>29.46</ele>
        <time>2016-01-09T13:53:27Z</time>
      </trkpt>
      <trkpt lat="43.55972" lon="-1.33966">
        <ele>31.38</ele>
        <time>2016-01-09T13:53:42Z</time>
      </trkpt>
      <trkpt lat="43.55963" lon="-1.33984">
        <ele>30.9</ele>
        <time>2016-01-09T13:53:44Z</time>
      </trkpt>
      <trkpt lat="43.55908" lon="-1.34126">
        <ele>30.42</ele>
        <time>2016-01-09T13:53:58Z</time>
      </trkpt>
      <trkpt lat="43.55854" lon="-1.34269">
        <ele>30.42</ele>
        <time>2016-01-09T13:54:12Z</time>
      </trkpt>
      <trkpt lat="43.55821" lon="-1.34428">
        <ele>31.86</ele>
        <time>2016-01-09T13:54:27Z</time>
      </trkpt>
      <trkpt lat="43.55805" lon="-1.34594">
        <ele>32.82</ele>
        <time>2016-01-09T13:54:43Z</time>
      </trkpt>
      <trkpt lat="43.55798" lon="-1.34698">
        <ele>34.26</ele>
        <time>2016-01-09T13:54:53Z</time>
      </trkpt>
      <trkpt lat="43.55789" lon="-1.34815">
        <ele>36.67</ele>
        <time>2016-01-09T13:55:05Z</time>
      </trkpt>
      <trkpt lat="43.55784" lon="-1.34912">
        <ele>38.11</ele>
        <time>2016-01-09T13:55:15Z</time>
      </trkpt>
      <trkpt lat="43.55783" lon="-1.34921">
        <ele>38.11</ele>
        <time>2016-01-09T13:55:16Z</time>
      </trkpt>
      <trkpt lat="43.5578" lon="-1.34929">
        <ele>38.59</ele>
        <time>2016-01-09T13:55:17Z</time>
      </trkpt>
      <trkpt lat="43.55777" lon="-1.34938">
        <ele>38.59</ele>
        <time>2016-01-09T13:55:18Z</time>
      </trkpt>
      <trkpt lat="43.55773" lon="-1.34945">
        <ele>38.59</ele>
        <time>2016-01-09T13:55:19Z</time>
      </trkpt>
      <trkpt lat="43.55769" lon="-1.34952">
        <ele>39.07</ele>
        <time>2016-01-09T13:55:20Z</time>
      </trkpt>
      <trkpt lat="43.55709" lon="-1.35039">
        <ele>41.95</ele>
        <time>2016-01-09T13:55:33Z</time>
      </trkpt>
      <trkpt lat="43.5568" lon="-1.35071">
        <ele>43.4</ele>
        <time>2016-01-09T13:55:39Z</time>
      </trkpt>
      <trkpt lat="43.55625" lon="-1.3513">
        <ele>46.28</ele>
        <time>2016-01-09T13:55:52Z</time>
      </trkpt>
      <trkpt lat="43.5559" lon="-1.35159">
        <ele>48.2</ele>
        <time>2016-01-09T13:56:01Z</time>
      </trkpt>
      <trkpt lat="43.55552" lon="-1.35191">
        <ele>51.09</ele>
        <time>2016-01-09T13:56:15Z</time>
      </trkpt>
      <trkpt lat="43.5555" lon="-1.35194">
        <ele>51.57</ele>
        <time>2016-01-09T13:56:18Z</time>
      </trkpt>
      <trkpt lat="43.55551" lon="-1.35196">
        <ele>51.57</ele>
        <time>2016-01-09T13:56:19Z</time>
      </trkpt>
      <trkpt lat="43.55552" lon="-1.35198">
        <ele>51.57</ele>
        <time>2016-01-09T13:56:20Z</time>
      </trkpt>
      <trkpt lat="43.55553" lon="-1.352">
        <ele>51.57</ele>
        <time>2016-01-09T13:56:21Z</time>
      </trkpt>
      <trkpt lat="43.55555" lon="-1.35202">
        <ele>51.57</ele>
        <time>2016-01-09T13:56:22Z</time>
      </trkpt>
      <trkpt lat="43.55565" lon="-1.35218">
        <ele>51.57</ele>
        <time>2016-01-09T13:56:29Z</time>
      </trkpt>
      <trkpt lat="43.55566" lon="-1.3522">
        <ele>51.57</ele>
        <time>2016-01-09T13:56:30Z</time>
      </trkpt>
      <trkpt lat="43.55568" lon="-1.35222">
        <ele>51.57</ele>
        <time>2016-01-09T13:56:31Z</time>
      </trkpt>
      <trkpt lat="43.55569" lon="-1.35225">
        <ele>51.57</ele>
        <time>2016-01-09T13:56:32Z</time>
      </trkpt>
      <trkpt lat="43.5557" lon="-1.35227">
        <ele>51.57</ele>
        <time>2016-01-09T13:56:33Z</time>
      </trkpt>
      <trkpt lat="43.55572" lon="-1.35229">
        <ele>51.57</ele>
        <time>2016-01-09T13:56:34Z</time>
      </trkpt>
      <trkpt lat="43.55574" lon="-1.35232">
        <ele>51.09</ele>
        <time>2016-01-09T13:56:35Z</time>
      </trkpt>
      <trkpt lat="43.55575" lon="-1.35234">
        <ele>51.57</ele>
        <time>2016-01-09T13:56:36Z</time>
      </trkpt>
      <trkpt lat="43.55608" lon="-1.35283">
        <ele>51.09</ele>
        <time>2016-01-09T13:56:52Z</time>
      </trkpt>
      <trkpt lat="43.55641" lon="-1.35328">
        <ele>50.61</ele>
        <time>2016-01-09T13:57:05Z</time>
      </trkpt>
      <trkpt lat="43.55661" lon="-1.35344">
        <ele>50.13</ele>
        <time>2016-01-09T13:57:11Z</time>
      </trkpt>
      <trkpt lat="43.55664" lon="-1.35348">
        <ele>49.65</ele>
        <time>2016-01-09T13:57:12Z</time>
      </trkpt>
      <trkpt lat="43.55667" lon="-1.35354">
        <ele>50.13</ele>
        <time>2016-01-09T13:57:13Z</time>
      </trkpt>
      <trkpt lat="43.55668" lon="-1.3536">
        <ele>50.13</ele>
        <time>2016-01-09T13:57:14Z</time>
      </trkpt>
      <trkpt lat="43.55668" lon="-1.35366">
        <ele>50.61</ele>
        <time>2016-01-09T13:57:15Z</time>
      </trkpt>
      <trkpt lat="43.55668" lon="-1.3537">
        <ele>50.61</ele>
        <time>2016-01-09T13:57:16Z</time>
      </trkpt>
      <trkpt lat="43.55668" lon="-1.35375">
        <ele>51.09</ele>
        <time>2016-01-09T13:57:17Z</time>
      </trkpt>
      <trkpt lat="43.55669" lon="-1.35379">
        <ele>51.09</ele>
        <time>2016-01-09T13:57:18Z</time>
      </trkpt>
      <trkpt lat="43.5567" lon="-1.35382">
        <ele>51.09</ele>
        <time>2016-01-09T13:57:19Z</time>
      </trkpt>
      <trkpt lat="43.55671" lon="-1.35384">
        <ele>51.09</ele>
        <time>2016-01-09T13:57:20Z</time>
      </trkpt>
      <trkpt lat="43.55673" lon="-1.35387">
        <ele>51.09</ele>
        <time>2016-01-09T13:57:21Z</time>
      </trkpt>
      <trkpt lat="43.55675" lon="-1.35389">
        <ele>51.09</ele>
        <time>2016-01-09T13:57:22Z</time>
      </trkpt>
      <trkpt lat="43.55677" lon="-1.35392">
        <ele>51.09</ele>
        <time>2016-01-09T13:57:23Z</time>
      </trkpt>
      <trkpt lat="43.55679" lon="-1.35395">
        <ele>51.09</ele>
        <time>2016-01-09T13:57:24Z</time>
      </trkpt>
      <trkpt lat="43.55681" lon="-1.35398">
        <ele>51.09</ele>
        <time>2016-01-09T13:57:25Z</time>
      </trkpt>
      <trkpt lat="43.5571" lon="-1.35449">
        <ele>50.61</ele>
        <time>2016-01-09T13:57:39Z</time>
      </trkpt>
      <trkpt lat="43.55716" lon="-1.35469">
        <ele>50.13</ele>
        <time>2016-01-09T13:57:43Z</time>
      </trkpt>
      <trkpt lat="43.55722" lon="-1.35486">
        <ele>49.16</ele>
        <time>2016-01-09T13:57:46Z</time>
      </trkpt>
      <trkpt lat="43.55723" lon="-1.35493">
        <ele>49.16</ele>
        <time>2016-01-09T13:57:47Z</time>
      </trkpt>
      <trkpt lat="43.55725" lon="-1.355">
        <ele>48.68</ele>
        <time>2016-01-09T13:57:48Z</time>
      </trkpt>
      <trkpt lat="43.55741" lon="-1.35568">
        <ele>47.24</ele>
        <time>2016-01-09T13:58:00Z</time>
      </trkpt>
      <trkpt lat="43.55741" lon="-1.35572">
        <ele>47.24</ele>
        <time>2016-01-09T13:58:01Z</time>
      </trkpt>
      <trkpt lat="43.55742" lon="-1.35575">
        <ele>47.24</ele>
        <time>2016-01-09T13:58:02Z</time>
      </trkpt>
      <trkpt lat="43.55744" lon="-1.35578">
        <ele>47.24</ele>
        <time>2016-01-09T13:58:03Z</time>
      </trkpt>
      <trkpt lat="43.55746" lon="-1.3558">
        <ele>47.24</ele>
        <time>2016-01-09T13:58:04Z</time>
      </trkpt>
      <trkpt lat="43.55747" lon="-1.35583">
        <ele>47.24</ele>
        <time>2016-01-09T13:58:05Z</time>
      </trkpt>
      <trkpt lat="43.55747" lon="-1.35586">
        <ele>48.2</ele>
        <time>2016-01-09T13:58:06Z</time>
      </trkpt>
      <trkpt lat="43.55746" lon="-1.35587">
        <ele>47.24</ele>
        <time>2016-01-09T13:58:07Z</time>
      </trkpt>
      <trkpt lat="43.55744" lon="-1.35588">
        <ele>47.24</ele>
        <time>2016-01-09T13:58:08Z</time>
      </trkpt>
      <trkpt lat="43.55743" lon="-1.35588">
        <ele>47.24</ele>
        <time>2016-01-09T13:58:09Z</time>
      </trkpt>
      <trkpt lat="43.55741" lon="-1.35588">
        <ele>47.24</ele>
        <time>2016-01-09T13:58:21Z</time>
      </trkpt>
      <trkpt lat="43.55741" lon="-1.35587">
        <ele>47.24</ele>
        <time>2016-01-09T13:58:51Z</time>
      </trkpt>
      <trkpt lat="43.55741" lon="-1.35587">
        <ele>47.24</ele>
        <time>2016-01-09T13:59:08Z</time>
      </trkpt>
      <trkpt lat="43.5574" lon="-1.35587">
        <ele>47.24</ele>
        <time>2016-01-09T13:59:09Z</time>
      </trkpt>
      <trkpt lat="43.55739" lon="-1.35587">
        <ele>47.24</ele>
        <time>2016-01-09T13:59:10Z</time>
      </trkpt>
      <trkpt lat="43.55737" lon="-1.35587">
        <ele>47.24</ele>
        <time>2016-01-09T13:59:11Z</time>
      </trkpt>
      <trkpt lat="43.55734" lon="-1.35587">
        <ele>47.24</ele>
        <time>2016-01-09T13:59:12Z</time>
      </trkpt>
      <trkpt lat="43.55732" lon="-1.35588">
        <ele>47.24</ele>
        <time>2016-01-09T13:59:13Z</time>
      </trkpt>
      <trkpt lat="43.55729" lon="-1.3559">
        <ele>47.24</ele>
        <time>2016-01-09T13:59:14Z</time>
      </trkpt>
      <trkpt lat="43.55727" lon="-1.35592">
        <ele>46.76</ele>
        <time>2016-01-09T13:59:15Z</time>
      </trkpt>
      <trkpt lat="43.55682" lon="-1.35622">
        <ele>45.32</ele>
        <time>2016-01-09T13:59:26Z</time>
      </trkpt>
      <trkpt lat="43.55672" lon="-1.35633">
        <ele>44.36</ele>
        <time>2016-01-09T13:59:28Z</time>
      </trkpt>
      <trkpt lat="43.55667" lon="-1.35639">
        <ele>43.88</ele>
        <time>2016-01-09T13:59:29Z</time>
      </trkpt>
      <trkpt lat="43.55663" lon="-1.35647">
        <ele>43.88</ele>
        <time>2016-01-09T13:59:30Z</time>
      </trkpt>
      <trkpt lat="43.55657" lon="-1.35664">
        <ele>42.92</ele>
        <time>2016-01-09T13:59:32Z</time>
      </trkpt>
      <trkpt lat="43.55655" lon="-1.35673">
        <ele>42.92</ele>
        <time>2016-01-09T13:59:33Z</time>
      </trkpt>
      <trkpt lat="43.55651" lon="-1.357">
        <ele>42.92</ele>
        <time>2016-01-09T13:59:36Z</time>
      </trkpt>
      <trkpt lat="43.55641" lon="-1.35802">
        <ele>41.47</ele>
        <time>2016-01-09T13:59:47Z</time>
      </trkpt>
      <trkpt lat="43.55638" lon="-1.35811">
        <ele>41.47</ele>
        <time>2016-01-09T13:59:48Z</time>
      </trkpt>
      <trkpt lat="43.55615" lon="-1.35863">
        <ele>42.92</ele>
        <time>2016-01-09T13:59:54Z</time>
      </trkpt>
      <trkpt lat="43.55601" lon="-1.35898">
        <ele>42.92</ele>
        <time>2016-01-09T13:59:58Z</time>
      </trkpt>
      <trkpt lat="43.55598" lon="-1.35908">
        <ele>42.92</ele>
        <time>2016-01-09T13:59:59Z</time>
      </trkpt>
      <trkpt lat="43.55594" lon="-1.35927">
        <ele>42.44</ele>
        <time>2016-01-09T14:00:01Z</time>
      </trkpt>
      <trkpt lat="43.55587" lon="-1.36011">
        <ele>39.07</ele>
        <time>2016-01-09T14:00:08Z</time>
      </trkpt>
      <trkpt lat="43.55583" lon="-1.36084">
        <ele>37.15</ele>
        <time>2016-01-09T14:00:15Z</time>
      </trkpt>
      <trkpt lat="43.55584" lon="-1.36093">
        <ele>36.19</ele>
        <time>2016-01-09T14:00:16Z</time>
      </trkpt>
      <trkpt lat="43.55587" lon="-1.36101">
        <ele>36.19</ele>
        <time>2016-01-09T14:00:17Z</time>
      </trkpt>
      <trkpt lat="43.55592" lon="-1.36117">
        <ele>37.15</ele>
        <time>2016-01-09T14:00:20Z</time>
      </trkpt>
      <trkpt lat="43.55591" lon="-1.36123">
        <ele>36.67</ele>
        <time>2016-01-09T14:00:21Z</time>
      </trkpt>
      <trkpt lat="43.55589" lon="-1.36131">
        <ele>36.19</ele>
        <time>2016-01-09T14:00:22Z</time>
      </trkpt>
      <trkpt lat="43.55574" lon="-1.36238">
        <ele>33.3</ele>
        <time>2016-01-09T14:00:32Z</time>
      </trkpt>
      <trkpt lat="43.55565" lon="-1.36351">
        <ele>33.3</ele>
        <time>2016-01-09T14:00:43Z</time>
      </trkpt>
      <trkpt lat="43.55564" lon="-1.36358">
        <ele>33.78</ele>
        <time>2016-01-09T14:00:44Z</time>
      </trkpt>
      <trkpt lat="43.55563" lon="-1.36385">
        <ele>33.78</ele>
        <time>2016-01-09T14:00:48Z</time>
      </trkpt>
      <trkpt lat="43.5556" lon="-1.36408">
        <ele>33.3</ele>
        <time>2016-01-09T14:00:51Z</time>
      </trkpt>
      <trkpt lat="43.55559" lon="-1.36416">
        <ele>33.3</ele>
        <time>2016-01-09T14:00:52Z</time>
      </trkpt>
      <trkpt lat="43.55563" lon="-1.3654">
        <ele>32.82</ele>
        <time>2016-01-09T14:01:06Z</time>
      </trkpt>
      <trkpt lat="43.55583" lon="-1.36666">
        <ele>32.34</ele>
        <time>2016-01-09T14:01:19Z</time>
      </trkpt>
      <trkpt lat="43.55582" lon="-1.36676">
        <ele>32.34</ele>
        <time>2016-01-09T14:01:20Z</time>
      </trkpt>
      <trkpt lat="43.5558" lon="-1.36686">
        <ele>31.86</ele>
        <time>2016-01-09T14:01:21Z</time>
      </trkpt>
      <trkpt lat="43.55574" lon="-1.36705">
        <ele>31.86</ele>
        <time>2016-01-09T14:01:23Z</time>
      </trkpt>
      <trkpt lat="43.55517" lon="-1.36839">
        <ele>29.46</ele>
        <time>2016-01-09T14:01:37Z</time>
      </trkpt>
      <trkpt lat="43.55496" lon="-1.36938">
        <ele>28.02</ele>
        <time>2016-01-09T14:01:46Z</time>
      </trkpt>
      <trkpt lat="43.55487" lon="-1.37052">
        <ele>24.17</ele>
        <time>2016-01-09T14:01:56Z</time>
      </trkpt>
      <trkpt lat="43.55485" lon="-1.37064">
        <ele>23.21</ele>
        <time>2016-01-09T14:01:57Z</time>
      </trkpt>
      <trkpt lat="43.55482" lon="-1.37076">
        <ele>22.73</ele>
        <time>2016-01-09T14:01:58Z</time>
      </trkpt>
      <trkpt lat="43.55477" lon="-1.37087">
        <ele>21.77</ele>
        <time>2016-01-09T14:01:59Z</time>
      </trkpt>
      <trkpt lat="43.5547" lon="-1.37098">
        <ele>20.32</ele>
        <time>2016-01-09T14:02:00Z</time>
      </trkpt>
      <trkpt lat="43.55461" lon="-1.37107">
        <ele>19.36</ele>
        <time>2016-01-09T14:02:01Z</time>
      </trkpt>
      <trkpt lat="43.55453" lon="-1.37116">
        <ele>18.4</ele>
        <time>2016-01-09T14:02:02Z</time>
      </trkpt>
      <trkpt lat="43.55435" lon="-1.3713">
        <ele>16.96</ele>
        <time>2016-01-09T14:02:04Z</time>
      </trkpt>
      <trkpt lat="43.55426" lon="-1.37135">
        <ele>16</ele>
        <time>2016-01-09T14:02:05Z</time>
      </trkpt>
      <trkpt lat="43.55417" lon="-1.37138">
        <ele>15.04</ele>
        <time>2016-01-09T14:02:06Z</time>
      </trkpt>
      <trkpt lat="43.55409" lon="-1.3714">
        <ele>15.52</ele>
        <time>2016-01-09T14:02:07Z</time>
      </trkpt>
      <trkpt lat="43.55393" lon="-1.3714">
        <ele>13.12</ele>
        <time>2016-01-09T14:02:09Z</time>
      </trkpt>
      <trkpt lat="43.55383" lon="-1.37138">
        <ele>12.63</ele>
        <time>2016-01-09T14:02:10Z</time>
      </trkpt>
      <trkpt lat="43.55372" lon="-1.37137">
        <ele>11.67</ele>
        <time>2016-01-09T14:02:11Z</time>
      </trkpt>
      <trkpt lat="43.55361" lon="-1.37138">
        <ele>10.71</ele>
        <time>2016-01-09T14:02:12Z</time>
      </trkpt>
      <trkpt lat="43.55351" lon="-1.37141">
        <ele>9.27</ele>
        <time>2016-01-09T14:02:13Z</time>
      </trkpt>
      <trkpt lat="43.55341" lon="-1.37149">
        <ele>9.27</ele>
        <time>2016-01-09T14:02:14Z</time>
      </trkpt>
      <trkpt lat="43.55334" lon="-1.37159">
        <ele>8.79</ele>
        <time>2016-01-09T14:02:15Z</time>
      </trkpt>
      <trkpt lat="43.55328" lon="-1.37171">
        <ele>8.79</ele>
        <time>2016-01-09T14:02:16Z</time>
      </trkpt>
      <trkpt lat="43.5526" lon="-1.37297">
        <ele>10.23</ele>
        <time>2016-01-09T14:02:28Z</time>
      </trkpt>
      <trkpt lat="43.55229" lon="-1.37339">
        <ele>13.6</ele>
        <time>2016-01-09T14:02:34Z</time>
      </trkpt>
      <trkpt lat="43.55225" lon="-1.37345">
        <ele>14.08</ele>
        <time>2016-01-09T14:02:35Z</time>
      </trkpt>
      <trkpt lat="43.55207" lon="-1.37367">
        <ele>17.44</ele>
        <time>2016-01-09T14:02:40Z</time>
      </trkpt>
      <trkpt lat="43.55188" lon="-1.3738">
        <ele>18.88</ele>
        <time>2016-01-09T14:02:44Z</time>
      </trkpt>
      <trkpt lat="43.5516" lon="-1.37395">
        <ele>20.32</ele>
        <time>2016-01-09T14:02:49Z</time>
      </trkpt>
      <trkpt lat="43.55154" lon="-1.37396">
        <ele>20.81</ele>
        <time>2016-01-09T14:02:50Z</time>
      </trkpt>
      <trkpt lat="43.55113" lon="-1.37404">
        <ele>22.73</ele>
        <time>2016-01-09T14:02:57Z</time>
      </trkpt>
      <trkpt lat="43.55108" lon="-1.37404">
        <ele>22.73</ele>
        <time>2016-01-09T14:02:58Z</time>
      </trkpt>
      <trkpt lat="43.55071" lon="-1.3741">
        <ele>23.21</ele>
        <time>2016-01-09T14:03:04Z</time>
      </trkpt>
      <trkpt lat="43.55064" lon="-1.37413">
        <ele>23.21</ele>
        <time>2016-01-09T14:03:05Z</time>
      </trkpt>
      <trkpt lat="43.5505" lon="-1.37419">
        <ele>23.21</ele>
        <time>2016-01-09T14:03:07Z</time>
      </trkpt>
      <trkpt lat="43.55044" lon="-1.37424">
        <ele>23.21</ele>
        <time>2016-01-09T14:03:08Z</time>
      </trkpt>
      <trkpt lat="43.55038" lon="-1.3743">
        <ele>23.21</ele>
        <time>2016-01-09T14:03:09Z</time>
      </trkpt>
      <trkpt lat="43.55004" lon="-1.37473">
        <ele>24.17</ele>
        <time>2016-01-09T14:03:16Z</time>
      </trkpt>
      <trkpt lat="43.54999" lon="-1.37478">
        <ele>24.17</ele>
        <time>2016-01-09T14:03:17Z</time>
      </trkpt>
      <trkpt lat="43.54993" lon="-1.37483">
        <ele>24.17</ele>
        <time>2016-01-09T14:03:18Z</time>
      </trkpt>
      <trkpt lat="43.54986" lon="-1.37487">
        <ele>24.17</ele>
        <time>2016-01-09T14:03:19Z</time>
      </trkpt>
      <trkpt lat="43.5498" lon="-1.3749">
        <ele>24.17</ele>
        <time>2016-01-09T14:03:20Z</time>
      </trkpt>
      <trkpt lat="43.54974" lon="-1.37493">
        <ele>24.65</ele>
        <time>2016-01-09T14:03:21Z</time>
      </trkpt>
      <trkpt lat="43.54967" lon="-1.37495">
        <ele>24.65</ele>
        <time>2016-01-09T14:03:22Z</time>
      </trkpt>
      <trkpt lat="43.54869" lon="-1.37519">
        <ele>26.09</ele>
        <time>2016-01-09T14:03:37Z</time>
      </trkpt>
      <trkpt lat="43.54779" lon="-1.37541">
        <ele>27.53</ele>
        <time>2016-01-09T14:03:51Z</time>
      </trkpt>
      <trkpt lat="43.5465" lon="-1.37578">
        <ele>27.53</ele>
        <time>2016-01-09T14:04:09Z</time>
      </trkpt>
      <trkpt lat="43.54532" lon="-1.37641">
        <ele>28.02</ele>
        <time>2016-01-09T14:04:25Z</time>
      </trkpt>
      <trkpt lat="43.54424" lon="-1.37709">
        <ele>30.42</ele>
        <time>2016-01-09T14:04:42Z</time>
      </trkpt>
      <trkpt lat="43.54358" lon="-1.37753">
        <ele>32.82</ele>
        <time>2016-01-09T14:04:53Z</time>
      </trkpt>
      <trkpt lat="43.54353" lon="-1.37758">
        <ele>33.3</ele>
        <time>2016-01-09T14:04:54Z</time>
      </trkpt>
      <trkpt lat="43.54348" lon="-1.37763">
        <ele>33.3</ele>
        <time>2016-01-09T14:04:55Z</time>
      </trkpt>
      <trkpt lat="43.54291" lon="-1.37856">
        <ele>35.23</ele>
        <time>2016-01-09T14:05:10Z</time>
      </trkpt>
      <trkpt lat="43.54257" lon="-1.37892">
        <ele>35.23</ele>
        <time>2016-01-09T14:05:21Z</time>
      </trkpt>
      <trkpt lat="43.54247" lon="-1.37902">
        <ele>35.23</ele>
        <time>2016-01-09T14:05:30Z</time>
      </trkpt>
      <trkpt lat="43.54254" lon="-1.37964">
        <ele>34.26</ele>
        <time>2016-01-09T14:05:43Z</time>
      </trkpt>
      <trkpt lat="43.54255" lon="-1.3797">
        <ele>34.26</ele>
        <time>2016-01-09T14:05:44Z</time>
      </trkpt>
      <trkpt lat="43.54281" lon="-1.38083">
        <ele>32.34</ele>
        <time>2016-01-09T14:05:59Z</time>
      </trkpt>
      <trkpt lat="43.54317" lon="-1.38225">
        <ele>32.34</ele>
        <time>2016-01-09T14:06:14Z</time>
      </trkpt>
      <trkpt lat="43.54347" lon="-1.38342">
        <ele>33.78</ele>
        <time>2016-01-09T14:06:27Z</time>
      </trkpt>
      <trkpt lat="43.54351" lon="-1.38349">
        <ele>33.78</ele>
        <time>2016-01-09T14:06:28Z</time>
      </trkpt>
      <trkpt lat="43.54353" lon="-1.38357">
        <ele>33.78</ele>
        <time>2016-01-09T14:06:29Z</time>
      </trkpt>
      <trkpt lat="43.54355" lon="-1.38366">
        <ele>33.78</ele>
        <time>2016-01-09T14:06:30Z</time>
      </trkpt>
      <trkpt lat="43.54357" lon="-1.38376">
        <ele>33.78</ele>
        <time>2016-01-09T14:06:31Z</time>
      </trkpt>
      <trkpt lat="43.5439" lon="-1.38488">
        <ele>34.26</ele>
        <time>2016-01-09T14:06:44Z</time>
      </trkpt>
      <trkpt lat="43.54392" lon="-1.38496">
        <ele>34.26</ele>
        <time>2016-01-09T14:06:45Z</time>
      </trkpt>
      <trkpt lat="43.54395" lon="-1.38504">
        <ele>34.74</ele>
        <time>2016-01-09T14:06:46Z</time>
      </trkpt>
      <trkpt lat="43.54433" lon="-1.38562">
        <ele>36.19</ele>
        <time>2016-01-09T14:06:55Z</time>
      </trkpt>
      <trkpt lat="43.54461" lon="-1.38629">
        <ele>39.55</ele>
        <time>2016-01-09T14:07:06Z</time>
      </trkpt>
      <trkpt lat="43.54462" lon="-1.38634">
        <ele>39.55</ele>
        <time>2016-01-09T14:07:07Z</time>
      </trkpt>
      <trkpt lat="43.54461" lon="-1.38639">
        <ele>40.03</ele>
        <time>2016-01-09T14:07:08Z</time>
      </trkpt>
      <trkpt lat="43.5446" lon="-1.38645">
        <ele>40.03</ele>
        <time>2016-01-09T14:07:09Z</time>
      </trkpt>
      <trkpt lat="43.54456" lon="-1.3865">
        <ele>40.51</ele>
        <time>2016-01-09T14:07:10Z</time>
      </trkpt>
      <trkpt lat="43.54451" lon="-1.38654">
        <ele>40.51</ele>
        <time>2016-01-09T14:07:11Z</time>
      </trkpt>
      <trkpt lat="43.54446" lon="-1.38657">
        <ele>40.51</ele>
        <time>2016-01-09T14:07:12Z</time>
      </trkpt>
      <trkpt lat="43.5444" lon="-1.38659">
        <ele>40.03</ele>
        <time>2016-01-09T14:07:13Z</time>
      </trkpt>
      <trkpt lat="43.5435" lon="-1.38706">
        <ele>39.07</ele>
        <time>2016-01-09T14:07:28Z</time>
      </trkpt>
      <trkpt lat="43.54324" lon="-1.38718">
        <ele>39.07</ele>
        <time>2016-01-09T14:07:32Z</time>
      </trkpt>
      <trkpt lat="43.54318" lon="-1.38721">
        <ele>38.59</ele>
        <time>2016-01-09T14:07:33Z</time>
      </trkpt>
      <trkpt lat="43.5423" lon="-1.38744">
        <ele>35.71</ele>
        <time>2016-01-09T14:07:45Z</time>
      </trkpt>
      <trkpt lat="43.54138" lon="-1.38759">
        <ele>32.34</ele>
        <time>2016-01-09T14:07:57Z</time>
      </trkpt>
      <trkpt lat="43.54039" lon="-1.38777">
        <ele>29.94</ele>
        <time>2016-01-09T14:08:11Z</time>
      </trkpt>
      <trkpt lat="43.54026" lon="-1.38782">
        <ele>29.94</ele>
        <time>2016-01-09T14:08:13Z</time>
      </trkpt>
      <trkpt lat="43.54019" lon="-1.38782">
        <ele>29.94</ele>
        <time>2016-01-09T14:08:14Z</time>
      </trkpt>
      <trkpt lat="43.53916" lon="-1.38795">
        <ele>27.05</ele>
        <time>2016-01-09T14:08:27Z</time>
      </trkpt>
      <trkpt lat="43.53854" lon="-1.38809">
        <ele>23.69</ele>
        <time>2016-01-09T14:08:34Z</time>
      </trkpt>
      <trkpt lat="43.53805" lon="-1.38824">
        <ele>20.32</ele>
        <time>2016-01-09T14:08:39Z</time>
      </trkpt>
      <trkpt lat="43.53784" lon="-1.3883">
        <ele>19.36</ele>
        <time>2016-01-09T14:08:41Z</time>
      </trkpt>
      <trkpt lat="43.53667" lon="-1.38865">
        <ele>19.36</ele>
        <time>2016-01-09T14:08:54Z</time>
      </trkpt>
      <trkpt lat="43.53625" lon="-1.38876">
        <ele>22.73</ele>
        <time>2016-01-09T14:09:00Z</time>
      </trkpt>
      <trkpt lat="43.53606" lon="-1.38882">
        <ele>24.65</ele>
        <time>2016-01-09T14:09:03Z</time>
      </trkpt>
      <trkpt lat="43.53589" lon="-1.38888">
        <ele>26.09</ele>
        <time>2016-01-09T14:09:06Z</time>
      </trkpt>
      <trkpt lat="43.53583" lon="-1.38888">
        <ele>26.09</ele>
        <time>2016-01-09T14:09:07Z</time>
      </trkpt>
      <trkpt lat="43.53578" lon="-1.3889">
        <ele>26.57</ele>
        <time>2016-01-09T14:09:08Z</time>
      </trkpt>
      <trkpt lat="43.53573" lon="-1.38892">
        <ele>27.05</ele>
        <time>2016-01-09T14:09:09Z</time>
      </trkpt>
      <trkpt lat="43.53568" lon="-1.38894">
        <ele>27.53</ele>
        <time>2016-01-09T14:09:10Z</time>
      </trkpt>
      <trkpt lat="43.53563" lon="-1.38897">
        <ele>27.53</ele>
        <time>2016-01-09T14:09:11Z</time>
      </trkpt>
      <trkpt lat="43.53559" lon="-1.389">
        <ele>28.02</ele>
        <time>2016-01-09T14:09:12Z</time>
      </trkpt>
      <trkpt lat="43.53554" lon="-1.38902">
        <ele>28.5</ele>
        <time>2016-01-09T14:09:13Z</time>
      </trkpt>
      <trkpt lat="43.53548" lon="-1.38902">
        <ele>28.5</ele>
        <time>2016-01-09T14:09:14Z</time>
      </trkpt>
      <trkpt lat="43.53543" lon="-1.38901">
        <ele>28.98</ele>
        <time>2016-01-09T14:09:15Z</time>
      </trkpt>
      <trkpt lat="43.53532" lon="-1.38898">
        <ele>28.98</ele>
        <time>2016-01-09T14:09:17Z</time>
      </trkpt>
      <trkpt lat="43.53526" lon="-1.38898">
        <ele>28.98</ele>
        <time>2016-01-09T14:09:18Z</time>
      </trkpt>
      <trkpt lat="43.53434" lon="-1.38904">
        <ele>32.34</ele>
        <time>2016-01-09T14:09:33Z</time>
      </trkpt>
      <trkpt lat="43.53416" lon="-1.38902">
        <ele>32.34</ele>
        <time>2016-01-09T14:09:36Z</time>
      </trkpt>
      <trkpt lat="43.53363" lon="-1.38885">
        <ele>34.26</ele>
        <time>2016-01-09T14:09:46Z</time>
      </trkpt>
      <trkpt lat="43.53358" lon="-1.38883">
        <ele>34.26</ele>
        <time>2016-01-09T14:09:47Z</time>
      </trkpt>
      <trkpt lat="43.53271" lon="-1.38847">
        <ele>36.19</ele>
        <time>2016-01-09T14:10:02Z</time>
      </trkpt>
      <trkpt lat="43.53196" lon="-1.38813">
        <ele>37.63</ele>
        <time>2016-01-09T14:10:14Z</time>
      </trkpt>
      <trkpt lat="43.53109" lon="-1.38771">
        <ele>40.51</ele>
        <time>2016-01-09T14:10:29Z</time>
      </trkpt>
      <trkpt lat="43.53075" lon="-1.38755">
        <ele>42.92</ele>
        <time>2016-01-09T14:10:39Z</time>
      </trkpt>
      <trkpt lat="43.53049" lon="-1.38743">
        <ele>43.88</ele>
        <time>2016-01-09T14:10:52Z</time>
      </trkpt>
      <trkpt lat="43.53018" lon="-1.3873">
        <ele>44.36</ele>
        <time>2016-01-09T14:11:02Z</time>
      </trkpt>
      <trkpt lat="43.53014" lon="-1.38728">
        <ele>44.36</ele>
        <time>2016-01-09T14:11:03Z</time>
      </trkpt>
      <trkpt lat="43.52945" lon="-1.38697">
        <ele>44.36</ele>
        <time>2016-01-09T14:11:17Z</time>
      </trkpt>
      <trkpt lat="43.52876" lon="-1.38639">
        <ele>42.44</ele>
        <time>2016-01-09T14:11:29Z</time>
      </trkpt>
      <trkpt lat="43.52787" lon="-1.38561">
        <ele>45.32</ele>
        <time>2016-01-09T14:11:44Z</time>
      </trkpt>
      <trkpt lat="43.52689" lon="-1.38487">
        <ele>47.24</ele>
        <time>2016-01-09T14:12:01Z</time>
      </trkpt>
      <trkpt lat="43.52617" lon="-1.38439">
        <ele>50.61</ele>
        <time>2016-01-09T14:12:14Z</time>
      </trkpt>
      <trkpt lat="43.52511" lon="-1.38365">
        <ele>52.53</ele>
        <time>2016-01-09T14:12:33Z</time>
      </trkpt>
      <trkpt lat="43.52416" lon="-1.38301">
        <ele>54.45</ele>
        <time>2016-01-09T14:12:50Z</time>
      </trkpt>
      <trkpt lat="43.52336" lon="-1.38245">
        <ele>57.82</ele>
        <time>2016-01-09T14:13:05Z</time>
      </trkpt>
      <trkpt lat="43.52239" lon="-1.38191">
        <ele>57.82</ele>
        <time>2016-01-09T14:13:21Z</time>
      </trkpt>
      <trkpt lat="43.52142" lon="-1.38203">
        <ele>58.78</ele>
        <time>2016-01-09T14:13:35Z</time>
      </trkpt>
      <trkpt lat="43.5205" lon="-1.38215">
        <ele>60.22</ele>
        <time>2016-01-09T14:13:49Z</time>
      </trkpt>
      <trkpt lat="43.52021" lon="-1.38207">
        <ele>59.74</ele>
        <time>2016-01-09T14:13:53Z</time>
      </trkpt>
      <trkpt lat="43.52014" lon="-1.38203">
        <ele>59.26</ele>
        <time>2016-01-09T14:13:54Z</time>
      </trkpt>
      <trkpt lat="43.51944" lon="-1.3816">
        <ele>55.89</ele>
        <time>2016-01-09T14:14:03Z</time>
      </trkpt>
      <trkpt lat="43.51871" lon="-1.38122">
        <ele>53.01</ele>
        <time>2016-01-09T14:14:11Z</time>
      </trkpt>
      <trkpt lat="43.5186" lon="-1.38121">
        <ele>52.53</ele>
        <time>2016-01-09T14:14:12Z</time>
      </trkpt>
      <trkpt lat="43.5185" lon="-1.38121">
        <ele>52.05</ele>
        <time>2016-01-09T14:14:13Z</time>
      </trkpt>
      <trkpt lat="43.5184" lon="-1.38123">
        <ele>51.57</ele>
        <time>2016-01-09T14:14:14Z</time>
      </trkpt>
      <trkpt lat="43.51829" lon="-1.38126">
        <ele>50.61</ele>
        <time>2016-01-09T14:14:15Z</time>
      </trkpt>
      <trkpt lat="43.51819" lon="-1.38131">
        <ele>50.13</ele>
        <time>2016-01-09T14:14:16Z</time>
      </trkpt>
      <trkpt lat="43.51809" lon="-1.38136">
        <ele>49.65</ele>
        <time>2016-01-09T14:14:17Z</time>
      </trkpt>
      <trkpt lat="43.51768" lon="-1.38166">
        <ele>45.8</ele>
        <time>2016-01-09T14:14:21Z</time>
      </trkpt>
      <trkpt lat="43.51738" lon="-1.38198">
        <ele>41.95</ele>
        <time>2016-01-09T14:14:24Z</time>
      </trkpt>
      <trkpt lat="43.51708" lon="-1.38233">
        <ele>38.59</ele>
        <time>2016-01-09T14:14:27Z</time>
      </trkpt>
      <trkpt lat="43.51699" lon="-1.38247">
        <ele>38.11</ele>
        <time>2016-01-09T14:14:28Z</time>
      </trkpt>
      <trkpt lat="43.51672" lon="-1.38287">
        <ele>35.23</ele>
        <time>2016-01-09T14:14:31Z</time>
      </trkpt>
      <trkpt lat="43.51661" lon="-1.38298">
        <ele>33.78</ele>
        <time>2016-01-09T14:14:32Z</time>
      </trkpt>
      <trkpt lat="43.5165" lon="-1.38308">
        <ele>32.82</ele>
        <time>2016-01-09T14:14:33Z</time>
      </trkpt>
      <trkpt lat="43.51637" lon="-1.38316">
        <ele>31.86</ele>
        <time>2016-01-09T14:14:34Z</time>
      </trkpt>
      <trkpt lat="43.51611" lon="-1.38327">
        <ele>28.98</ele>
        <time>2016-01-09T14:14:36Z</time>
      </trkpt>
      <trkpt lat="43.51558" lon="-1.38347">
        <ele>25.61</ele>
        <time>2016-01-09T14:14:40Z</time>
      </trkpt>
      <trkpt lat="43.51546" lon="-1.38354">
        <ele>26.09</ele>
        <time>2016-01-09T14:14:41Z</time>
      </trkpt>
      <trkpt lat="43.51536" lon="-1.38364">
        <ele>25.61</ele>
        <time>2016-01-09T14:14:42Z</time>
      </trkpt>
      <trkpt lat="43.51528" lon="-1.38377">
        <ele>24.17</ele>
        <time>2016-01-09T14:14:43Z</time>
      </trkpt>
      <trkpt lat="43.51522" lon="-1.38392">
        <ele>23.69</ele>
        <time>2016-01-09T14:14:44Z</time>
      </trkpt>
      <trkpt lat="43.51517" lon="-1.38408">
        <ele>22.25</ele>
        <time>2016-01-09T14:14:45Z</time>
      </trkpt>
      <trkpt lat="43.51506" lon="-1.38437">
        <ele>20.81</ele>
        <time>2016-01-09T14:14:47Z</time>
      </trkpt>
      <trkpt lat="43.51498" lon="-1.38451">
        <ele>19.84</ele>
        <time>2016-01-09T14:14:48Z</time>
      </trkpt>
      <trkpt lat="43.51489" lon="-1.38464">
        <ele>18.88</ele>
        <time>2016-01-09T14:14:49Z</time>
      </trkpt>
      <trkpt lat="43.51465" lon="-1.38503">
        <ele>16</ele>
        <time>2016-01-09T14:14:52Z</time>
      </trkpt>
      <trkpt lat="43.51444" lon="-1.38546">
        <ele>14.08</ele>
        <time>2016-01-09T14:14:55Z</time>
      </trkpt>
      <trkpt lat="43.51434" lon="-1.38557">
        <ele>13.12</ele>
        <time>2016-01-09T14:14:56Z</time>
      </trkpt>
      <trkpt lat="43.51423" lon="-1.38563">
        <ele>12.15</ele>
        <time>2016-01-09T14:14:57Z</time>
      </trkpt>
      <trkpt lat="43.51412" lon="-1.38566">
        <ele>11.19</ele>
        <time>2016-01-09T14:14:58Z</time>
      </trkpt>
      <trkpt lat="43.514" lon="-1.38565">
        <ele>10.23</ele>
        <time>2016-01-09T14:14:59Z</time>
      </trkpt>
      <trkpt lat="43.51389" lon="-1.38561">
        <ele>9.75</ele>
        <time>2016-01-09T14:15:00Z</time>
      </trkpt>
      <trkpt lat="43.51377" lon="-1.38555">
        <ele>8.79</ele>
        <time>2016-01-09T14:15:01Z</time>
      </trkpt>
      <trkpt lat="43.5134" lon="-1.3854">
        <ele>4.94</ele>
        <time>2016-01-09T14:15:04Z</time>
      </trkpt>
      <trkpt lat="43.51328" lon="-1.38537">
        <ele>3.98</ele>
        <time>2016-01-09T14:15:05Z</time>
      </trkpt>
      <trkpt lat="43.51315" lon="-1.38537">
        <ele>3.02</ele>
        <time>2016-01-09T14:15:06Z</time>
      </trkpt>
      <trkpt lat="43.51302" lon="-1.38538">
        <ele>2.06</ele>
        <time>2016-01-09T14:15:07Z</time>
      </trkpt>
      <trkpt lat="43.51251" lon="-1.38551">
        <ele>-1.3</ele>
        <time>2016-01-09T14:15:11Z</time>
      </trkpt>
      <trkpt lat="43.51116" lon="-1.38587">
        <ele>-1.79</ele>
        <time>2016-01-09T14:15:23Z</time>
      </trkpt>
      <trkpt lat="43.50976" lon="-1.38634">
        <ele>-3.71</ele>
        <time>2016-01-09T14:15:36Z</time>
      </trkpt>
      <trkpt lat="43.50834" lon="-1.38672">
        <ele>-3.23</ele>
        <time>2016-01-09T14:15:50Z</time>
      </trkpt>
      <trkpt lat="43.50692" lon="-1.38686">
        <ele>-3.71</ele>
        <time>2016-01-09T14:16:05Z</time>
      </trkpt>
      <trkpt lat="43.5055" lon="-1.38705">
        <ele>-3.71</ele>
        <time>2016-01-09T14:16:21Z</time>
      </trkpt>
      <trkpt lat="43.50434" lon="-1.38709">
        <ele>-3.71</ele>
        <time>2016-01-09T14:16:34Z</time>
      </trkpt>
      <trkpt lat="43.50316" lon="-1.38717">
        <ele>-3.23</ele>
        <time>2016-01-09T14:16:48Z</time>
      </trkpt>
      <trkpt lat="43.5021" lon="-1.38729">
        <ele>-3.23</ele>
        <time>2016-01-09T14:17:01Z</time>
      </trkpt>
      <trkpt lat="43.50094" lon="-1.38691">
        <ele>-3.23</ele>
        <time>2016-01-09T14:17:15Z</time>
      </trkpt>
      <trkpt lat="43.49979" lon="-1.38649">
        <ele>-3.23</ele>
        <time>2016-01-09T14:17:29Z</time>
      </trkpt>
      <trkpt lat="43.49853" lon="-1.38597">
        <ele>-3.23</ele>
        <time>2016-01-09T14:17:47Z</time>
      </trkpt>
      <trkpt lat="43.49797" lon="-1.38579">
        <ele>-2.27</ele>
        <time>2016-01-09T14:17:59Z</time>
      </trkpt>
      <trkpt lat="43.49795" lon="-1.38575">
        <ele>-1.79</ele>
        <time>2016-01-09T14:18:00Z</time>
      </trkpt>
      <trkpt lat="43.49794" lon="-1.3857">
        <ele>-1.3</ele>
        <time>2016-01-09T14:18:01Z</time>
      </trkpt>
      <trkpt lat="43.49794" lon="-1.38565">
        <ele>-1.3</ele>
        <time>2016-01-09T14:18:02Z</time>
      </trkpt>
      <trkpt lat="43.49797" lon="-1.38461">
        <ele>-2.27</ele>
        <time>2016-01-09T14:18:17Z</time>
      </trkpt>
      <trkpt lat="43.49803" lon="-1.38318">
        <ele>-2.27</ele>
        <time>2016-01-09T14:18:32Z</time>
      </trkpt>
      <trkpt lat="43.49789" lon="-1.38154">
        <ele>-2.27</ele>
        <time>2016-01-09T14:18:46Z</time>
      </trkpt>
      <trkpt lat="43.49778" lon="-1.37968">
        <ele>-1.79</ele>
        <time>2016-01-09T14:19:02Z</time>
      </trkpt>
      <trkpt lat="43.49754" lon="-1.37854">
        <ele>-2.75</ele>
        <time>2016-01-09T14:19:12Z</time>
      </trkpt>
      <trkpt lat="43.49726" lon="-1.37684">
        <ele>-2.27</ele>
        <time>2016-01-09T14:19:26Z</time>
      </trkpt>
      <trkpt lat="43.49706" lon="-1.37521">
        <ele>-2.27</ele>
        <time>2016-01-09T14:19:40Z</time>
      </trkpt>
      <trkpt lat="43.49685" lon="-1.37351">
        <ele>-2.75</ele>
        <time>2016-01-09T14:19:54Z</time>
      </trkpt>
      <trkpt lat="43.49664" lon="-1.37181">
        <ele>-2.75</ele>
        <time>2016-01-09T14:20:07Z</time>
      </trkpt>
      <trkpt lat="43.49654" lon="-1.37009">
        <ele>-2.75</ele>
        <time>2016-01-09T14:20:20Z</time>
      </trkpt>
      <trkpt lat="43.49653" lon="-1.36836">
        <ele>-2.75</ele>
        <time>2016-01-09T14:20:33Z</time>
      </trkpt>
      <trkpt lat="43.49674" lon="-1.36642">
        <ele>-2.75</ele>
        <time>2016-01-09T14:20:48Z</time>
      </trkpt>
      <trkpt lat="43.49722" lon="-1.36527">
        <ele>-2.27</ele>
        <time>2016-01-09T14:20:58Z</time>
      </trkpt>
      <trkpt lat="43.49842" lon="-1.36349">
        <ele>-3.23</ele>
        <time>2016-01-09T14:21:16Z</time>
      </trkpt>
      <trkpt lat="43.49943" lon="-1.36195">
        <ele>-3.23</ele>
        <time>2016-01-09T14:21:31Z</time>
      </trkpt>
      <trkpt lat="43.49989" lon="-1.36057">
        <ele>-3.23</ele>
        <time>2016-01-09T14:21:42Z</time>
      </trkpt>
      <trkpt lat="43.50026" lon="-1.35826">
        <ele>-3.23</ele>
        <time>2016-01-09T14:22:00Z</time>
      </trkpt>
      <trkpt lat="43.50069" lon="-1.35597">
        <ele>-3.71</ele>
        <time>2016-01-09T14:22:18Z</time>
      </trkpt>
      <trkpt lat="43.50089" lon="-1.35423">
        <ele>-2.75</ele>
        <time>2016-01-09T14:22:32Z</time>
      </trkpt>
      <trkpt lat="43.5009" lon="-1.35281">
        <ele>-2.75</ele>
        <time>2016-01-09T14:22:43Z</time>
      </trkpt>
      <trkpt lat="43.50099" lon="-1.35101">
        <ele>-3.23</ele>
        <time>2016-01-09T14:22:56Z</time>
      </trkpt>
      <trkpt lat="43.50131" lon="-1.34906">
        <ele>-3.23</ele>
        <time>2016-01-09T14:23:11Z</time>
      </trkpt>
      <trkpt lat="43.50168" lon="-1.34724">
        <ele>-2.27</ele>
        <time>2016-01-09T14:23:25Z</time>
      </trkpt>
      <trkpt lat="43.50204" lon="-1.34553">
        <ele>-2.75</ele>
        <time>2016-01-09T14:23:38Z</time>
      </trkpt>
      <trkpt lat="43.50211" lon="-1.34502">
        <ele>-3.23</ele>
        <time>2016-01-09T14:23:42Z</time>
      </trkpt>
      <trkpt lat="43.50214" lon="-1.3449">
        <ele>-2.75</ele>
        <time>2016-01-09T14:23:43Z</time>
      </trkpt>
      <trkpt lat="43.50249" lon="-1.34343">
        <ele>-2.27</ele>
        <time>2016-01-09T14:23:55Z</time>
      </trkpt>
      <trkpt lat="43.50253" lon="-1.34331">
        <ele>-2.75</ele>
        <time>2016-01-09T14:23:56Z</time>
      </trkpt>
      <trkpt lat="43.50258" lon="-1.3432">
        <ele>-2.75</ele>
        <time>2016-01-09T14:23:57Z</time>
      </trkpt>
      <trkpt lat="43.50278" lon="-1.34275">
        <ele>-2.75</ele>
        <time>2016-01-09T14:24:01Z</time>
      </trkpt>
      <trkpt lat="43.50281" lon="-1.34262">
        <ele>-2.75</ele>
        <time>2016-01-09T14:24:02Z</time>
      </trkpt>
      <trkpt lat="43.50326" lon="-1.34088">
        <ele>-2.75</ele>
        <time>2016-01-09T14:24:16Z</time>
      </trkpt>
      <trkpt lat="43.50348" lon="-1.33921">
        <ele>-2.75</ele>
        <time>2016-01-09T14:24:29Z</time>
      </trkpt>
      <trkpt lat="43.50366" lon="-1.33763">
        <ele>-2.75</ele>
        <time>2016-01-09T14:24:41Z</time>
      </trkpt>
      <trkpt lat="43.5037" lon="-1.33738">
        <ele>-2.75</ele>
        <time>2016-01-09T14:24:43Z</time>
      </trkpt>
      <trkpt lat="43.50378" lon="-1.33716">
        <ele>-2.75</ele>
        <time>2016-01-09T14:24:45Z</time>
      </trkpt>
      <trkpt lat="43.50384" lon="-1.33707">
        <ele>-2.75</ele>
        <time>2016-01-09T14:24:46Z</time>
      </trkpt>
      <trkpt lat="43.50396" lon="-1.33688">
        <ele>-2.75</ele>
        <time>2016-01-09T14:24:48Z</time>
      </trkpt>
      <trkpt lat="43.50401" lon="-1.33677">
        <ele>-2.75</ele>
        <time>2016-01-09T14:24:49Z</time>
      </trkpt>
      <trkpt lat="43.50405" lon="-1.33665">
        <ele>-3.23</ele>
        <time>2016-01-09T14:24:50Z</time>
      </trkpt>
      <trkpt lat="43.50407" lon="-1.33652">
        <ele>-3.23</ele>
        <time>2016-01-09T14:24:51Z</time>
      </trkpt>
      <trkpt lat="43.50408" lon="-1.33639">
        <ele>-3.23</ele>
        <time>2016-01-09T14:24:52Z</time>
      </trkpt>
      <trkpt lat="43.50431" lon="-1.33456">
        <ele>-2.75</ele>
        <time>2016-01-09T14:25:06Z</time>
      </trkpt>
      <trkpt lat="43.50453" lon="-1.33252">
        <ele>-2.75</ele>
        <time>2016-01-09T14:25:22Z</time>
      </trkpt>
      <trkpt lat="43.50479" lon="-1.33103">
        <ele>-2.75</ele>
        <time>2016-01-09T14:25:34Z</time>
      </trkpt>
      <trkpt lat="43.50514" lon="-1.32912">
        <ele>-2.75</ele>
        <time>2016-01-09T14:25:49Z</time>
      </trkpt>
      <trkpt lat="43.50534" lon="-1.32748">
        <ele>-2.75</ele>
        <time>2016-01-09T14:26:02Z</time>
      </trkpt>
      <trkpt lat="43.5056" lon="-1.32621">
        <ele>-2.75</ele>
        <time>2016-01-09T14:26:12Z</time>
      </trkpt>
      <trkpt lat="43.50563" lon="-1.32608">
        <ele>-2.75</ele>
        <time>2016-01-09T14:26:13Z</time>
      </trkpt>
      <trkpt lat="43.50571" lon="-1.32569">
        <ele>-2.27</ele>
        <time>2016-01-09T14:26:16Z</time>
      </trkpt>
      <trkpt lat="43.50575" lon="-1.32556">
        <ele>-2.75</ele>
        <time>2016-01-09T14:26:17Z</time>
      </trkpt>
      <trkpt lat="43.50587" lon="-1.32517">
        <ele>-2.75</ele>
        <time>2016-01-09T14:26:20Z</time>
      </trkpt>
      <trkpt lat="43.50588" lon="-1.32503">
        <ele>-2.75</ele>
        <time>2016-01-09T14:26:21Z</time>
      </trkpt>
      <trkpt lat="43.50587" lon="-1.32489">
        <ele>-2.75</ele>
        <time>2016-01-09T14:26:22Z</time>
      </trkpt>
      <trkpt lat="43.50576" lon="-1.32346">
        <ele>-2.27</ele>
        <time>2016-01-09T14:26:32Z</time>
      </trkpt>
      <trkpt lat="43.50574" lon="-1.32331">
        <ele>-2.75</ele>
        <time>2016-01-09T14:26:33Z</time>
      </trkpt>
      <trkpt lat="43.50574" lon="-1.32316">
        <ele>-2.75</ele>
        <time>2016-01-09T14:26:34Z</time>
      </trkpt>
      <trkpt lat="43.50581" lon="-1.32224">
        <ele>-2.75</ele>
        <time>2016-01-09T14:26:41Z</time>
      </trkpt>
      <trkpt lat="43.5058" lon="-1.32211">
        <ele>-2.75</ele>
        <time>2016-01-09T14:26:42Z</time>
      </trkpt>
      <trkpt lat="43.50579" lon="-1.32199">
        <ele>-2.27</ele>
        <time>2016-01-09T14:26:43Z</time>
      </trkpt>
      <trkpt lat="43.50576" lon="-1.32187">
        <ele>-2.75</ele>
        <time>2016-01-09T14:26:44Z</time>
      </trkpt>
      <trkpt lat="43.50572" lon="-1.32175">
        <ele>-2.75</ele>
        <time>2016-01-09T14:26:45Z</time>
      </trkpt>
      <trkpt lat="43.50567" lon="-1.32164">
        <ele>-2.75</ele>
        <time>2016-01-09T14:26:46Z</time>
      </trkpt>
      <trkpt lat="43.50559" lon="-1.32139">
        <ele>-2.75</ele>
        <time>2016-01-09T14:26:48Z</time>
      </trkpt>
      <trkpt lat="43.50557" lon="-1.32125">
        <ele>-3.23</ele>
        <time>2016-01-09T14:26:49Z</time>
      </trkpt>
      <trkpt lat="43.50533" lon="-1.31951">
        <ele>-2.27</ele>
        <time>2016-01-09T14:27:02Z</time>
      </trkpt>
      <trkpt lat="43.50509" lon="-1.31743">
        <ele>-3.71</ele>
        <time>2016-01-09T14:27:17Z</time>
      </trkpt>
      <trkpt lat="43.50494" lon="-1.31568">
        <ele>-2.75</ele>
        <time>2016-01-09T14:27:30Z</time>
      </trkpt>
      <trkpt lat="43.50487" lon="-1.3143">
        <ele>-3.23</ele>
        <time>2016-01-09T14:27:40Z</time>
      </trkpt>
      <trkpt lat="43.50461" lon="-1.31254">
        <ele>-3.71</ele>
        <time>2016-01-09T14:27:53Z</time>
      </trkpt>
      <trkpt lat="43.50436" lon="-1.31072">
        <ele>-4.19</ele>
        <time>2016-01-09T14:28:07Z</time>
      </trkpt>
      <trkpt lat="43.50425" lon="-1.30894">
        <ele>-3.23</ele>
        <time>2016-01-09T14:28:21Z</time>
      </trkpt>
      <trkpt lat="43.50416" lon="-1.30688">
        <ele>-3.71</ele>
        <time>2016-01-09T14:28:38Z</time>
      </trkpt>
      <trkpt lat="43.5041" lon="-1.3058">
        <ele>-3.23</ele>
        <time>2016-01-09T14:28:47Z</time>
      </trkpt>
      <trkpt lat="43.50409" lon="-1.30568">
        <ele>-3.71</ele>
        <time>2016-01-09T14:28:48Z</time>
      </trkpt>
      <trkpt lat="43.50384" lon="-1.30408">
        <ele>-3.23</ele>
        <time>2016-01-09T14:29:01Z</time>
      </trkpt>
      <trkpt lat="43.50352" lon="-1.30216">
        <ele>-3.71</ele>
        <time>2016-01-09T14:29:17Z</time>
      </trkpt>
      <trkpt lat="43.50349" lon="-1.3017">
        <ele>-4.19</ele>
        <time>2016-01-09T14:29:21Z</time>
      </trkpt>
      <trkpt lat="43.5035" lon="-1.30158">
        <ele>-3.71</ele>
        <time>2016-01-09T14:29:22Z</time>
      </trkpt>
      <trkpt lat="43.50353" lon="-1.30147">
        <ele>-4.19</ele>
        <time>2016-01-09T14:29:23Z</time>
      </trkpt>
      <trkpt lat="43.50358" lon="-1.30137">
        <ele>-3.71</ele>
        <time>2016-01-09T14:29:24Z</time>
      </trkpt>
      <trkpt lat="43.50364" lon="-1.30128">
        <ele>-3.71</ele>
        <time>2016-01-09T14:29:25Z</time>
      </trkpt>
      <trkpt lat="43.5037" lon="-1.30119">
        <ele>-3.71</ele>
        <time>2016-01-09T14:29:26Z</time>
      </trkpt>
      <trkpt lat="43.50374" lon="-1.30109">
        <ele>-3.71</ele>
        <time>2016-01-09T14:29:27Z</time>
      </trkpt>
      <trkpt lat="43.50377" lon="-1.30098">
        <ele>-4.19</ele>
        <time>2016-01-09T14:29:28Z</time>
      </trkpt>
      <trkpt lat="43.50377" lon="-1.30087">
        <ele>-3.71</ele>
        <time>2016-01-09T14:29:29Z</time>
      </trkpt>
      <trkpt lat="43.50376" lon="-1.30076">
        <ele>-4.19</ele>
        <time>2016-01-09T14:29:30Z</time>
      </trkpt>
      <trkpt lat="43.50373" lon="-1.30064">
        <ele>-4.19</ele>
        <time>2016-01-09T14:29:31Z</time>
      </trkpt>
      <trkpt lat="43.50369" lon="-1.30054">
        <ele>-3.71</ele>
        <time>2016-01-09T14:29:32Z</time>
      </trkpt>
      <trkpt lat="43.5034" lon="-1.29909">
        <ele>-3.71</ele>
        <time>2016-01-09T14:29:45Z</time>
      </trkpt>
      <trkpt lat="43.50327" lon="-1.29821">
        <ele>-3.71</ele>
        <time>2016-01-09T14:29:53Z</time>
      </trkpt>
      <trkpt lat="43.50323" lon="-1.29811">
        <ele>-4.19</ele>
        <time>2016-01-09T14:29:54Z</time>
      </trkpt>
      <trkpt lat="43.50318" lon="-1.29802">
        <ele>-4.19</ele>
        <time>2016-01-09T14:29:55Z</time>
      </trkpt>
      <trkpt lat="43.50302" lon="-1.29777">
        <ele>-4.19</ele>
        <time>2016-01-09T14:29:58Z</time>
      </trkpt>
      <trkpt lat="43.50298" lon="-1.29767">
        <ele>-4.19</ele>
        <time>2016-01-09T14:29:59Z</time>
      </trkpt>
      <trkpt lat="43.50296" lon="-1.29756">
        <ele>-4.19</ele>
        <time>2016-01-09T14:30:00Z</time>
      </trkpt>
      <trkpt lat="43.50294" lon="-1.29745">
        <ele>-4.19</ele>
        <time>2016-01-09T14:30:01Z</time>
      </trkpt>
      <trkpt lat="43.50295" lon="-1.29734">
        <ele>-4.19</ele>
        <time>2016-01-09T14:30:02Z</time>
      </trkpt>
      <trkpt lat="43.50296" lon="-1.29722">
        <ele>-4.19</ele>
        <time>2016-01-09T14:30:03Z</time>
      </trkpt>
      <trkpt lat="43.50298" lon="-1.29711">
        <ele>-4.19</ele>
        <time>2016-01-09T14:30:04Z</time>
      </trkpt>
      <trkpt lat="43.50307" lon="-1.29552">
        <ele>-4.67</ele>
        <time>2016-01-09T14:30:18Z</time>
      </trkpt>
      <trkpt lat="43.50306" lon="-1.29353">
        <ele>-4.67</ele>
        <time>2016-01-09T14:30:35Z</time>
      </trkpt>
      <trkpt lat="43.50308" lon="-1.29307">
        <ele>-4.67</ele>
        <time>2016-01-09T14:30:39Z</time>
      </trkpt>
      <trkpt lat="43.50308" lon="-1.29296">
        <ele>-5.15</ele>
        <time>2016-01-09T14:30:40Z</time>
      </trkpt>
      <trkpt lat="43.50305" lon="-1.29286">
        <ele>-4.67</ele>
        <time>2016-01-09T14:30:41Z</time>
      </trkpt>
      <trkpt lat="43.50302" lon="-1.29276">
        <ele>-4.67</ele>
        <time>2016-01-09T14:30:42Z</time>
      </trkpt>
      <trkpt lat="43.50299" lon="-1.29268">
        <ele>-4.19</ele>
        <time>2016-01-09T14:30:43Z</time>
      </trkpt>
      <trkpt lat="43.50299" lon="-1.29258">
        <ele>-4.19</ele>
        <time>2016-01-09T14:30:44Z</time>
      </trkpt>
      <trkpt lat="43.503" lon="-1.29249">
        <ele>-4.19</ele>
        <time>2016-01-09T14:30:45Z</time>
      </trkpt>
      <trkpt lat="43.50301" lon="-1.29239">
        <ele>-4.67</ele>
        <time>2016-01-09T14:30:46Z</time>
      </trkpt>
      <trkpt lat="43.50302" lon="-1.29229">
        <ele>-4.19</ele>
        <time>2016-01-09T14:30:47Z</time>
      </trkpt>
      <trkpt lat="43.50302" lon="-1.29218">
        <ele>-4.67</ele>
        <time>2016-01-09T14:30:48Z</time>
      </trkpt>
      <trkpt lat="43.50301" lon="-1.29207">
        <ele>-4.19</ele>
        <time>2016-01-09T14:30:49Z</time>
      </trkpt>
      <trkpt lat="43.50299" lon="-1.29196">
        <ele>-4.67</ele>
        <time>2016-01-09T14:30:50Z</time>
      </trkpt>
      <trkpt lat="43.50297" lon="-1.29186">
        <ele>-4.67</ele>
        <time>2016-01-09T14:30:51Z</time>
      </trkpt>
      <trkpt lat="43.50279" lon="-1.29011">
        <ele>-4.19</ele>
        <time>2016-01-09T14:31:07Z</time>
      </trkpt>
      <trkpt lat="43.50271" lon="-1.28828">
        <ele>-4.67</ele>
        <time>2016-01-09T14:31:23Z</time>
      </trkpt>
      <trkpt lat="43.50272" lon="-1.28671">
        <ele>-3.71</ele>
        <time>2016-01-09T14:31:37Z</time>
      </trkpt>
      <trkpt lat="43.50302" lon="-1.28515">
        <ele>-2.75</ele>
        <time>2016-01-09T14:31:52Z</time>
      </trkpt>
      <trkpt lat="43.50309" lon="-1.28463">
        <ele>-2.27</ele>
        <time>2016-01-09T14:31:57Z</time>
      </trkpt>
      <trkpt lat="43.50311" lon="-1.28452">
        <ele>-2.27</ele>
        <time>2016-01-09T14:31:58Z</time>
      </trkpt>
      <trkpt lat="43.50315" lon="-1.28442">
        <ele>-2.27</ele>
        <time>2016-01-09T14:31:59Z</time>
      </trkpt>
      <trkpt lat="43.5032" lon="-1.28433">
        <ele>-2.75</ele>
        <time>2016-01-09T14:32:00Z</time>
      </trkpt>
      <trkpt lat="43.50327" lon="-1.28426">
        <ele>-2.75</ele>
        <time>2016-01-09T14:32:01Z</time>
      </trkpt>
      <trkpt lat="43.50334" lon="-1.28421">
        <ele>-2.75</ele>
        <time>2016-01-09T14:32:02Z</time>
      </trkpt>
      <trkpt lat="43.50343" lon="-1.28419">
        <ele>-3.23</ele>
        <time>2016-01-09T14:32:03Z</time>
      </trkpt>
      <trkpt lat="43.50352" lon="-1.2842">
        <ele>-3.23</ele>
        <time>2016-01-09T14:32:04Z</time>
      </trkpt>
      <trkpt lat="43.50361" lon="-1.28421">
        <ele>-3.23</ele>
        <time>2016-01-09T14:32:05Z</time>
      </trkpt>
      <trkpt lat="43.5037" lon="-1.28424">
        <ele>-3.71</ele>
        <time>2016-01-09T14:32:06Z</time>
      </trkpt>
      <trkpt lat="43.50507" lon="-1.28462">
        <ele>-4.19</ele>
        <time>2016-01-09T14:32:21Z</time>
      </trkpt>
      <trkpt lat="43.50667" lon="-1.28505">
        <ele>-4.67</ele>
        <time>2016-01-09T14:32:37Z</time>
      </trkpt>
      <trkpt lat="43.50737" lon="-1.28515">
        <ele>-4.19</ele>
        <time>2016-01-09T14:32:44Z</time>
      </trkpt>
      <trkpt lat="43.50883" lon="-1.28492">
        <ele>-3.71</ele>
        <time>2016-01-09T14:33:00Z</time>
      </trkpt>
      <trkpt lat="43.51021" lon="-1.28466">
        <ele>-3.71</ele>
        <time>2016-01-09T14:33:16Z</time>
      </trkpt>
      <trkpt lat="43.51134" lon="-1.28469">
        <ele>-3.23</ele>
        <time>2016-01-09T14:33:29Z</time>
      </trkpt>
      <trkpt lat="43.51236" lon="-1.28486">
        <ele>-3.71</ele>
        <time>2016-01-09T14:33:41Z</time>
      </trkpt>
      <trkpt lat="43.51352" lon="-1.28518">
        <ele>-1.3</ele>
        <time>2016-01-09T14:33:56Z</time>
      </trkpt>
      <trkpt lat="43.51371" lon="-1.28523">
        <ele>0.14</ele>
        <time>2016-01-09T14:33:59Z</time>
      </trkpt>
      <trkpt lat="43.51419" lon="-1.28536">
        <ele>3.02</ele>
        <time>2016-01-09T14:34:08Z</time>
      </trkpt>
      <trkpt lat="43.51462" lon="-1.28547">
        <ele>6.39</ele>
        <time>2016-01-09T14:34:19Z</time>
      </trkpt>
      <trkpt lat="43.51504" lon="-1.28555">
        <ele>9.27</ele>
        <time>2016-01-09T14:34:31Z</time>
      </trkpt>
      <trkpt lat="43.51546" lon="-1.28555">
        <ele>12.63</ele>
        <time>2016-01-09T14:34:44Z</time>
      </trkpt>
      <trkpt lat="43.5159" lon="-1.28549">
        <ele>15.52</ele>
        <time>2016-01-09T14:34:57Z</time>
      </trkpt>
      <trkpt lat="43.5164" lon="-1.28542">
        <ele>18.4</ele>
        <time>2016-01-09T14:35:12Z</time>
      </trkpt>
      <trkpt lat="43.5168" lon="-1.28536">
        <ele>21.77</ele>
        <time>2016-01-09T14:35:25Z</time>
      </trkpt>
      <trkpt lat="43.51715" lon="-1.28527">
        <ele>24.65</ele>
        <time>2016-01-09T14:35:37Z</time>
      </trkpt>
      <trkpt lat="43.51756" lon="-1.28515">
        <ele>28.02</ele>
        <time>2016-01-09T14:35:50Z</time>
      </trkpt>
      <trkpt lat="43.51791" lon="-1.28506">
        <ele>29.94</ele>
        <time>2016-01-09T14:36:01Z</time>
      </trkpt>
      <trkpt lat="43.51826" lon="-1.28496">
        <ele>32.34</ele>
        <time>2016-01-09T14:36:12Z</time>
      </trkpt>
      <trkpt lat="43.51867" lon="-1.28492">
        <ele>34.26</ele>
        <time>2016-01-09T14:36:24Z</time>
      </trkpt>
      <trkpt lat="43.51891" lon="-1.28498">
        <ele>34.26</ele>
        <time>2016-01-09T14:36:30Z</time>
      </trkpt>
      <trkpt lat="43.51896" lon="-1.28499">
        <ele>34.26</ele>
        <time>2016-01-09T14:36:31Z</time>
      </trkpt>
      <trkpt lat="43.51968" lon="-1.28527">
        <ele>34.26</ele>
        <time>2016-01-09T14:36:45Z</time>
      </trkpt>
      <trkpt lat="43.52009" lon="-1.28538">
        <ele>33.78</ele>
        <time>2016-01-09T14:36:52Z</time>
      </trkpt>
      <trkpt lat="43.52015" lon="-1.28538">
        <ele>34.26</ele>
        <time>2016-01-09T14:36:53Z</time>
      </trkpt>
      <trkpt lat="43.52022" lon="-1.28536">
        <ele>33.78</ele>
        <time>2016-01-09T14:36:54Z</time>
      </trkpt>
      <trkpt lat="43.52028" lon="-1.28534">
        <ele>34.26</ele>
        <time>2016-01-09T14:36:55Z</time>
      </trkpt>
      <trkpt lat="43.52034" lon="-1.28531">
        <ele>34.26</ele>
        <time>2016-01-09T14:36:56Z</time>
      </trkpt>
      <trkpt lat="43.5204" lon="-1.28527">
        <ele>34.26</ele>
        <time>2016-01-09T14:36:57Z</time>
      </trkpt>
      <trkpt lat="43.52045" lon="-1.28521">
        <ele>34.26</ele>
        <time>2016-01-09T14:36:58Z</time>
      </trkpt>
      <trkpt lat="43.5205" lon="-1.28515">
        <ele>34.26</ele>
        <time>2016-01-09T14:36:59Z</time>
      </trkpt>
      <trkpt lat="43.52114" lon="-1.28434">
        <ele>34.74</ele>
        <time>2016-01-09T14:37:13Z</time>
      </trkpt>
      <trkpt lat="43.52131" lon="-1.28418">
        <ele>35.23</ele>
        <time>2016-01-09T14:37:17Z</time>
      </trkpt>
      <trkpt lat="43.5215" lon="-1.28391">
        <ele>35.23</ele>
        <time>2016-01-09T14:37:28Z</time>
      </trkpt>
      <trkpt lat="43.5215" lon="-1.28393">
        <ele>35.23</ele>
        <time>2016-01-09T14:37:47Z</time>
      </trkpt>
      <trkpt lat="43.52151" lon="-1.28392">
        <ele>35.23</ele>
        <time>2016-01-09T14:38:07Z</time>
      </trkpt>
      <trkpt lat="43.52157" lon="-1.28386">
        <ele>35.23</ele>
        <time>2016-01-09T14:38:31Z</time>
      </trkpt>
      <trkpt lat="43.52193" lon="-1.28341">
        <ele>35.23</ele>
        <time>2016-01-09T14:38:43Z</time>
      </trkpt>
      <trkpt lat="43.52264" lon="-1.28255">
        <ele>33.78</ele>
        <time>2016-01-09T14:38:59Z</time>
      </trkpt>
      <trkpt lat="43.52369" lon="-1.28131">
        <ele>33.3</ele>
        <time>2016-01-09T14:39:18Z</time>
      </trkpt>
      <trkpt lat="43.52441" lon="-1.2805">
        <ele>33.78</ele>
        <time>2016-01-09T14:39:30Z</time>
      </trkpt>
      <trkpt lat="43.52448" lon="-1.28045">
        <ele>33.78</ele>
        <time>2016-01-09T14:39:31Z</time>
      </trkpt>
      <trkpt lat="43.52456" lon="-1.28041">
        <ele>33.78</ele>
        <time>2016-01-09T14:39:32Z</time>
      </trkpt>
      <trkpt lat="43.52463" lon="-1.28038">
        <ele>33.78</ele>
        <time>2016-01-09T14:39:33Z</time>
      </trkpt>
      <trkpt lat="43.52471" lon="-1.28036">
        <ele>33.78</ele>
        <time>2016-01-09T14:39:34Z</time>
      </trkpt>
      <trkpt lat="43.52582" lon="-1.28022">
        <ele>35.71</ele>
        <time>2016-01-09T14:39:49Z</time>
      </trkpt>
      <trkpt lat="43.52692" lon="-1.28">
        <ele>36.19</ele>
        <time>2016-01-09T14:40:04Z</time>
      </trkpt>
      <trkpt lat="43.5283" lon="-1.27962">
        <ele>37.63</ele>
        <time>2016-01-09T14:40:23Z</time>
      </trkpt>
      <trkpt lat="43.52961" lon="-1.27924">
        <ele>36.67</ele>
        <time>2016-01-09T14:40:40Z</time>
      </trkpt>
      <trkpt lat="43.53118" lon="-1.27881">
        <ele>33.78</ele>
        <time>2016-01-09T14:40:59Z</time>
      </trkpt>
      <trkpt lat="43.53219" lon="-1.27877">
        <ele>32.82</ele>
        <time>2016-01-09T14:41:10Z</time>
      </trkpt>
      <trkpt lat="43.53338" lon="-1.27905">
        <ele>32.34</ele>
        <time>2016-01-09T14:41:25Z</time>
      </trkpt>
      <trkpt lat="43.53442" lon="-1.27926">
        <ele>29.94</ele>
        <time>2016-01-09T14:41:37Z</time>
      </trkpt>
      <trkpt lat="43.53451" lon="-1.27926">
        <ele>29.94</ele>
        <time>2016-01-09T14:41:38Z</time>
      </trkpt>
      <trkpt lat="43.53468" lon="-1.27921">
        <ele>29.94</ele>
        <time>2016-01-09T14:41:40Z</time>
      </trkpt>
      <trkpt lat="43.53563" lon="-1.27858">
        <ele>28.98</ele>
        <time>2016-01-09T14:41:52Z</time>
      </trkpt>
      <trkpt lat="43.53629" lon="-1.27744">
        <ele>28.5</ele>
        <time>2016-01-09T14:42:03Z</time>
      </trkpt>
      <trkpt lat="43.53634" lon="-1.27734">
        <ele>28.5</ele>
        <time>2016-01-09T14:42:04Z</time>
      </trkpt>
      <trkpt lat="43.53641" lon="-1.27725">
        <ele>28.5</ele>
        <time>2016-01-09T14:42:05Z</time>
      </trkpt>
      <trkpt lat="43.53648" lon="-1.27717">
        <ele>28.98</ele>
        <time>2016-01-09T14:42:06Z</time>
      </trkpt>
      <trkpt lat="43.53656" lon="-1.27712">
        <ele>28.98</ele>
        <time>2016-01-09T14:42:07Z</time>
      </trkpt>
      <trkpt lat="43.53664" lon="-1.27709">
        <ele>29.46</ele>
        <time>2016-01-09T14:42:08Z</time>
      </trkpt>
      <trkpt lat="43.53673" lon="-1.27707">
        <ele>29.46</ele>
        <time>2016-01-09T14:42:09Z</time>
      </trkpt>
      <trkpt lat="43.53682" lon="-1.27706">
        <ele>29.94</ele>
        <time>2016-01-09T14:42:10Z</time>
      </trkpt>
      <trkpt lat="43.53691" lon="-1.27706">
        <ele>30.9</ele>
        <time>2016-01-09T14:42:11Z</time>
      </trkpt>
      <trkpt lat="43.53823" lon="-1.27705">
        <ele>31.38</ele>
        <time>2016-01-09T14:42:26Z</time>
      </trkpt>
      <trkpt lat="43.53974" lon="-1.27704">
        <ele>29.94</ele>
        <time>2016-01-09T14:42:43Z</time>
      </trkpt>
      <trkpt lat="43.54117" lon="-1.27706">
        <ele>29.94</ele>
        <time>2016-01-09T14:43:00Z</time>
      </trkpt>
      <trkpt lat="43.54195" lon="-1.27696">
        <ele>26.57</ele>
        <time>2016-01-09T14:43:09Z</time>
      </trkpt>
      <trkpt lat="43.54233" lon="-1.27678">
        <ele>23.69</ele>
        <time>2016-01-09T14:43:13Z</time>
      </trkpt>
      <trkpt lat="43.54243" lon="-1.27672">
        <ele>22.73</ele>
        <time>2016-01-09T14:43:14Z</time>
      </trkpt>
      <trkpt lat="43.54252" lon="-1.27663">
        <ele>21.77</ele>
        <time>2016-01-09T14:43:15Z</time>
      </trkpt>
      <trkpt lat="43.54261" lon="-1.27654">
        <ele>20.81</ele>
        <time>2016-01-09T14:43:16Z</time>
      </trkpt>
      <trkpt lat="43.54285" lon="-1.2762">
        <ele>17.44</ele>
        <time>2016-01-09T14:43:19Z</time>
      </trkpt>
      <trkpt lat="43.54306" lon="-1.27575">
        <ele>15.04</ele>
        <time>2016-01-09T14:43:22Z</time>
      </trkpt>
      <trkpt lat="43.5433" lon="-1.27512">
        <ele>11.67</ele>
        <time>2016-01-09T14:43:26Z</time>
      </trkpt>
      <trkpt lat="43.54338" lon="-1.27497">
        <ele>10.23</ele>
        <time>2016-01-09T14:43:27Z</time>
      </trkpt>
      <trkpt lat="43.54348" lon="-1.27487">
        <ele>9.27</ele>
        <time>2016-01-09T14:43:28Z</time>
      </trkpt>
      <trkpt lat="43.54358" lon="-1.27479">
        <ele>8.31</ele>
        <time>2016-01-09T14:43:29Z</time>
      </trkpt>
      <trkpt lat="43.54369" lon="-1.27473">
        <ele>7.83</ele>
        <time>2016-01-09T14:43:30Z</time>
      </trkpt>
      <trkpt lat="43.54476" lon="-1.27413">
        <ele>6.39</ele>
        <time>2016-01-09T14:43:39Z</time>
      </trkpt>
      <trkpt lat="43.54497" lon="-1.27406">
        <ele>6.87</ele>
        <time>2016-01-09T14:43:41Z</time>
      </trkpt>
      <trkpt lat="43.5456" lon="-1.27393">
        <ele>9.75</ele>
        <time>2016-01-09T14:43:47Z</time>
      </trkpt>
      <trkpt lat="43.54593" lon="-1.2738">
        <ele>13.12</ele>
        <time>2016-01-09T14:43:51Z</time>
      </trkpt>
      <trkpt lat="43.54632" lon="-1.27363">
        <ele>16.48</ele>
        <time>2016-01-09T14:43:57Z</time>
      </trkpt>
      <trkpt lat="43.54653" lon="-1.27352">
        <ele>18.4</ele>
        <time>2016-01-09T14:44:01Z</time>
      </trkpt>
      <trkpt lat="43.54669" lon="-1.27344">
        <ele>19.84</ele>
        <time>2016-01-09T14:44:05Z</time>
      </trkpt>
      <trkpt lat="43.54694" lon="-1.27342">
        <ele>22.73</ele>
        <time>2016-01-09T14:44:11Z</time>
      </trkpt>
      <trkpt lat="43.54698" lon="-1.27343">
        <ele>22.25</ele>
        <time>2016-01-09T14:44:12Z</time>
      </trkpt>
      <trkpt lat="43.54702" lon="-1.27345">
        <ele>22.73</ele>
        <time>2016-01-09T14:44:13Z</time>
      </trkpt>
      <trkpt lat="43.54705" lon="-1.27348">
        <ele>22.73</ele>
        <time>2016-01-09T14:44:14Z</time>
      </trkpt>
      <trkpt lat="43.54709" lon="-1.2735">
        <ele>23.21</ele>
        <time>2016-01-09T14:44:15Z</time>
      </trkpt>
      <trkpt lat="43.54713" lon="-1.27353">
        <ele>23.69</ele>
        <time>2016-01-09T14:44:16Z</time>
      </trkpt>
      <trkpt lat="43.54716" lon="-1.27356">
        <ele>23.69</ele>
        <time>2016-01-09T14:44:17Z</time>
      </trkpt>
      <trkpt lat="43.54719" lon="-1.2736">
        <ele>24.17</ele>
        <time>2016-01-09T14:44:18Z</time>
      </trkpt>
      <trkpt lat="43.5473" lon="-1.27376">
        <ele>24.65</ele>
        <time>2016-01-09T14:44:22Z</time>
      </trkpt>
      <trkpt lat="43.54733" lon="-1.2738">
        <ele>25.13</ele>
        <time>2016-01-09T14:44:23Z</time>
      </trkpt>
      <trkpt lat="43.54735" lon="-1.27385">
        <ele>25.61</ele>
        <time>2016-01-09T14:44:24Z</time>
      </trkpt>
      <trkpt lat="43.54742" lon="-1.27405">
        <ele>26.57</ele>
        <time>2016-01-09T14:44:28Z</time>
      </trkpt>
      <trkpt lat="43.54743" lon="-1.27411">
        <ele>26.57</ele>
        <time>2016-01-09T14:44:29Z</time>
      </trkpt>
      <trkpt lat="43.54753" lon="-1.27444">
        <ele>28.02</ele>
        <time>2016-01-09T14:44:35Z</time>
      </trkpt>
      <trkpt lat="43.54755" lon="-1.27449">
        <ele>28.02</ele>
        <time>2016-01-09T14:44:36Z</time>
      </trkpt>
      <trkpt lat="43.54762" lon="-1.27464">
        <ele>28.5</ele>
        <time>2016-01-09T14:44:39Z</time>
      </trkpt>
      <trkpt lat="43.54765" lon="-1.27469">
        <ele>28.5</ele>
        <time>2016-01-09T14:44:40Z</time>
      </trkpt>
      <trkpt lat="43.54771" lon="-1.27478">
        <ele>29.46</ele>
        <time>2016-01-09T14:44:42Z</time>
      </trkpt>
      <trkpt lat="43.54774" lon="-1.27482">
        <ele>29.46</ele>
        <time>2016-01-09T14:44:43Z</time>
      </trkpt>
      <trkpt lat="43.54813" lon="-1.2754">
        <ele>32.82</ele>
        <time>2016-01-09T14:44:56Z</time>
      </trkpt>
      <trkpt lat="43.54856" lon="-1.2761">
        <ele>35.71</ele>
        <time>2016-01-09T14:45:11Z</time>
      </trkpt>
      <trkpt lat="43.54859" lon="-1.27615">
        <ele>35.71</ele>
        <time>2016-01-09T14:45:12Z</time>
      </trkpt>
      <trkpt lat="43.54887" lon="-1.27637">
        <ele>35.23</ele>
        <time>2016-01-09T14:45:18Z</time>
      </trkpt>
      <trkpt lat="43.54892" lon="-1.27639">
        <ele>35.23</ele>
        <time>2016-01-09T14:45:19Z</time>
      </trkpt>
      <trkpt lat="43.54957" lon="-1.27658">
        <ele>35.23</ele>
        <time>2016-01-09T14:45:31Z</time>
      </trkpt>
      <trkpt lat="43.55049" lon="-1.27686">
        <ele>33.78</ele>
        <time>2016-01-09T14:45:44Z</time>
      </trkpt>
      <trkpt lat="43.55073" lon="-1.277">
        <ele>32.34</ele>
        <time>2016-01-09T14:45:47Z</time>
      </trkpt>
      <trkpt lat="43.55081" lon="-1.27706">
        <ele>31.38</ele>
        <time>2016-01-09T14:45:48Z</time>
      </trkpt>
      <trkpt lat="43.55116" lon="-1.27741">
        <ele>27.53</ele>
        <time>2016-01-09T14:45:52Z</time>
      </trkpt>
      <trkpt lat="43.55126" lon="-1.2775">
        <ele>26.57</ele>
        <time>2016-01-09T14:45:53Z</time>
      </trkpt>
      <trkpt lat="43.55136" lon="-1.27757">
        <ele>25.61</ele>
        <time>2016-01-09T14:45:54Z</time>
      </trkpt>
      <trkpt lat="43.55148" lon="-1.27761">
        <ele>24.17</ele>
        <time>2016-01-09T14:45:55Z</time>
      </trkpt>
      <trkpt lat="43.5516" lon="-1.27764">
        <ele>22.73</ele>
        <time>2016-01-09T14:45:56Z</time>
      </trkpt>
      <trkpt lat="43.55173" lon="-1.27764">
        <ele>21.29</ele>
        <time>2016-01-09T14:45:57Z</time>
      </trkpt>
      <trkpt lat="43.55186" lon="-1.2776">
        <ele>19.84</ele>
        <time>2016-01-09T14:45:58Z</time>
      </trkpt>
      <trkpt lat="43.55198" lon="-1.27754">
        <ele>18.88</ele>
        <time>2016-01-09T14:45:59Z</time>
      </trkpt>
      <trkpt lat="43.55211" lon="-1.27746">
        <ele>17.92</ele>
        <time>2016-01-09T14:46:00Z</time>
      </trkpt>
      <trkpt lat="43.55262" lon="-1.27712">
        <ele>13.12</ele>
        <time>2016-01-09T14:46:04Z</time>
      </trkpt>
      <trkpt lat="43.55338" lon="-1.27647">
        <ele>15.52</ele>
        <time>2016-01-09T14:46:11Z</time>
      </trkpt>
      <trkpt lat="43.55346" lon="-1.27639">
        <ele>16</ele>
        <time>2016-01-09T14:46:12Z</time>
      </trkpt>
      <trkpt lat="43.55378" lon="-1.27611">
        <ele>18.88</ele>
        <time>2016-01-09T14:46:16Z</time>
      </trkpt>
      <trkpt lat="43.55413" lon="-1.27594">
        <ele>22.25</ele>
        <time>2016-01-09T14:46:21Z</time>
      </trkpt>
      <trkpt lat="43.55419" lon="-1.27592">
        <ele>23.21</ele>
        <time>2016-01-09T14:46:22Z</time>
      </trkpt>
      <trkpt lat="43.55425" lon="-1.2759">
        <ele>23.69</ele>
        <time>2016-01-09T14:46:23Z</time>
      </trkpt>
      <trkpt lat="43.55457" lon="-1.27578">
        <ele>27.05</ele>
        <time>2016-01-09T14:46:29Z</time>
      </trkpt>
      <trkpt lat="43.55461" lon="-1.27577">
        <ele>27.53</ele>
        <time>2016-01-09T14:46:30Z</time>
      </trkpt>
      <trkpt lat="43.5547" lon="-1.27575">
        <ele>28.5</ele>
        <time>2016-01-09T14:46:32Z</time>
      </trkpt>
      <trkpt lat="43.55479" lon="-1.27572">
        <ele>29.46</ele>
        <time>2016-01-09T14:46:34Z</time>
      </trkpt>
      <trkpt lat="43.55483" lon="-1.27571">
        <ele>29.94</ele>
        <time>2016-01-09T14:46:35Z</time>
      </trkpt>
      <trkpt lat="43.55526" lon="-1.27556">
        <ele>32.34</ele>
        <time>2016-01-09T14:46:45Z</time>
      </trkpt>
      <trkpt lat="43.55539" lon="-1.27553">
        <ele>32.82</ele>
        <time>2016-01-09T14:46:48Z</time>
      </trkpt>
      <trkpt lat="43.55615" lon="-1.27526">
        <ele>32.34</ele>
        <time>2016-01-09T14:47:02Z</time>
      </trkpt>
      <trkpt lat="43.55736" lon="-1.27463">
        <ele>32.82</ele>
        <time>2016-01-09T14:47:20Z</time>
      </trkpt>
      <trkpt lat="43.55851" lon="-1.27406">
        <ele>34.26</ele>
        <time>2016-01-09T14:47:37Z</time>
      </trkpt>
      <trkpt lat="43.55917" lon="-1.27387">
        <ele>34.26</ele>
        <time>2016-01-09T14:47:47Z</time>
      </trkpt>
      <trkpt lat="43.55976" lon="-1.27385">
        <ele>33.3</ele>
        <time>2016-01-09T14:47:56Z</time>
      </trkpt>
      <trkpt lat="43.55981" lon="-1.27381">
        <ele>33.3</ele>
        <time>2016-01-09T14:47:57Z</time>
      </trkpt>
      <trkpt lat="43.55986" lon="-1.27375">
        <ele>33.3</ele>
        <time>2016-01-09T14:47:58Z</time>
      </trkpt>
      <trkpt lat="43.55989" lon="-1.27369">
        <ele>33.78</ele>
        <time>2016-01-09T14:47:59Z</time>
      </trkpt>
      <trkpt lat="43.55991" lon="-1.27363">
        <ele>33.78</ele>
        <time>2016-01-09T14:48:00Z</time>
      </trkpt>
      <trkpt lat="43.55992" lon="-1.27356">
        <ele>33.78</ele>
        <time>2016-01-09T14:48:01Z</time>
      </trkpt>
      <trkpt lat="43.56022" lon="-1.27256">
        <ele>34.74</ele>
        <time>2016-01-09T14:48:16Z</time>
      </trkpt>
      <trkpt lat="43.56024" lon="-1.27249">
        <ele>35.23</ele>
        <time>2016-01-09T14:48:17Z</time>
      </trkpt>
      <trkpt lat="43.56028" lon="-1.27243">
        <ele>34.74</ele>
        <time>2016-01-09T14:48:18Z</time>
      </trkpt>
      <trkpt lat="43.56034" lon="-1.2724">
        <ele>34.74</ele>
        <time>2016-01-09T14:48:19Z</time>
      </trkpt>
      <trkpt lat="43.5604" lon="-1.27239">
        <ele>35.23</ele>
        <time>2016-01-09T14:48:20Z</time>
      </trkpt>
      <trkpt lat="43.56046" lon="-1.27239">
        <ele>35.23</ele>
        <time>2016-01-09T14:48:21Z</time>
      </trkpt>
      <trkpt lat="43.5612" lon="-1.27224">
        <ele>34.74</ele>
        <time>2016-01-09T14:48:34Z</time>
      </trkpt>
      <trkpt lat="43.56199" lon="-1.27211">
        <ele>34.74</ele>
        <time>2016-01-09T14:48:49Z</time>
      </trkpt>
      <trkpt lat="43.56268" lon="-1.27194">
        <ele>34.26</ele>
        <time>2016-01-09T14:49:01Z</time>
      </trkpt>
      <trkpt lat="43.56332" lon="-1.27181">
        <ele>34.26</ele>
        <time>2016-01-09T14:49:14Z</time>
      </trkpt>
      <trkpt lat="43.56397" lon="-1.27175">
        <ele>33.78</ele>
        <time>2016-01-09T14:49:27Z</time>
      </trkpt>
      <trkpt lat="43.56484" lon="-1.27199">
        <ele>34.74</ele>
        <time>2016-01-09T14:49:41Z</time>
      </trkpt>
      <trkpt lat="43.56571" lon="-1.27276">
        <ele>32.82</ele>
        <time>2016-01-09T14:49:55Z</time>
      </trkpt>
      <trkpt lat="43.5668" lon="-1.27392">
        <ele>33.78</ele>
        <time>2016-01-09T14:50:11Z</time>
      </trkpt>
      <trkpt lat="43.56767" lon="-1.27512">
        <ele>32.82</ele>
        <time>2016-01-09T14:50:25Z</time>
      </trkpt>
      <trkpt lat="43.56808" lon="-1.27537">
        <ele>33.3</ele>
        <time>2016-01-09T14:50:30Z</time>
      </trkpt>
      <trkpt lat="43.56898" lon="-1.27546">
        <ele>35.23</ele>
        <time>2016-01-09T14:50:41Z</time>
      </trkpt>
      <trkpt lat="43.56957" lon="-1.2754">
        <ele>35.23</ele>
        <time>2016-01-09T14:50:49Z</time>
      </trkpt>
      <trkpt lat="43.57081" lon="-1.27489">
        <ele>35.71</ele>
        <time>2016-01-09T14:51:06Z</time>
      </trkpt>
      <trkpt lat="43.57199" lon="-1.27416">
        <ele>35.71</ele>
        <time>2016-01-09T14:51:23Z</time>
      </trkpt>
      <trkpt lat="43.5732" lon="-1.27336">
        <ele>37.15</ele>
        <time>2016-01-09T14:51:41Z</time>
      </trkpt>
      <trkpt lat="43.57444" lon="-1.27254">
        <ele>36.67</ele>
        <time>2016-01-09T14:51:59Z</time>
      </trkpt>
      <trkpt lat="43.57543" lon="-1.272">
        <ele>36.19</ele>
        <time>2016-01-09T14:52:12Z</time>
      </trkpt>
      <trkpt lat="43.57648" lon="-1.2719">
        <ele>35.71</ele>
        <time>2016-01-09T14:52:25Z</time>
      </trkpt>
      <trkpt lat="43.57765" lon="-1.27196">
        <ele>32.82</ele>
        <time>2016-01-09T14:52:39Z</time>
      </trkpt>
      <trkpt lat="43.57882" lon="-1.27178">
        <ele>32.34</ele>
        <time>2016-01-09T14:52:52Z</time>
      </trkpt>
      <trkpt lat="43.5789" lon="-1.27174">
        <ele>32.82</ele>
        <time>2016-01-09T14:52:53Z</time>
      </trkpt>
      <trkpt lat="43.57995" lon="-1.27138">
        <ele>34.74</ele>
        <time>2016-01-09T14:53:07Z</time>
      </trkpt>
      <trkpt lat="43.58105" lon="-1.27109">
        <ele>34.26</ele>
        <time>2016-01-09T14:53:21Z</time>
      </trkpt>
      <trkpt lat="43.58138" lon="-1.27099">
        <ele>33.78</ele>
        <time>2016-01-09T14:53:25Z</time>
      </trkpt>
      <trkpt lat="43.58145" lon="-1.27094">
        <ele>34.26</ele>
        <time>2016-01-09T14:53:26Z</time>
      </trkpt>
      <trkpt lat="43.58152" lon="-1.27087">
        <ele>34.26</ele>
        <time>2016-01-09T14:53:27Z</time>
      </trkpt>
      <trkpt lat="43.58159" lon="-1.27079">
        <ele>34.26</ele>
        <time>2016-01-09T14:53:28Z</time>
      </trkpt>
      <trkpt lat="43.58164" lon="-1.2707">
        <ele>34.26</ele>
        <time>2016-01-09T14:53:29Z</time>
      </trkpt>
      <trkpt lat="43.58169" lon="-1.2706">
        <ele>34.26</ele>
        <time>2016-01-09T14:53:30Z</time>
      </trkpt>
      <trkpt lat="43.58172" lon="-1.27049">
        <ele>34.26</ele>
        <time>2016-01-09T14:53:31Z</time>
      </trkpt>
      <trkpt lat="43.58173" lon="-1.27037">
        <ele>33.78</ele>
        <time>2016-01-09T14:53:32Z</time>
      </trkpt>
      <trkpt lat="43.58174" lon="-1.27026">
        <ele>34.26</ele>
        <time>2016-01-09T14:53:33Z</time>
      </trkpt>
      <trkpt lat="43.58173" lon="-1.27014">
        <ele>34.74</ele>
        <time>2016-01-09T14:53:34Z</time>
      </trkpt>
      <trkpt lat="43.58171" lon="-1.26877">
        <ele>34.74</ele>
        <time>2016-01-09T14:53:47Z</time>
      </trkpt>
      <trkpt lat="43.58175" lon="-1.26738">
        <ele>36.19</ele>
        <time>2016-01-09T14:54:00Z</time>
      </trkpt>
      <trkpt lat="43.58186" lon="-1.26642">
        <ele>36.19</ele>
        <time>2016-01-09T14:54:10Z</time>
      </trkpt>
      <trkpt lat="43.5819" lon="-1.26633">
        <ele>36.19</ele>
        <time>2016-01-09T14:54:11Z</time>
      </trkpt>
      <trkpt lat="43.58194" lon="-1.26626">
        <ele>36.67</ele>
        <time>2016-01-09T14:54:12Z</time>
      </trkpt>
      <trkpt lat="43.582" lon="-1.26621">
        <ele>36.19</ele>
        <time>2016-01-09T14:54:13Z</time>
      </trkpt>
      <trkpt lat="43.58206" lon="-1.26616">
        <ele>35.71</ele>
        <time>2016-01-09T14:54:14Z</time>
      </trkpt>
      <trkpt lat="43.58213" lon="-1.26614">
        <ele>35.71</ele>
        <time>2016-01-09T14:54:15Z</time>
      </trkpt>
      <trkpt lat="43.5822" lon="-1.26614">
        <ele>35.71</ele>
        <time>2016-01-09T14:54:16Z</time>
      </trkpt>
      <trkpt lat="43.58226" lon="-1.26613">
        <ele>35.71</ele>
        <time>2016-01-09T14:54:17Z</time>
      </trkpt>
      <trkpt lat="43.58282" lon="-1.2661">
        <ele>32.34</ele>
        <time>2016-01-09T14:54:24Z</time>
      </trkpt>
      <trkpt lat="43.58312" lon="-1.26608">
        <ele>28.98</ele>
        <time>2016-01-09T14:54:27Z</time>
      </trkpt>
      <trkpt lat="43.58356" lon="-1.26607">
        <ele>24.65</ele>
        <time>2016-01-09T14:54:31Z</time>
      </trkpt>
      <trkpt lat="43.58461" lon="-1.26641">
        <ele>22.25</ele>
        <time>2016-01-09T14:54:40Z</time>
      </trkpt>
      <trkpt lat="43.58502" lon="-1.26656">
        <ele>25.13</ele>
        <time>2016-01-09T14:54:44Z</time>
      </trkpt>
      <trkpt lat="43.58544" lon="-1.26675">
        <ele>28.5</ele>
        <time>2016-01-09T14:54:49Z</time>
      </trkpt>
      <trkpt lat="43.58577" lon="-1.26687">
        <ele>31.86</ele>
        <time>2016-01-09T14:54:54Z</time>
      </trkpt>
      <trkpt lat="43.58622" lon="-1.26702">
        <ele>35.23</ele>
        <time>2016-01-09T14:55:02Z</time>
      </trkpt>
      <trkpt lat="43.5872" lon="-1.26761">
        <ele>37.63</ele>
        <time>2016-01-09T14:55:21Z</time>
      </trkpt>
      <trkpt lat="43.58797" lon="-1.26823">
        <ele>39.55</ele>
        <time>2016-01-09T14:55:36Z</time>
      </trkpt>
      <trkpt lat="43.58882" lon="-1.26891">
        <ele>40.51</ele>
        <time>2016-01-09T14:55:51Z</time>
      </trkpt>
      <trkpt lat="43.58936" lon="-1.26936">
        <ele>40.99</ele>
        <time>2016-01-09T14:56:01Z</time>
      </trkpt>
      <trkpt lat="43.58986" lon="-1.26973">
        <ele>43.88</ele>
        <time>2016-01-09T14:56:11Z</time>
      </trkpt>
      <trkpt lat="43.58996" lon="-1.26978">
        <ele>44.84</ele>
        <time>2016-01-09T14:56:13Z</time>
      </trkpt>
      <trkpt lat="43.59001" lon="-1.2698">
        <ele>44.84</ele>
        <time>2016-01-09T14:56:14Z</time>
      </trkpt>
      <trkpt lat="43.59035" lon="-1.27">
        <ele>48.2</ele>
        <time>2016-01-09T14:56:23Z</time>
      </trkpt>
      <trkpt lat="43.59075" lon="-1.27022">
        <ele>51.57</ele>
        <time>2016-01-09T14:56:35Z</time>
      </trkpt>
      <trkpt lat="43.5912" lon="-1.27037">
        <ele>54.93</ele>
        <time>2016-01-09T14:56:48Z</time>
      </trkpt>
      <trkpt lat="43.59165" lon="-1.27043">
        <ele>57.82</ele>
        <time>2016-01-09T14:57:01Z</time>
      </trkpt>
      <trkpt lat="43.59226" lon="-1.27041">
        <ele>59.26</ele>
        <time>2016-01-09T14:57:16Z</time>
      </trkpt>
      <trkpt lat="43.59275" lon="-1.27036">
        <ele>59.26</ele>
        <time>2016-01-09T14:57:26Z</time>
      </trkpt>
      <trkpt lat="43.59334" lon="-1.27029">
        <ele>56.37</ele>
        <time>2016-01-09T14:57:35Z</time>
      </trkpt>
      <trkpt lat="43.59404" lon="-1.27022">
        <ele>53.01</ele>
        <time>2016-01-09T14:57:43Z</time>
      </trkpt>
      <trkpt lat="43.59442" lon="-1.27021">
        <ele>51.57</ele>
        <time>2016-01-09T14:57:47Z</time>
      </trkpt>
      <trkpt lat="43.59565" lon="-1.27043">
        <ele>53.49</ele>
        <time>2016-01-09T14:58:01Z</time>
      </trkpt>
      <trkpt lat="43.59687" lon="-1.27073">
        <ele>55.89</ele>
        <time>2016-01-09T14:58:17Z</time>
      </trkpt>
      <trkpt lat="43.59769" lon="-1.27097">
        <ele>53.01</ele>
        <time>2016-01-09T14:58:28Z</time>
      </trkpt>
      <trkpt lat="43.59826" lon="-1.27115">
        <ele>49.16</ele>
        <time>2016-01-09T14:58:34Z</time>
      </trkpt>
      <trkpt lat="43.59872" lon="-1.27131">
        <ele>45.8</ele>
        <time>2016-01-09T14:58:38Z</time>
      </trkpt>
      <trkpt lat="43.5993" lon="-1.27152">
        <ele>42.44</ele>
        <time>2016-01-09T14:58:43Z</time>
      </trkpt>
      <trkpt lat="43.59976" lon="-1.27175">
        <ele>40.03</ele>
        <time>2016-01-09T14:58:47Z</time>
      </trkpt>
      <trkpt lat="43.59987" lon="-1.27184">
        <ele>39.07</ele>
        <time>2016-01-09T14:58:48Z</time>
      </trkpt>
      <trkpt lat="43.59997" lon="-1.27194">
        <ele>38.59</ele>
        <time>2016-01-09T14:58:49Z</time>
      </trkpt>
      <trkpt lat="43.60006" lon="-1.27206">
        <ele>38.11</ele>
        <time>2016-01-09T14:58:50Z</time>
      </trkpt>
      <trkpt lat="43.60016" lon="-1.27218">
        <ele>37.15</ele>
        <time>2016-01-09T14:58:51Z</time>
      </trkpt>
      <trkpt lat="43.60045" lon="-1.27252">
        <ele>35.23</ele>
        <time>2016-01-09T14:58:54Z</time>
      </trkpt>
      <trkpt lat="43.60056" lon="-1.27261">
        <ele>34.26</ele>
        <time>2016-01-09T14:58:55Z</time>
      </trkpt>
      <trkpt lat="43.60104" lon="-1.27293">
        <ele>30.42</ele>
        <time>2016-01-09T14:58:59Z</time>
      </trkpt>
      <trkpt lat="43.60142" lon="-1.27316">
        <ele>27.05</ele>
        <time>2016-01-09T14:59:02Z</time>
      </trkpt>
      <trkpt lat="43.60168" lon="-1.27331">
        <ele>24.17</ele>
        <time>2016-01-09T14:59:04Z</time>
      </trkpt>
      <trkpt lat="43.6022" lon="-1.27353">
        <ele>23.21</ele>
        <time>2016-01-09T14:59:08Z</time>
      </trkpt>
      <trkpt lat="43.60233" lon="-1.27354">
        <ele>23.21</ele>
        <time>2016-01-09T14:59:09Z</time>
      </trkpt>
      <trkpt lat="43.60246" lon="-1.27354">
        <ele>23.21</ele>
        <time>2016-01-09T14:59:10Z</time>
      </trkpt>
      <trkpt lat="43.60258" lon="-1.27353">
        <ele>23.69</ele>
        <time>2016-01-09T14:59:11Z</time>
      </trkpt>
      <trkpt lat="43.6027" lon="-1.2735">
        <ele>24.17</ele>
        <time>2016-01-09T14:59:12Z</time>
      </trkpt>
      <trkpt lat="43.60322" lon="-1.27334">
        <ele>27.53</ele>
        <time>2016-01-09T14:59:17Z</time>
      </trkpt>
      <trkpt lat="43.60364" lon="-1.2732">
        <ele>30.9</ele>
        <time>2016-01-09T14:59:22Z</time>
      </trkpt>
      <trkpt lat="43.60406" lon="-1.27304">
        <ele>34.26</ele>
        <time>2016-01-09T14:59:28Z</time>
      </trkpt>
      <trkpt lat="43.60472" lon="-1.27291">
        <ele>37.63</ele>
        <time>2016-01-09T14:59:39Z</time>
      </trkpt>
      <trkpt lat="43.60506" lon="-1.27287">
        <ele>38.59</ele>
        <time>2016-01-09T14:59:45Z</time>
      </trkpt>
      <trkpt lat="43.60578" lon="-1.27267">
        <ele>41.95</ele>
        <time>2016-01-09T14:59:59Z</time>
      </trkpt>
      <trkpt lat="43.60653" lon="-1.27241">
        <ele>45.8</ele>
        <time>2016-01-09T15:00:13Z</time>
      </trkpt>
      <trkpt lat="43.60744" lon="-1.27195">
        <ele>46.28</ele>
        <time>2016-01-09T15:00:30Z</time>
      </trkpt>
      <trkpt lat="43.60819" lon="-1.27182">
        <ele>43.4</ele>
        <time>2016-01-09T15:00:40Z</time>
      </trkpt>
      <trkpt lat="43.60866" lon="-1.27183">
        <ele>39.55</ele>
        <time>2016-01-09T15:00:45Z</time>
      </trkpt>
      <trkpt lat="43.60919" lon="-1.27188">
        <ele>36.19</ele>
        <time>2016-01-09T15:00:50Z</time>
      </trkpt>
      <trkpt lat="43.60953" lon="-1.2719">
        <ele>34.74</ele>
        <time>2016-01-09T15:00:53Z</time>
      </trkpt>
      <trkpt lat="43.61066" lon="-1.27201">
        <ele>35.23</ele>
        <time>2016-01-09T15:01:04Z</time>
      </trkpt>
      <trkpt lat="43.61197" lon="-1.27196">
        <ele>34.74</ele>
        <time>2016-01-09T15:01:17Z</time>
      </trkpt>
      <trkpt lat="43.61318" lon="-1.27163">
        <ele>33.78</ele>
        <time>2016-01-09T15:01:29Z</time>
      </trkpt>
      <trkpt lat="43.61426" lon="-1.27128">
        <ele>33.3</ele>
        <time>2016-01-09T15:01:40Z</time>
      </trkpt>
      <trkpt lat="43.61434" lon="-1.27122">
        <ele>32.82</ele>
        <time>2016-01-09T15:01:41Z</time>
      </trkpt>
      <trkpt lat="43.61443" lon="-1.27114">
        <ele>32.82</ele>
        <time>2016-01-09T15:01:42Z</time>
      </trkpt>
      <trkpt lat="43.6145" lon="-1.27105">
        <ele>33.3</ele>
        <time>2016-01-09T15:01:43Z</time>
      </trkpt>
      <trkpt lat="43.61457" lon="-1.27095">
        <ele>32.82</ele>
        <time>2016-01-09T15:01:44Z</time>
      </trkpt>
      <trkpt lat="43.61463" lon="-1.27083">
        <ele>32.82</ele>
        <time>2016-01-09T15:01:45Z</time>
      </trkpt>
      <trkpt lat="43.61468" lon="-1.27071">
        <ele>32.34</ele>
        <time>2016-01-09T15:01:46Z</time>
      </trkpt>
      <trkpt lat="43.61538" lon="-1.26882">
        <ele>29.94</ele>
        <time>2016-01-09T15:02:01Z</time>
      </trkpt>
      <trkpt lat="43.61614" lon="-1.26724">
        <ele>30.42</ele>
        <time>2016-01-09T15:02:15Z</time>
      </trkpt>
      <trkpt lat="43.61726" lon="-1.26573">
        <ele>31.86</ele>
        <time>2016-01-09T15:02:33Z</time>
      </trkpt>
      <trkpt lat="43.61839" lon="-1.26437">
        <ele>32.34</ele>
        <time>2016-01-09T15:02:51Z</time>
      </trkpt>
      <trkpt lat="43.61972" lon="-1.26306">
        <ele>31.38</ele>
        <time>2016-01-09T15:03:11Z</time>
      </trkpt>
      <trkpt lat="43.62074" lon="-1.26251">
        <ele>31.86</ele>
        <time>2016-01-09T15:03:24Z</time>
      </trkpt>
      <trkpt lat="43.62202" lon="-1.26212">
        <ele>30.9</ele>
        <time>2016-01-09T15:03:38Z</time>
      </trkpt>
      <trkpt lat="43.62304" lon="-1.26183">
        <ele>30.42</ele>
        <time>2016-01-09T15:03:49Z</time>
      </trkpt>
      <trkpt lat="43.62395" lon="-1.26158">
        <ele>29.94</ele>
        <time>2016-01-09T15:03:59Z</time>
      </trkpt>
      <trkpt lat="43.6249" lon="-1.26115">
        <ele>29.46</ele>
        <time>2016-01-09T15:04:10Z</time>
      </trkpt>
      <trkpt lat="43.626" lon="-1.26036">
        <ele>28.98</ele>
        <time>2016-01-09T15:04:24Z</time>
      </trkpt>
      <trkpt lat="43.6264" lon="-1.26006">
        <ele>28.98</ele>
        <time>2016-01-09T15:04:29Z</time>
      </trkpt>
      <trkpt lat="43.62646" lon="-1.25998">
        <ele>28.98</ele>
        <time>2016-01-09T15:04:30Z</time>
      </trkpt>
      <trkpt lat="43.62651" lon="-1.2599">
        <ele>28.98</ele>
        <time>2016-01-09T15:04:31Z</time>
      </trkpt>
      <trkpt lat="43.62658" lon="-1.25984">
        <ele>28.98</ele>
        <time>2016-01-09T15:04:32Z</time>
      </trkpt>
      <trkpt lat="43.62666" lon="-1.25979">
        <ele>28.98</ele>
        <time>2016-01-09T15:04:33Z</time>
      </trkpt>
      <trkpt lat="43.62673" lon="-1.25974">
        <ele>28.98</ele>
        <time>2016-01-09T15:04:34Z</time>
      </trkpt>
      <trkpt lat="43.62681" lon="-1.25969">
        <ele>28.98</ele>
        <time>2016-01-09T15:04:35Z</time>
      </trkpt>
      <trkpt lat="43.62778" lon="-1.25881">
        <ele>28.98</ele>
        <time>2016-01-09T15:04:49Z</time>
      </trkpt>
      <trkpt lat="43.62877" lon="-1.25788">
        <ele>28.98</ele>
        <time>2016-01-09T15:05:04Z</time>
      </trkpt>
      <trkpt lat="43.62973" lon="-1.25699">
        <ele>27.05</ele>
        <time>2016-01-09T15:05:18Z</time>
      </trkpt>
      <trkpt lat="43.63068" lon="-1.25652">
        <ele>26.09</ele>
        <time>2016-01-09T15:05:29Z</time>
      </trkpt>
      <trkpt lat="43.63174" lon="-1.25616">
        <ele>26.09</ele>
        <time>2016-01-09T15:05:41Z</time>
      </trkpt>
      <trkpt lat="43.63278" lon="-1.25583">
        <ele>28.5</ele>
        <time>2016-01-09T15:05:54Z</time>
      </trkpt>
      <trkpt lat="43.63413" lon="-1.25542">
        <ele>28.5</ele>
        <time>2016-01-09T15:06:10Z</time>
      </trkpt>
      <trkpt lat="43.63525" lon="-1.25508">
        <ele>28.5</ele>
        <time>2016-01-09T15:06:23Z</time>
      </trkpt>
      <trkpt lat="43.6368" lon="-1.25461">
        <ele>28.98</ele>
        <time>2016-01-09T15:06:40Z</time>
      </trkpt>
      <trkpt lat="43.63797" lon="-1.25427">
        <ele>28.98</ele>
        <time>2016-01-09T15:06:53Z</time>
      </trkpt>
      <trkpt lat="43.63889" lon="-1.25397">
        <ele>28.98</ele>
        <time>2016-01-09T15:07:04Z</time>
      </trkpt>
      <trkpt lat="43.64014" lon="-1.25359">
        <ele>29.94</ele>
        <time>2016-01-09T15:07:19Z</time>
      </trkpt>
      <trkpt lat="43.64131" lon="-1.25321">
        <ele>30.9</ele>
        <time>2016-01-09T15:07:33Z</time>
      </trkpt>
      <trkpt lat="43.64243" lon="-1.25269">
        <ele>30.42</ele>
        <time>2016-01-09T15:07:47Z</time>
      </trkpt>
      <trkpt lat="43.6434" lon="-1.25223">
        <ele>30.9</ele>
        <time>2016-01-09T15:07:59Z</time>
      </trkpt>
      <trkpt lat="43.64446" lon="-1.25173">
        <ele>30.42</ele>
        <time>2016-01-09T15:08:12Z</time>
      </trkpt>
      <trkpt lat="43.64576" lon="-1.25113">
        <ele>30.42</ele>
        <time>2016-01-09T15:08:28Z</time>
      </trkpt>
      <trkpt lat="43.64639" lon="-1.25078">
        <ele>29.94</ele>
        <time>2016-01-09T15:08:36Z</time>
      </trkpt>
      <trkpt lat="43.64646" lon="-1.25073">
        <ele>29.94</ele>
        <time>2016-01-09T15:08:37Z</time>
      </trkpt>
      <trkpt lat="43.64652" lon="-1.25066">
        <ele>29.94</ele>
        <time>2016-01-09T15:08:38Z</time>
      </trkpt>
      <trkpt lat="43.64657" lon="-1.25057">
        <ele>29.94</ele>
        <time>2016-01-09T15:08:39Z</time>
      </trkpt>
      <trkpt lat="43.64661" lon="-1.25048">
        <ele>30.42</ele>
        <time>2016-01-09T15:08:40Z</time>
      </trkpt>
      <trkpt lat="43.64666" lon="-1.25039">
        <ele>30.9</ele>
        <time>2016-01-09T15:08:41Z</time>
      </trkpt>
      <trkpt lat="43.64672" lon="-1.25031">
        <ele>30.42</ele>
        <time>2016-01-09T15:08:42Z</time>
      </trkpt>
      <trkpt lat="43.64679" lon="-1.25026">
        <ele>30.42</ele>
        <time>2016-01-09T15:08:43Z</time>
      </trkpt>
      <trkpt lat="43.64688" lon="-1.25024">
        <ele>30.9</ele>
        <time>2016-01-09T15:08:44Z</time>
      </trkpt>
      <trkpt lat="43.64696" lon="-1.25025">
        <ele>30.9</ele>
        <time>2016-01-09T15:08:45Z</time>
      </trkpt>
      <trkpt lat="43.64704" lon="-1.25028">
        <ele>30.9</ele>
        <time>2016-01-09T15:08:46Z</time>
      </trkpt>
      <trkpt lat="43.64713" lon="-1.25031">
        <ele>30.9</ele>
        <time>2016-01-09T15:08:47Z</time>
      </trkpt>
      <trkpt lat="43.64721" lon="-1.25034">
        <ele>30.9</ele>
        <time>2016-01-09T15:08:48Z</time>
      </trkpt>
      <trkpt lat="43.64729" lon="-1.25034">
        <ele>30.9</ele>
        <time>2016-01-09T15:08:49Z</time>
      </trkpt>
      <trkpt lat="43.64738" lon="-1.25032">
        <ele>30.9</ele>
        <time>2016-01-09T15:08:50Z</time>
      </trkpt>
      <trkpt lat="43.64746" lon="-1.25029">
        <ele>30.9</ele>
        <time>2016-01-09T15:08:51Z</time>
      </trkpt>
      <trkpt lat="43.64841" lon="-1.24988">
        <ele>30.42</ele>
        <time>2016-01-09T15:09:03Z</time>
      </trkpt>
      <trkpt lat="43.64958" lon="-1.24934">
        <ele>30.42</ele>
        <time>2016-01-09T15:09:18Z</time>
      </trkpt>
      <trkpt lat="43.65068" lon="-1.24877">
        <ele>29.94</ele>
        <time>2016-01-09T15:09:32Z</time>
      </trkpt>
      <trkpt lat="43.65183" lon="-1.24827">
        <ele>28.98</ele>
        <time>2016-01-09T15:09:46Z</time>
      </trkpt>
      <trkpt lat="43.65293" lon="-1.24777">
        <ele>29.46</ele>
        <time>2016-01-09T15:10:00Z</time>
      </trkpt>
      <trkpt lat="43.65375" lon="-1.24737">
        <ele>29.46</ele>
        <time>2016-01-09T15:10:11Z</time>
      </trkpt>
      <trkpt lat="43.65448" lon="-1.24701">
        <ele>30.42</ele>
        <time>2016-01-09T15:10:21Z</time>
      </trkpt>
      <trkpt lat="43.6555" lon="-1.24656">
        <ele>31.38</ele>
        <time>2016-01-09T15:10:34Z</time>
      </trkpt>
      <trkpt lat="43.6565" lon="-1.2461">
        <ele>31.86</ele>
        <time>2016-01-09T15:10:47Z</time>
      </trkpt>
      <trkpt lat="43.65757" lon="-1.2456">
        <ele>31.38</ele>
        <time>2016-01-09T15:11:01Z</time>
      </trkpt>
      <trkpt lat="43.65855" lon="-1.24514">
        <ele>31.38</ele>
        <time>2016-01-09T15:11:13Z</time>
      </trkpt>
      <trkpt lat="43.65985" lon="-1.24453">
        <ele>29.94</ele>
        <time>2016-01-09T15:11:28Z</time>
      </trkpt>
      <trkpt lat="43.66121" lon="-1.2439">
        <ele>28.5</ele>
        <time>2016-01-09T15:11:43Z</time>
      </trkpt>
      <trkpt lat="43.66225" lon="-1.24328">
        <ele>28.02</ele>
        <time>2016-01-09T15:11:55Z</time>
      </trkpt>
      <trkpt lat="43.66358" lon="-1.24236">
        <ele>27.53</ele>
        <time>2016-01-09T15:12:11Z</time>
      </trkpt>
      <trkpt lat="43.66487" lon="-1.2416">
        <ele>26.09</ele>
        <time>2016-01-09T15:12:26Z</time>
      </trkpt>
      <trkpt lat="43.66612" lon="-1.24124">
        <ele>24.65</ele>
        <time>2016-01-09T15:12:40Z</time>
      </trkpt>
      <trkpt lat="43.6675" lon="-1.24099">
        <ele>21.29</ele>
        <time>2016-01-09T15:12:54Z</time>
      </trkpt>
      <trkpt lat="43.66865" lon="-1.24078">
        <ele>18.4</ele>
        <time>2016-01-09T15:13:05Z</time>
      </trkpt>
      <trkpt lat="43.66906" lon="-1.24063">
        <ele>17.92</ele>
        <time>2016-01-09T15:13:09Z</time>
      </trkpt>
      <trkpt lat="43.66915" lon="-1.24055">
        <ele>17.92</ele>
        <time>2016-01-09T15:13:10Z</time>
      </trkpt>
      <trkpt lat="43.66924" lon="-1.24047">
        <ele>17.44</ele>
        <time>2016-01-09T15:13:11Z</time>
      </trkpt>
      <trkpt lat="43.67063" lon="-1.23917">
        <ele>16.48</ele>
        <time>2016-01-09T15:13:28Z</time>
      </trkpt>
      <trkpt lat="43.67185" lon="-1.23801">
        <ele>13.6</ele>
        <time>2016-01-09T15:13:43Z</time>
      </trkpt>
      <trkpt lat="43.67321" lon="-1.23671">
        <ele>11.19</ele>
        <time>2016-01-09T15:13:59Z</time>
      </trkpt>
      <trkpt lat="43.67435" lon="-1.23562">
        <ele>7.83</ele>
        <time>2016-01-09T15:14:12Z</time>
      </trkpt>
      <trkpt lat="43.67551" lon="-1.23453">
        <ele>7.83</ele>
        <time>2016-01-09T15:14:26Z</time>
      </trkpt>
      <trkpt lat="43.67638" lon="-1.23371">
        <ele>11.19</ele>
        <time>2016-01-09T15:14:39Z</time>
      </trkpt>
      <trkpt lat="43.67723" lon="-1.2329">
        <ele>14.08</ele>
        <time>2016-01-09T15:14:55Z</time>
      </trkpt>
      <trkpt lat="43.67782" lon="-1.23237">
        <ele>16</ele>
        <time>2016-01-09T15:15:08Z</time>
      </trkpt>
      <trkpt lat="43.67864" lon="-1.23188">
        <ele>17.92</ele>
        <time>2016-01-09T15:15:24Z</time>
      </trkpt>
      <trkpt lat="43.67933" lon="-1.23142">
        <ele>20.32</ele>
        <time>2016-01-09T15:15:38Z</time>
      </trkpt>
      <trkpt lat="43.67937" lon="-1.23138">
        <ele>20.32</ele>
        <time>2016-01-09T15:15:39Z</time>
      </trkpt>
      <trkpt lat="43.6795" lon="-1.23125">
        <ele>20.81</ele>
        <time>2016-01-09T15:15:42Z</time>
      </trkpt>
      <trkpt lat="43.67955" lon="-1.23123">
        <ele>20.81</ele>
        <time>2016-01-09T15:15:43Z</time>
      </trkpt>
      <trkpt lat="43.6796" lon="-1.23121">
        <ele>21.29</ele>
        <time>2016-01-09T15:15:44Z</time>
      </trkpt>
      <trkpt lat="43.68023" lon="-1.23089">
        <ele>22.73</ele>
        <time>2016-01-09T15:15:57Z</time>
      </trkpt>
      <trkpt lat="43.68099" lon="-1.23043">
        <ele>25.13</ele>
        <time>2016-01-09T15:16:12Z</time>
      </trkpt>
      <trkpt lat="43.68183" lon="-1.22994">
        <ele>27.53</ele>
        <time>2016-01-09T15:16:29Z</time>
      </trkpt>
      <trkpt lat="43.68267" lon="-1.22977">
        <ele>28.98</ele>
        <time>2016-01-09T15:16:44Z</time>
      </trkpt>
      <trkpt lat="43.68346" lon="-1.22971">
        <ele>28.98</ele>
        <time>2016-01-09T15:16:57Z</time>
      </trkpt>
      <trkpt lat="43.68417" lon="-1.22963">
        <ele>28.5</ele>
        <time>2016-01-09T15:17:08Z</time>
      </trkpt>
      <trkpt lat="43.68423" lon="-1.2296">
        <ele>28.5</ele>
        <time>2016-01-09T15:17:09Z</time>
      </trkpt>
      <trkpt lat="43.6843" lon="-1.22957">
        <ele>28.5</ele>
        <time>2016-01-09T15:17:10Z</time>
      </trkpt>
      <trkpt lat="43.68437" lon="-1.22956">
        <ele>28.98</ele>
        <time>2016-01-09T15:17:11Z</time>
      </trkpt>
      <trkpt lat="43.68443" lon="-1.22957">
        <ele>28.5</ele>
        <time>2016-01-09T15:17:12Z</time>
      </trkpt>
      <trkpt lat="43.6845" lon="-1.22959">
        <ele>28.5</ele>
        <time>2016-01-09T15:17:13Z</time>
      </trkpt>
      <trkpt lat="43.68457" lon="-1.2296">
        <ele>28.5</ele>
        <time>2016-01-09T15:17:14Z</time>
      </trkpt>
      <trkpt lat="43.68464" lon="-1.2296">
        <ele>28.02</ele>
        <time>2016-01-09T15:17:15Z</time>
      </trkpt>
      <trkpt lat="43.68471" lon="-1.2296">
        <ele>28.02</ele>
        <time>2016-01-09T15:17:16Z</time>
      </trkpt>
      <trkpt lat="43.68584" lon="-1.2295">
        <ele>27.53</ele>
        <time>2016-01-09T15:17:31Z</time>
      </trkpt>
      <trkpt lat="43.687" lon="-1.2294">
        <ele>28.5</ele>
        <time>2016-01-09T15:17:47Z</time>
      </trkpt>
      <trkpt lat="43.68744" lon="-1.22936">
        <ele>30.42</ele>
        <time>2016-01-09T15:17:56Z</time>
      </trkpt>
      <trkpt lat="43.68745" lon="-1.22936">
        <ele>30.42</ele>
        <time>2016-01-09T15:17:57Z</time>
      </trkpt>
      <trkpt lat="43.68746" lon="-1.22935">
        <ele>30.9</ele>
        <time>2016-01-09T15:17:58Z</time>
      </trkpt>
      <trkpt lat="43.68747" lon="-1.22934">
        <ele>30.9</ele>
        <time>2016-01-09T15:17:59Z</time>
      </trkpt>
      <trkpt lat="43.68749" lon="-1.22932">
        <ele>30.9</ele>
        <time>2016-01-09T15:18:00Z</time>
      </trkpt>
      <trkpt lat="43.68751" lon="-1.2293">
        <ele>30.9</ele>
        <time>2016-01-09T15:18:01Z</time>
      </trkpt>
      <trkpt lat="43.68754" lon="-1.22928">
        <ele>30.9</ele>
        <time>2016-01-09T15:18:02Z</time>
      </trkpt>
      <trkpt lat="43.68758" lon="-1.22928">
        <ele>30.9</ele>
        <time>2016-01-09T15:18:03Z</time>
      </trkpt>
      <trkpt lat="43.68767" lon="-1.22931">
        <ele>30.9</ele>
        <time>2016-01-09T15:18:05Z</time>
      </trkpt>
      <trkpt lat="43.68771" lon="-1.22933">
        <ele>30.9</ele>
        <time>2016-01-09T15:18:06Z</time>
      </trkpt>
      <trkpt lat="43.68776" lon="-1.22934">
        <ele>30.9</ele>
        <time>2016-01-09T15:18:07Z</time>
      </trkpt>
      <trkpt lat="43.68781" lon="-1.22934">
        <ele>30.9</ele>
        <time>2016-01-09T15:18:08Z</time>
      </trkpt>
      <trkpt lat="43.68786" lon="-1.22933">
        <ele>30.9</ele>
        <time>2016-01-09T15:18:09Z</time>
      </trkpt>
      <trkpt lat="43.68791" lon="-1.22932">
        <ele>30.9</ele>
        <time>2016-01-09T15:18:10Z</time>
      </trkpt>
      <trkpt lat="43.68825" lon="-1.22928">
        <ele>31.86</ele>
        <time>2016-01-09T15:18:20Z</time>
      </trkpt>
      <trkpt lat="43.68829" lon="-1.22929">
        <ele>31.86</ele>
        <time>2016-01-09T15:18:22Z</time>
      </trkpt>
      <trkpt lat="43.6883" lon="-1.22932">
        <ele>32.34</ele>
        <time>2016-01-09T15:18:23Z</time>
      </trkpt>
      <trkpt lat="43.68829" lon="-1.22935">
        <ele>31.86</ele>
        <time>2016-01-09T15:18:24Z</time>
      </trkpt>
      <trkpt lat="43.68826" lon="-1.22937">
        <ele>31.86</ele>
        <time>2016-01-09T15:18:25Z</time>
      </trkpt>
      <trkpt lat="43.68823" lon="-1.22938">
        <ele>31.86</ele>
        <time>2016-01-09T15:18:26Z</time>
      </trkpt>
      <trkpt lat="43.68819" lon="-1.22939">
        <ele>31.86</ele>
        <time>2016-01-09T15:18:27Z</time>
      </trkpt>
      <trkpt lat="43.68785" lon="-1.22948">
        <ele>30.9</ele>
        <time>2016-01-09T15:18:34Z</time>
      </trkpt>
      <trkpt lat="43.6878" lon="-1.22951">
        <ele>30.9</ele>
        <time>2016-01-09T15:18:35Z</time>
      </trkpt>
      <trkpt lat="43.68777" lon="-1.22956">
        <ele>30.9</ele>
        <time>2016-01-09T15:18:36Z</time>
      </trkpt>
      <trkpt lat="43.68774" lon="-1.22962">
        <ele>30.42</ele>
        <time>2016-01-09T15:18:37Z</time>
      </trkpt>
      <trkpt lat="43.68771" lon="-1.22968">
        <ele>30.9</ele>
        <time>2016-01-09T15:18:38Z</time>
      </trkpt>
      <trkpt lat="43.68769" lon="-1.22975">
        <ele>30.42</ele>
        <time>2016-01-09T15:18:39Z</time>
      </trkpt>
      <trkpt lat="43.68761" lon="-1.23003">
        <ele>29.94</ele>
        <time>2016-01-09T15:18:43Z</time>
      </trkpt>
      <trkpt lat="43.6876" lon="-1.23011">
        <ele>29.94</ele>
        <time>2016-01-09T15:18:44Z</time>
      </trkpt>
      <trkpt lat="43.6876" lon="-1.23019">
        <ele>29.94</ele>
        <time>2016-01-09T15:18:45Z</time>
      </trkpt>
      <trkpt lat="43.68759" lon="-1.23028">
        <ele>29.94</ele>
        <time>2016-01-09T15:18:46Z</time>
      </trkpt>
      <trkpt lat="43.68759" lon="-1.23036">
        <ele>29.94</ele>
        <time>2016-01-09T15:18:47Z</time>
      </trkpt>
      <trkpt lat="43.68754" lon="-1.23103">
        <ele>28.98</ele>
        <time>2016-01-09T15:18:55Z</time>
      </trkpt>
      <trkpt lat="43.68752" lon="-1.23111">
        <ele>28.98</ele>
        <time>2016-01-09T15:18:56Z</time>
      </trkpt>
      <trkpt lat="43.68751" lon="-1.23119">
        <ele>28.98</ele>
        <time>2016-01-09T15:18:57Z</time>
      </trkpt>
      <trkpt lat="43.68751" lon="-1.23128">
        <ele>28.98</ele>
        <time>2016-01-09T15:18:58Z</time>
      </trkpt>
      <trkpt lat="43.6875" lon="-1.23137">
        <ele>29.46</ele>
        <time>2016-01-09T15:18:59Z</time>
      </trkpt>
      <trkpt lat="43.68745" lon="-1.23212">
        <ele>28.5</ele>
        <time>2016-01-09T15:19:11Z</time>
      </trkpt>
      <trkpt lat="43.68746" lon="-1.23215">
        <ele>28.5</ele>
        <time>2016-01-09T15:19:12Z</time>
      </trkpt>
      <trkpt lat="43.68746" lon="-1.23217">
        <ele>28.5</ele>
        <time>2016-01-09T15:19:13Z</time>
      </trkpt>
      <trkpt lat="43.68747" lon="-1.23219">
        <ele>28.5</ele>
        <time>2016-01-09T15:19:14Z</time>
      </trkpt>
      <trkpt lat="43.68748" lon="-1.23221">
        <ele>28.5</ele>
        <time>2016-01-09T15:19:15Z</time>
      </trkpt>
      <trkpt lat="43.68747" lon="-1.23222">
        <ele>28.5</ele>
        <time>2016-01-09T15:19:16Z</time>
      </trkpt>
      <trkpt lat="43.68745" lon="-1.23223">
        <ele>28.5</ele>
        <time>2016-01-09T15:19:17Z</time>
      </trkpt>
      <trkpt lat="43.68743" lon="-1.23222">
        <ele>28.5</ele>
        <time>2016-01-09T15:19:18Z</time>
      </trkpt>
      <trkpt lat="43.68742" lon="-1.23219">
        <ele>28.5</ele>
        <time>2016-01-09T15:19:19Z</time>
      </trkpt>
      <trkpt lat="43.68742" lon="-1.23215">
        <ele>28.5</ele>
        <time>2016-01-09T15:19:20Z</time>
      </trkpt>
      <trkpt lat="43.68743" lon="-1.23211">
        <ele>28.5</ele>
        <time>2016-01-09T15:19:21Z</time>
      </trkpt>
      <trkpt lat="43.68743" lon="-1.23207">
        <ele>28.5</ele>
        <time>2016-01-09T15:19:22Z</time>
      </trkpt>
      <trkpt lat="43.68743" lon="-1.23201">
        <ele>28.5</ele>
        <time>2016-01-09T15:19:23Z</time>
      </trkpt>
      <trkpt lat="43.68743" lon="-1.23194">
        <ele>28.5</ele>
        <time>2016-01-09T15:19:24Z</time>
      </trkpt>
      <trkpt lat="43.68753" lon="-1.23087">
        <ele>28.98</ele>
        <time>2016-01-09T15:19:37Z</time>
      </trkpt>
      <trkpt lat="43.68757" lon="-1.23018">
        <ele>29.46</ele>
        <time>2016-01-09T15:19:45Z</time>
      </trkpt>
      <trkpt lat="43.68759" lon="-1.23009">
        <ele>29.46</ele>
        <time>2016-01-09T15:19:46Z</time>
      </trkpt>
      <trkpt lat="43.68761" lon="-1.23002">
        <ele>29.46</ele>
        <time>2016-01-09T15:19:47Z</time>
      </trkpt>
      <trkpt lat="43.68763" lon="-1.22994">
        <ele>29.94</ele>
        <time>2016-01-09T15:19:48Z</time>
      </trkpt>
      <trkpt lat="43.68765" lon="-1.22987">
        <ele>29.94</ele>
        <time>2016-01-09T15:19:49Z</time>
      </trkpt>
      <trkpt lat="43.68766" lon="-1.2298">
        <ele>29.94</ele>
        <time>2016-01-09T15:19:50Z</time>
      </trkpt>
      <trkpt lat="43.68764" lon="-1.22973">
        <ele>29.94</ele>
        <time>2016-01-09T15:19:51Z</time>
      </trkpt>
      <trkpt lat="43.6876" lon="-1.22967">
        <ele>30.42</ele>
        <time>2016-01-09T15:19:52Z</time>
      </trkpt>
      <trkpt lat="43.68756" lon="-1.22963">
        <ele>30.42</ele>
        <time>2016-01-09T15:19:53Z</time>
      </trkpt>
      <trkpt lat="43.68752" lon="-1.22957">
        <ele>30.42</ele>
        <time>2016-01-09T15:19:54Z</time>
      </trkpt>
      <trkpt lat="43.6875" lon="-1.22949">
        <ele>30.42</ele>
        <time>2016-01-09T15:19:55Z</time>
      </trkpt>
      <trkpt lat="43.68751" lon="-1.22942">
        <ele>30.42</ele>
        <time>2016-01-09T15:19:56Z</time>
      </trkpt>
      <trkpt lat="43.68754" lon="-1.22935">
        <ele>30.42</ele>
        <time>2016-01-09T15:19:57Z</time>
      </trkpt>
      <trkpt lat="43.68759" lon="-1.22932">
        <ele>30.42</ele>
        <time>2016-01-09T15:19:58Z</time>
      </trkpt>
      <trkpt lat="43.68764" lon="-1.22931">
        <ele>30.9</ele>
        <time>2016-01-09T15:19:59Z</time>
      </trkpt>
      <trkpt lat="43.68769" lon="-1.22931">
        <ele>30.9</ele>
        <time>2016-01-09T15:20:00Z</time>
      </trkpt>
      <trkpt lat="43.68775" lon="-1.22932">
        <ele>30.9</ele>
        <time>2016-01-09T15:20:01Z</time>
      </trkpt>
      <trkpt lat="43.68781" lon="-1.22933">
        <ele>30.9</ele>
        <time>2016-01-09T15:20:02Z</time>
      </trkpt>
      <trkpt lat="43.68787" lon="-1.22932">
        <ele>30.9</ele>
        <time>2016-01-09T15:20:03Z</time>
      </trkpt>
      <trkpt lat="43.68816" lon="-1.22926">
        <ele>31.38</ele>
        <time>2016-01-09T15:20:08Z</time>
      </trkpt>
      <trkpt lat="43.6882" lon="-1.22921">
        <ele>31.38</ele>
        <time>2016-01-09T15:20:09Z</time>
      </trkpt>
      <trkpt lat="43.68821" lon="-1.22916">
        <ele>31.38</ele>
        <time>2016-01-09T15:20:10Z</time>
      </trkpt>
      <trkpt lat="43.6882" lon="-1.2291">
        <ele>31.38</ele>
        <time>2016-01-09T15:20:11Z</time>
      </trkpt>
      <trkpt lat="43.68819" lon="-1.22904">
        <ele>31.86</ele>
        <time>2016-01-09T15:20:12Z</time>
      </trkpt>
      <trkpt lat="43.68819" lon="-1.22899">
        <ele>31.86</ele>
        <time>2016-01-09T15:20:13Z</time>
      </trkpt>
      <trkpt lat="43.6882" lon="-1.22894">
        <ele>31.86</ele>
        <time>2016-01-09T15:20:14Z</time>
      </trkpt>
      <trkpt lat="43.68823" lon="-1.22891">
        <ele>32.82</ele>
        <time>2016-01-09T15:20:15Z</time>
      </trkpt>
      <trkpt lat="43.68826" lon="-1.22888">
        <ele>31.86</ele>
        <time>2016-01-09T15:20:16Z</time>
      </trkpt>
      <trkpt lat="43.68829" lon="-1.22886">
        <ele>31.86</ele>
        <time>2016-01-09T15:20:17Z</time>
      </trkpt>
      <trkpt lat="43.68832" lon="-1.22884">
        <ele>31.86</ele>
        <time>2016-01-09T15:20:18Z</time>
      </trkpt>
      <trkpt lat="43.68836" lon="-1.22883">
        <ele>31.86</ele>
        <time>2016-01-09T15:20:19Z</time>
      </trkpt>
      <trkpt lat="43.68844" lon="-1.22875">
        <ele>31.86</ele>
        <time>2016-01-09T15:20:22Z</time>
      </trkpt>
      <trkpt lat="43.68845" lon="-1.22871">
        <ele>31.86</ele>
        <time>2016-01-09T15:20:23Z</time>
      </trkpt>
      <trkpt lat="43.68846" lon="-1.22866">
        <ele>31.86</ele>
        <time>2016-01-09T15:20:31Z</time>
      </trkpt>
      <trkpt lat="43.68848" lon="-1.22866">
        <ele>31.86</ele>
        <time>2016-01-09T15:20:46Z</time>
      </trkpt>
      <trkpt lat="43.68848" lon="-1.22867">
        <ele>31.86</ele>
        <time>2016-01-09T15:21:17Z</time>
      </trkpt>
      <trkpt lat="43.68848" lon="-1.22867">
        <ele>31.86</ele>
        <time>2016-01-09T15:21:47Z</time>
      </trkpt>
      <trkpt lat="43.68847" lon="-1.22866">
        <ele>31.86</ele>
        <time>2016-01-09T15:22:19Z</time>
      </trkpt>
      <trkpt lat="43.68847" lon="-1.22867">
        <ele>31.38</ele>
        <time>2016-01-09T15:22:52Z</time>
      </trkpt>
    </trkseg>
  </trk>
</gpx>